<?xml version="1.0" encoding="UTF-8" standalone="no" ?>
<gpx xmlns="http://www.topografix.com/GPX/1/1" xmlns:xsi="http://www.w3.org/2001/XMLSchema-instance" xsi:schemaLocation="http://www.topografix.com/GPX/1/1 http://www.topografix.com/GPX/1/1/gpx.xsd" version="1.1" creator="VisuGPX - https://www.visugpx.com">
  <metadata>
    <name>La campagne Bussièroise</name>
    <desc><![CDATA[Balade sur les chemins au sud est de Bussières. Relativement facile.]]></desc>
  </metadata>
  <trk>
    <name><![CDATA[20190311165242-nv2LB]]></name>
    <trkseg>
      <trkpt lat="45.83713" lon="4.26765">
        <ele>642.953</ele>
        <time>2019-03-11T08:05:33Z</time>
      </trkpt>
      <trkpt lat="45.83713" lon="4.26765">
        <ele>642.666</ele>
        <time>2019-03-11T08:05:39Z</time>
      </trkpt>
      <trkpt lat="45.83714" lon="4.26754">
        <ele>642.676</ele>
        <time>2019-03-11T08:05:45Z</time>
      </trkpt>
      <trkpt lat="45.83714" lon="4.26754">
        <ele>642.729</ele>
        <time>2019-03-11T08:05:51Z</time>
      </trkpt>
      <trkpt lat="45.83707" lon="4.26744">
        <ele>642.674</ele>
        <time>2019-03-11T08:05:56Z</time>
      </trkpt>
      <trkpt lat="45.83704" lon="4.26735">
        <ele>642.638</ele>
        <time>2019-03-11T08:06:02Z</time>
      </trkpt>
      <trkpt lat="45.83704" lon="4.26735">
        <ele>642.418</ele>
        <time>2019-03-11T08:06:07Z</time>
      </trkpt>
      <trkpt lat="45.83702" lon="4.26723">
        <ele>642.126</ele>
        <time>2019-03-11T08:06:13Z</time>
      </trkpt>
      <trkpt lat="45.837" lon="4.26718">
        <ele>642.078</ele>
        <time>2019-03-11T08:06:18Z</time>
      </trkpt>
      <trkpt lat="45.83698" lon="4.26715">
        <ele>642.025</ele>
        <time>2019-03-11T08:06:24Z</time>
      </trkpt>
      <trkpt lat="45.83697" lon="4.26715">
        <ele>641.778</ele>
        <time>2019-03-11T08:06:29Z</time>
      </trkpt>
      <trkpt lat="45.83694" lon="4.26717">
        <ele>641.34</ele>
        <time>2019-03-11T08:06:35Z</time>
      </trkpt>
      <trkpt lat="45.83692" lon="4.26719">
        <ele>640.908</ele>
        <time>2019-03-11T08:06:40Z</time>
      </trkpt>
      <trkpt lat="45.83691" lon="4.26718">
        <ele>640.453</ele>
        <time>2019-03-11T08:06:46Z</time>
      </trkpt>
      <trkpt lat="45.83691" lon="4.26718">
        <ele>640.488</ele>
        <time>2019-03-11T08:06:51Z</time>
      </trkpt>
      <trkpt lat="45.8369" lon="4.26718">
        <ele>640.303</ele>
        <time>2019-03-11T08:06:57Z</time>
      </trkpt>
      <trkpt lat="45.8369" lon="4.26718">
        <ele>640.13</ele>
        <time>2019-03-11T08:07:03Z</time>
      </trkpt>
      <trkpt lat="45.83689" lon="4.26718">
        <ele>639.63</ele>
        <time>2019-03-11T08:07:08Z</time>
      </trkpt>
      <trkpt lat="45.83689" lon="4.26718">
        <ele>639.435</ele>
        <time>2019-03-11T08:07:13Z</time>
      </trkpt>
      <trkpt lat="45.83689" lon="4.26719">
        <ele>639.101</ele>
        <time>2019-03-11T08:07:18Z</time>
      </trkpt>
      <trkpt lat="45.83688" lon="4.26719">
        <ele>639.437</ele>
        <time>2019-03-11T08:07:24Z</time>
      </trkpt>
      <trkpt lat="45.83688" lon="4.2672">
        <ele>639.476</ele>
        <time>2019-03-11T08:07:30Z</time>
      </trkpt>
      <trkpt lat="45.83688" lon="4.2672">
        <ele>638.875</ele>
        <time>2019-03-11T08:07:35Z</time>
      </trkpt>
      <trkpt lat="45.83688" lon="4.2672">
        <ele>638.145</ele>
        <time>2019-03-11T08:07:41Z</time>
      </trkpt>
      <trkpt lat="45.83687" lon="4.26719">
        <ele>637.559</ele>
        <time>2019-03-11T08:07:47Z</time>
      </trkpt>
      <trkpt lat="45.83687" lon="4.26719">
        <ele>637.482</ele>
        <time>2019-03-11T08:07:52Z</time>
      </trkpt>
      <trkpt lat="45.83687" lon="4.26719">
        <ele>636.619</ele>
        <time>2019-03-11T08:07:58Z</time>
      </trkpt>
      <trkpt lat="45.83687" lon="4.26719">
        <ele>636.169</ele>
        <time>2019-03-11T08:08:04Z</time>
      </trkpt>
      <trkpt lat="45.83687" lon="4.26719">
        <ele>636.047</ele>
        <time>2019-03-11T08:08:09Z</time>
      </trkpt>
      <trkpt lat="45.83687" lon="4.2672">
        <ele>635.127</ele>
        <time>2019-03-11T08:08:15Z</time>
      </trkpt>
      <trkpt lat="45.83687" lon="4.26719">
        <ele>634.93</ele>
        <time>2019-03-11T08:08:21Z</time>
      </trkpt>
      <trkpt lat="45.83687" lon="4.26719">
        <ele>634.916</ele>
        <time>2019-03-11T08:08:27Z</time>
      </trkpt>
      <trkpt lat="45.83687" lon="4.26719">
        <ele>634.949</ele>
        <time>2019-03-11T08:08:32Z</time>
      </trkpt>
      <trkpt lat="45.83687" lon="4.26719">
        <ele>634.942</ele>
        <time>2019-03-11T08:08:37Z</time>
      </trkpt>
      <trkpt lat="45.8369" lon="4.26716">
        <ele>635.399</ele>
        <time>2019-03-11T08:08:43Z</time>
      </trkpt>
      <trkpt lat="45.83694" lon="4.26712">
        <ele>636.278</ele>
        <time>2019-03-11T08:08:48Z</time>
      </trkpt>
      <trkpt lat="45.83693" lon="4.26707">
        <ele>636.693</ele>
        <time>2019-03-11T08:08:53Z</time>
      </trkpt>
      <trkpt lat="45.8369" lon="4.26706">
        <ele>636.984</ele>
        <time>2019-03-11T08:08:59Z</time>
      </trkpt>
      <trkpt lat="45.83685" lon="4.26708">
        <ele>636.886</ele>
        <time>2019-03-11T08:09:05Z</time>
      </trkpt>
      <trkpt lat="45.83681" lon="4.26713">
        <ele>636.455</ele>
        <time>2019-03-11T08:09:10Z</time>
      </trkpt>
      <trkpt lat="45.83678" lon="4.26716">
        <ele>635.937</ele>
        <time>2019-03-11T08:09:16Z</time>
      </trkpt>
      <trkpt lat="45.83672" lon="4.2672">
        <ele>635.45</ele>
        <time>2019-03-11T08:09:21Z</time>
      </trkpt>
      <trkpt lat="45.8367" lon="4.26722">
        <ele>635.448</ele>
        <time>2019-03-11T08:09:26Z</time>
      </trkpt>
      <trkpt lat="45.83661" lon="4.26727">
        <ele>636.025</ele>
        <time>2019-03-11T08:09:32Z</time>
      </trkpt>
      <trkpt lat="45.83657" lon="4.2673">
        <ele>636.325</ele>
        <time>2019-03-11T08:09:37Z</time>
      </trkpt>
      <trkpt lat="45.83652" lon="4.26731">
        <ele>636.733</ele>
        <time>2019-03-11T08:09:42Z</time>
      </trkpt>
      <trkpt lat="45.83648" lon="4.26734">
        <ele>637.047</ele>
        <time>2019-03-11T08:09:48Z</time>
      </trkpt>
      <trkpt lat="45.83646" lon="4.26737">
        <ele>637.447</ele>
        <time>2019-03-11T08:09:54Z</time>
      </trkpt>
      <trkpt lat="45.83641" lon="4.26742">
        <ele>637.648</ele>
        <time>2019-03-11T08:09:59Z</time>
      </trkpt>
      <trkpt lat="45.83634" lon="4.26749">
        <ele>638.448</ele>
        <time>2019-03-11T08:10:05Z</time>
      </trkpt>
      <trkpt lat="45.83627" lon="4.26756">
        <ele>639.215</ele>
        <time>2019-03-11T08:10:11Z</time>
      </trkpt>
      <trkpt lat="45.83623" lon="4.26758">
        <ele>639.773</ele>
        <time>2019-03-11T08:10:16Z</time>
      </trkpt>
      <trkpt lat="45.83618" lon="4.26759">
        <ele>640.494</ele>
        <time>2019-03-11T08:10:22Z</time>
      </trkpt>
      <trkpt lat="45.83611" lon="4.26764">
        <ele>641.097</ele>
        <time>2019-03-11T08:10:28Z</time>
      </trkpt>
      <trkpt lat="45.83605" lon="4.26767">
        <ele>641.45</ele>
        <time>2019-03-11T08:10:33Z</time>
      </trkpt>
      <trkpt lat="45.83599" lon="4.26768">
        <ele>641.671</ele>
        <time>2019-03-11T08:10:38Z</time>
      </trkpt>
      <trkpt lat="45.83593" lon="4.2677">
        <ele>641.864</ele>
        <time>2019-03-11T08:10:44Z</time>
      </trkpt>
      <trkpt lat="45.83589" lon="4.26772">
        <ele>642.244</ele>
        <time>2019-03-11T08:10:50Z</time>
      </trkpt>
      <trkpt lat="45.83584" lon="4.26779">
        <ele>642.191</ele>
        <time>2019-03-11T08:10:56Z</time>
      </trkpt>
      <trkpt lat="45.83582" lon="4.26788">
        <ele>641.71</ele>
        <time>2019-03-11T08:11:01Z</time>
      </trkpt>
      <trkpt lat="45.83581" lon="4.26794">
        <ele>641.546</ele>
        <time>2019-03-11T08:11:06Z</time>
      </trkpt>
      <trkpt lat="45.83579" lon="4.26804">
        <ele>641.384</ele>
        <time>2019-03-11T08:11:11Z</time>
      </trkpt>
      <trkpt lat="45.8358" lon="4.26814">
        <ele>641.195</ele>
        <time>2019-03-11T08:11:17Z</time>
      </trkpt>
      <trkpt lat="45.8358" lon="4.26819">
        <ele>641.077</ele>
        <time>2019-03-11T08:11:22Z</time>
      </trkpt>
      <trkpt lat="45.83581" lon="4.26828">
        <ele>641.236</ele>
        <time>2019-03-11T08:11:28Z</time>
      </trkpt>
      <trkpt lat="45.83581" lon="4.26838">
        <ele>641.732</ele>
        <time>2019-03-11T08:11:33Z</time>
      </trkpt>
      <trkpt lat="45.83581" lon="4.26847">
        <ele>641.907</ele>
        <time>2019-03-11T08:11:39Z</time>
      </trkpt>
      <trkpt lat="45.83579" lon="4.26855">
        <ele>642.356</ele>
        <time>2019-03-11T08:11:44Z</time>
      </trkpt>
      <trkpt lat="45.83579" lon="4.26863">
        <ele>642.353</ele>
        <time>2019-03-11T08:11:50Z</time>
      </trkpt>
      <trkpt lat="45.8358" lon="4.26871">
        <ele>642.615</ele>
        <time>2019-03-11T08:11:55Z</time>
      </trkpt>
      <trkpt lat="45.83579" lon="4.26883">
        <ele>643.196</ele>
        <time>2019-03-11T08:12:01Z</time>
      </trkpt>
      <trkpt lat="45.8358" lon="4.26891">
        <ele>643.763</ele>
        <time>2019-03-11T08:12:06Z</time>
      </trkpt>
      <trkpt lat="45.83582" lon="4.26901">
        <ele>644.47</ele>
        <time>2019-03-11T08:12:12Z</time>
      </trkpt>
      <trkpt lat="45.83582" lon="4.26911">
        <ele>644.99</ele>
        <time>2019-03-11T08:12:18Z</time>
      </trkpt>
      <trkpt lat="45.83582" lon="4.26915">
        <ele>645.531</ele>
        <time>2019-03-11T08:12:23Z</time>
      </trkpt>
      <trkpt lat="45.83582" lon="4.26921">
        <ele>645.957</ele>
        <time>2019-03-11T08:12:28Z</time>
      </trkpt>
      <trkpt lat="45.8358" lon="4.26927">
        <ele>646.442</ele>
        <time>2019-03-11T08:12:34Z</time>
      </trkpt>
      <trkpt lat="45.83578" lon="4.26936">
        <ele>646.689</ele>
        <time>2019-03-11T08:12:39Z</time>
      </trkpt>
      <trkpt lat="45.83578" lon="4.26938">
        <ele>646.924</ele>
        <time>2019-03-11T08:12:45Z</time>
      </trkpt>
      <trkpt lat="45.83579" lon="4.26946">
        <ele>646.825</ele>
        <time>2019-03-11T08:12:50Z</time>
      </trkpt>
      <trkpt lat="45.83577" lon="4.26957">
        <ele>646.237</ele>
        <time>2019-03-11T08:12:56Z</time>
      </trkpt>
      <trkpt lat="45.83575" lon="4.26963">
        <ele>645.835</ele>
        <time>2019-03-11T08:13:01Z</time>
      </trkpt>
      <trkpt lat="45.83574" lon="4.26974">
        <ele>645.724</ele>
        <time>2019-03-11T08:13:07Z</time>
      </trkpt>
      <trkpt lat="45.83568" lon="4.26983">
        <ele>645.554</ele>
        <time>2019-03-11T08:13:13Z</time>
      </trkpt>
      <trkpt lat="45.83563" lon="4.26995">
        <ele>646.018</ele>
        <time>2019-03-11T08:13:19Z</time>
      </trkpt>
      <trkpt lat="45.83562" lon="4.27004">
        <ele>646.552</ele>
        <time>2019-03-11T08:13:24Z</time>
      </trkpt>
      <trkpt lat="45.83562" lon="4.2701">
        <ele>646.801</ele>
        <time>2019-03-11T08:13:29Z</time>
      </trkpt>
      <trkpt lat="45.8356" lon="4.27018">
        <ele>646.985</ele>
        <time>2019-03-11T08:13:35Z</time>
      </trkpt>
      <trkpt lat="45.83558" lon="4.27027">
        <ele>646.793</ele>
        <time>2019-03-11T08:13:40Z</time>
      </trkpt>
      <trkpt lat="45.83556" lon="4.27033">
        <ele>646.471</ele>
        <time>2019-03-11T08:13:45Z</time>
      </trkpt>
      <trkpt lat="45.83556" lon="4.27043">
        <ele>646.053</ele>
        <time>2019-03-11T08:13:51Z</time>
      </trkpt>
      <trkpt lat="45.83553" lon="4.27051">
        <ele>646.025</ele>
        <time>2019-03-11T08:13:56Z</time>
      </trkpt>
      <trkpt lat="45.83551" lon="4.27059">
        <ele>645.902</ele>
        <time>2019-03-11T08:14:01Z</time>
      </trkpt>
      <trkpt lat="45.83549" lon="4.2707">
        <ele>645.782</ele>
        <time>2019-03-11T08:14:07Z</time>
      </trkpt>
      <trkpt lat="45.83547" lon="4.27081">
        <ele>645.909</ele>
        <time>2019-03-11T08:14:13Z</time>
      </trkpt>
      <trkpt lat="45.83546" lon="4.27092">
        <ele>646.037</ele>
        <time>2019-03-11T08:14:19Z</time>
      </trkpt>
      <trkpt lat="45.83546" lon="4.27099">
        <ele>646.213</ele>
        <time>2019-03-11T08:14:24Z</time>
      </trkpt>
      <trkpt lat="45.83545" lon="4.27109">
        <ele>646.525</ele>
        <time>2019-03-11T08:14:30Z</time>
      </trkpt>
      <trkpt lat="45.83544" lon="4.27119">
        <ele>646.326</ele>
        <time>2019-03-11T08:14:36Z</time>
      </trkpt>
      <trkpt lat="45.83544" lon="4.27129">
        <ele>646.206</ele>
        <time>2019-03-11T08:14:42Z</time>
      </trkpt>
      <trkpt lat="45.83543" lon="4.27138">
        <ele>646.465</ele>
        <time>2019-03-11T08:14:48Z</time>
      </trkpt>
      <trkpt lat="45.83543" lon="4.27149">
        <ele>645.904</ele>
        <time>2019-03-11T08:14:54Z</time>
      </trkpt>
      <trkpt lat="45.83542" lon="4.27159">
        <ele>645.257</ele>
        <time>2019-03-11T08:15:00Z</time>
      </trkpt>
      <trkpt lat="45.83539" lon="4.27167">
        <ele>644.682</ele>
        <time>2019-03-11T08:15:06Z</time>
      </trkpt>
      <trkpt lat="45.83536" lon="4.27175">
        <ele>643.956</ele>
        <time>2019-03-11T08:15:11Z</time>
      </trkpt>
      <trkpt lat="45.83533" lon="4.27181">
        <ele>643.845</ele>
        <time>2019-03-11T08:15:17Z</time>
      </trkpt>
      <trkpt lat="45.83529" lon="4.27188">
        <ele>643.673</ele>
        <time>2019-03-11T08:15:22Z</time>
      </trkpt>
      <trkpt lat="45.83523" lon="4.27193">
        <ele>643.024</ele>
        <time>2019-03-11T08:15:28Z</time>
      </trkpt>
      <trkpt lat="45.83518" lon="4.27197">
        <ele>642.998</ele>
        <time>2019-03-11T08:15:33Z</time>
      </trkpt>
      <trkpt lat="45.83512" lon="4.27207">
        <ele>643.252</ele>
        <time>2019-03-11T08:15:39Z</time>
      </trkpt>
      <trkpt lat="45.83509" lon="4.27209">
        <ele>643.154</ele>
        <time>2019-03-11T08:15:44Z</time>
      </trkpt>
      <trkpt lat="45.83503" lon="4.27211">
        <ele>642.983</ele>
        <time>2019-03-11T08:15:50Z</time>
      </trkpt>
      <trkpt lat="45.83496" lon="4.27215">
        <ele>643.097</ele>
        <time>2019-03-11T08:15:56Z</time>
      </trkpt>
      <trkpt lat="45.83491" lon="4.27216">
        <ele>643.243</ele>
        <time>2019-03-11T08:16:01Z</time>
      </trkpt>
      <trkpt lat="45.83484" lon="4.27221">
        <ele>643.92</ele>
        <time>2019-03-11T08:16:07Z</time>
      </trkpt>
      <trkpt lat="45.83479" lon="4.27224">
        <ele>644.749</ele>
        <time>2019-03-11T08:16:12Z</time>
      </trkpt>
      <trkpt lat="45.8348" lon="4.27228">
        <ele>645.439</ele>
        <time>2019-03-11T08:16:18Z</time>
      </trkpt>
      <trkpt lat="45.83484" lon="4.27229">
        <ele>645.386</ele>
        <time>2019-03-11T08:16:23Z</time>
      </trkpt>
      <trkpt lat="45.83485" lon="4.27232">
        <ele>644.993</ele>
        <time>2019-03-11T08:16:29Z</time>
      </trkpt>
      <trkpt lat="45.83491" lon="4.27242">
        <ele>644.934</ele>
        <time>2019-03-11T08:16:35Z</time>
      </trkpt>
      <trkpt lat="45.83495" lon="4.27252">
        <ele>645.084</ele>
        <time>2019-03-11T08:16:41Z</time>
      </trkpt>
      <trkpt lat="45.83498" lon="4.27261">
        <ele>644.712</ele>
        <time>2019-03-11T08:16:47Z</time>
      </trkpt>
      <trkpt lat="45.83499" lon="4.27266">
        <ele>645.011</ele>
        <time>2019-03-11T08:16:52Z</time>
      </trkpt>
      <trkpt lat="45.83503" lon="4.27273">
        <ele>645.96</ele>
        <time>2019-03-11T08:16:58Z</time>
      </trkpt>
      <trkpt lat="45.83505" lon="4.27282">
        <ele>646.582</ele>
        <time>2019-03-11T08:17:03Z</time>
      </trkpt>
      <trkpt lat="45.83507" lon="4.27291">
        <ele>647.084</ele>
        <time>2019-03-11T08:17:09Z</time>
      </trkpt>
      <trkpt lat="45.83506" lon="4.273">
        <ele>647.425</ele>
        <time>2019-03-11T08:17:15Z</time>
      </trkpt>
      <trkpt lat="45.83505" lon="4.27303">
        <ele>647.507</ele>
        <time>2019-03-11T08:17:20Z</time>
      </trkpt>
      <trkpt lat="45.83504" lon="4.27303">
        <ele>647.877</ele>
        <time>2019-03-11T08:17:26Z</time>
      </trkpt>
      <trkpt lat="45.83499" lon="4.27309">
        <ele>648.73</ele>
        <time>2019-03-11T08:17:32Z</time>
      </trkpt>
      <trkpt lat="45.83494" lon="4.27315">
        <ele>649.838</ele>
        <time>2019-03-11T08:17:37Z</time>
      </trkpt>
      <trkpt lat="45.8349" lon="4.27319">
        <ele>650.863</ele>
        <time>2019-03-11T08:17:43Z</time>
      </trkpt>
      <trkpt lat="45.83487" lon="4.27323">
        <ele>652.506</ele>
        <time>2019-03-11T08:17:49Z</time>
      </trkpt>
      <trkpt lat="45.83482" lon="4.27327">
        <ele>653.679</ele>
        <time>2019-03-11T08:17:54Z</time>
      </trkpt>
      <trkpt lat="45.83478" lon="4.2733">
        <ele>654.909</ele>
        <time>2019-03-11T08:18:00Z</time>
      </trkpt>
      <trkpt lat="45.83473" lon="4.27333">
        <ele>656.067</ele>
        <time>2019-03-11T08:18:06Z</time>
      </trkpt>
      <trkpt lat="45.83467" lon="4.27334">
        <ele>657.208</ele>
        <time>2019-03-11T08:18:11Z</time>
      </trkpt>
      <trkpt lat="45.83463" lon="4.27337">
        <ele>658.215</ele>
        <time>2019-03-11T08:18:16Z</time>
      </trkpt>
      <trkpt lat="45.83458" lon="4.2734">
        <ele>659.165</ele>
        <time>2019-03-11T08:18:22Z</time>
      </trkpt>
      <trkpt lat="45.83453" lon="4.27342">
        <ele>660.206</ele>
        <time>2019-03-11T08:18:27Z</time>
      </trkpt>
      <trkpt lat="45.83449" lon="4.27344">
        <ele>661.383</ele>
        <time>2019-03-11T08:18:33Z</time>
      </trkpt>
      <trkpt lat="45.83447" lon="4.27347">
        <ele>662.265</ele>
        <time>2019-03-11T08:18:38Z</time>
      </trkpt>
      <trkpt lat="45.83442" lon="4.27349">
        <ele>663.92</ele>
        <time>2019-03-11T08:18:44Z</time>
      </trkpt>
      <trkpt lat="45.83439" lon="4.27352">
        <ele>665.08</ele>
        <time>2019-03-11T08:18:49Z</time>
      </trkpt>
      <trkpt lat="45.8344" lon="4.27352">
        <ele>665.451</ele>
        <time>2019-03-11T08:18:55Z</time>
      </trkpt>
      <trkpt lat="45.83438" lon="4.27352">
        <ele>665.883</ele>
        <time>2019-03-11T08:19:00Z</time>
      </trkpt>
      <trkpt lat="45.83434" lon="4.27352">
        <ele>667.019</ele>
        <time>2019-03-11T08:19:06Z</time>
      </trkpt>
      <trkpt lat="45.83429" lon="4.27353">
        <ele>668.337</ele>
        <time>2019-03-11T08:19:12Z</time>
      </trkpt>
      <trkpt lat="45.83426" lon="4.27355">
        <ele>669.02</ele>
        <time>2019-03-11T08:19:17Z</time>
      </trkpt>
      <trkpt lat="45.83423" lon="4.27358">
        <ele>669.785</ele>
        <time>2019-03-11T08:19:23Z</time>
      </trkpt>
      <trkpt lat="45.8342" lon="4.27361">
        <ele>670.528</ele>
        <time>2019-03-11T08:19:29Z</time>
      </trkpt>
      <trkpt lat="45.83418" lon="4.27364">
        <ele>671.19</ele>
        <time>2019-03-11T08:19:34Z</time>
      </trkpt>
      <trkpt lat="45.83415" lon="4.27366">
        <ele>671.986</ele>
        <time>2019-03-11T08:19:40Z</time>
      </trkpt>
      <trkpt lat="45.83411" lon="4.27368">
        <ele>672.468</ele>
        <time>2019-03-11T08:19:45Z</time>
      </trkpt>
      <trkpt lat="45.83408" lon="4.2737">
        <ele>673.029</ele>
        <time>2019-03-11T08:19:50Z</time>
      </trkpt>
      <trkpt lat="45.83405" lon="4.27374">
        <ele>673.456</ele>
        <time>2019-03-11T08:19:56Z</time>
      </trkpt>
      <trkpt lat="45.83401" lon="4.27377">
        <ele>673.83</ele>
        <time>2019-03-11T08:20:01Z</time>
      </trkpt>
      <trkpt lat="45.83396" lon="4.2738">
        <ele>674.735</ele>
        <time>2019-03-11T08:20:07Z</time>
      </trkpt>
      <trkpt lat="45.83391" lon="4.27384">
        <ele>675.545</ele>
        <time>2019-03-11T08:20:13Z</time>
      </trkpt>
      <trkpt lat="45.83388" lon="4.27386">
        <ele>676.253</ele>
        <time>2019-03-11T08:20:18Z</time>
      </trkpt>
      <trkpt lat="45.83381" lon="4.27388">
        <ele>677.027</ele>
        <time>2019-03-11T08:20:24Z</time>
      </trkpt>
      <trkpt lat="45.83377" lon="4.27391">
        <ele>677.907</ele>
        <time>2019-03-11T08:20:30Z</time>
      </trkpt>
      <trkpt lat="45.83375" lon="4.27393">
        <ele>678.651</ele>
        <time>2019-03-11T08:20:36Z</time>
      </trkpt>
      <trkpt lat="45.83368" lon="4.27397">
        <ele>679.553</ele>
        <time>2019-03-11T08:20:42Z</time>
      </trkpt>
      <trkpt lat="45.83363" lon="4.27398">
        <ele>680.635</ele>
        <time>2019-03-11T08:20:48Z</time>
      </trkpt>
      <trkpt lat="45.8336" lon="4.274">
        <ele>681.299</ele>
        <time>2019-03-11T08:20:53Z</time>
      </trkpt>
      <trkpt lat="45.83354" lon="4.27402">
        <ele>682.087</ele>
        <time>2019-03-11T08:20:59Z</time>
      </trkpt>
      <trkpt lat="45.8335" lon="4.27405">
        <ele>682.845</ele>
        <time>2019-03-11T08:21:04Z</time>
      </trkpt>
      <trkpt lat="45.83344" lon="4.27405">
        <ele>683.935</ele>
        <time>2019-03-11T08:21:10Z</time>
      </trkpt>
      <trkpt lat="45.8334" lon="4.27407">
        <ele>684.833</ele>
        <time>2019-03-11T08:21:16Z</time>
      </trkpt>
      <trkpt lat="45.83336" lon="4.27411">
        <ele>685.554</ele>
        <time>2019-03-11T08:21:22Z</time>
      </trkpt>
      <trkpt lat="45.83333" lon="4.27413">
        <ele>686.377</ele>
        <time>2019-03-11T08:21:28Z</time>
      </trkpt>
      <trkpt lat="45.83331" lon="4.27415">
        <ele>687.07</ele>
        <time>2019-03-11T08:21:34Z</time>
      </trkpt>
      <trkpt lat="45.8333" lon="4.27416">
        <ele>687.661</ele>
        <time>2019-03-11T08:21:40Z</time>
      </trkpt>
      <trkpt lat="45.83329" lon="4.27416">
        <ele>688.228</ele>
        <time>2019-03-11T08:21:46Z</time>
      </trkpt>
      <trkpt lat="45.83329" lon="4.27414">
        <ele>688.838</ele>
        <time>2019-03-11T08:21:51Z</time>
      </trkpt>
      <trkpt lat="45.8333" lon="4.27415">
        <ele>689.124</ele>
        <time>2019-03-11T08:21:57Z</time>
      </trkpt>
      <trkpt lat="45.8333" lon="4.27416">
        <ele>689.248</ele>
        <time>2019-03-11T08:22:02Z</time>
      </trkpt>
      <trkpt lat="45.8333" lon="4.27415">
        <ele>688.877</ele>
        <time>2019-03-11T08:22:08Z</time>
      </trkpt>
      <trkpt lat="45.83329" lon="4.27415">
        <ele>689.122</ele>
        <time>2019-03-11T08:22:14Z</time>
      </trkpt>
      <trkpt lat="45.83329" lon="4.27415">
        <ele>689.142</ele>
        <time>2019-03-11T08:22:20Z</time>
      </trkpt>
      <trkpt lat="45.83331" lon="4.27418">
        <ele>689.153</ele>
        <time>2019-03-11T08:22:25Z</time>
      </trkpt>
      <trkpt lat="45.83332" lon="4.2742">
        <ele>689.51</ele>
        <time>2019-03-11T08:22:31Z</time>
      </trkpt>
      <trkpt lat="45.83331" lon="4.27418">
        <ele>689.975</ele>
        <time>2019-03-11T08:22:36Z</time>
      </trkpt>
      <trkpt lat="45.83331" lon="4.27417">
        <ele>690.135</ele>
        <time>2019-03-11T08:22:42Z</time>
      </trkpt>
      <trkpt lat="45.8333" lon="4.27416">
        <ele>690.622</ele>
        <time>2019-03-11T08:22:48Z</time>
      </trkpt>
      <trkpt lat="45.8333" lon="4.27415">
        <ele>690.948</ele>
        <time>2019-03-11T08:22:53Z</time>
      </trkpt>
      <trkpt lat="45.8333" lon="4.27413">
        <ele>691.461</ele>
        <time>2019-03-11T08:22:59Z</time>
      </trkpt>
      <trkpt lat="45.83329" lon="4.27413">
        <ele>691.473</ele>
        <time>2019-03-11T08:23:04Z</time>
      </trkpt>
      <trkpt lat="45.83328" lon="4.27414">
        <ele>691.69</ele>
        <time>2019-03-11T08:23:10Z</time>
      </trkpt>
      <trkpt lat="45.83328" lon="4.27418">
        <ele>692.069</ele>
        <time>2019-03-11T08:23:16Z</time>
      </trkpt>
      <trkpt lat="45.83328" lon="4.27419">
        <ele>692.481</ele>
        <time>2019-03-11T08:23:21Z</time>
      </trkpt>
      <trkpt lat="45.83327" lon="4.27418">
        <ele>692.317</ele>
        <time>2019-03-11T08:23:27Z</time>
      </trkpt>
      <trkpt lat="45.83326" lon="4.27419">
        <ele>692.177</ele>
        <time>2019-03-11T08:23:32Z</time>
      </trkpt>
      <trkpt lat="45.83324" lon="4.27421">
        <ele>691.854</ele>
        <time>2019-03-11T08:23:38Z</time>
      </trkpt>
      <trkpt lat="45.83322" lon="4.27425">
        <ele>691.922</ele>
        <time>2019-03-11T08:23:43Z</time>
      </trkpt>
      <trkpt lat="45.83318" lon="4.27428">
        <ele>691.981</ele>
        <time>2019-03-11T08:23:49Z</time>
      </trkpt>
      <trkpt lat="45.83314" lon="4.2743">
        <ele>692.59</ele>
        <time>2019-03-11T08:23:54Z</time>
      </trkpt>
      <trkpt lat="45.8331" lon="4.27435">
        <ele>693.159</ele>
        <time>2019-03-11T08:23:59Z</time>
      </trkpt>
      <trkpt lat="45.83307" lon="4.27443">
        <ele>693.554</ele>
        <time>2019-03-11T08:24:05Z</time>
      </trkpt>
      <trkpt lat="45.83307" lon="4.2745">
        <ele>693.639</ele>
        <time>2019-03-11T08:24:10Z</time>
      </trkpt>
      <trkpt lat="45.83308" lon="4.27459">
        <ele>693.558</ele>
        <time>2019-03-11T08:24:16Z</time>
      </trkpt>
      <trkpt lat="45.83309" lon="4.27466">
        <ele>693.519</ele>
        <time>2019-03-11T08:24:21Z</time>
      </trkpt>
      <trkpt lat="45.83311" lon="4.27474">
        <ele>693.412</ele>
        <time>2019-03-11T08:24:26Z</time>
      </trkpt>
      <trkpt lat="45.83314" lon="4.27483">
        <ele>693.4</ele>
        <time>2019-03-11T08:24:31Z</time>
      </trkpt>
      <trkpt lat="45.83317" lon="4.27491">
        <ele>693.185</ele>
        <time>2019-03-11T08:24:37Z</time>
      </trkpt>
      <trkpt lat="45.83318" lon="4.27499">
        <ele>693.049</ele>
        <time>2019-03-11T08:24:43Z</time>
      </trkpt>
      <trkpt lat="45.83319" lon="4.27507">
        <ele>693.044</ele>
        <time>2019-03-11T08:24:49Z</time>
      </trkpt>
      <trkpt lat="45.8332" lon="4.27516">
        <ele>692.736</ele>
        <time>2019-03-11T08:24:55Z</time>
      </trkpt>
      <trkpt lat="45.83322" lon="4.27526">
        <ele>692.555</ele>
        <time>2019-03-11T08:25:01Z</time>
      </trkpt>
      <trkpt lat="45.83323" lon="4.27532">
        <ele>692.506</ele>
        <time>2019-03-11T08:25:06Z</time>
      </trkpt>
      <trkpt lat="45.83323" lon="4.27538">
        <ele>692.44</ele>
        <time>2019-03-11T08:25:12Z</time>
      </trkpt>
      <trkpt lat="45.83323" lon="4.2754">
        <ele>692.695</ele>
        <time>2019-03-11T08:25:18Z</time>
      </trkpt>
      <trkpt lat="45.83323" lon="4.27541">
        <ele>692.982</ele>
        <time>2019-03-11T08:25:24Z</time>
      </trkpt>
      <trkpt lat="45.83322" lon="4.27541">
        <ele>693.154</ele>
        <time>2019-03-11T08:25:30Z</time>
      </trkpt>
      <trkpt lat="45.83322" lon="4.2754">
        <ele>693.346</ele>
        <time>2019-03-11T08:25:35Z</time>
      </trkpt>
      <trkpt lat="45.83322" lon="4.2754">
        <ele>693.837</ele>
        <time>2019-03-11T08:25:41Z</time>
      </trkpt>
      <trkpt lat="45.83322" lon="4.27539">
        <ele>693.979</ele>
        <time>2019-03-11T08:25:46Z</time>
      </trkpt>
      <trkpt lat="45.83321" lon="4.27538">
        <ele>694.208</ele>
        <time>2019-03-11T08:25:51Z</time>
      </trkpt>
      <trkpt lat="45.83321" lon="4.27539">
        <ele>694.364</ele>
        <time>2019-03-11T08:25:57Z</time>
      </trkpt>
      <trkpt lat="45.83321" lon="4.27538">
        <ele>694.418</ele>
        <time>2019-03-11T08:26:02Z</time>
      </trkpt>
      <trkpt lat="45.83322" lon="4.27538">
        <ele>694.505</ele>
        <time>2019-03-11T08:26:08Z</time>
      </trkpt>
      <trkpt lat="45.83322" lon="4.27539">
        <ele>694.16</ele>
        <time>2019-03-11T08:26:13Z</time>
      </trkpt>
      <trkpt lat="45.83322" lon="4.2754">
        <ele>694.136</ele>
        <time>2019-03-11T08:26:18Z</time>
      </trkpt>
      <trkpt lat="45.83322" lon="4.27541">
        <ele>693.977</ele>
        <time>2019-03-11T08:26:24Z</time>
      </trkpt>
      <trkpt lat="45.8332" lon="4.27541">
        <ele>694.14</ele>
        <time>2019-03-11T08:26:29Z</time>
      </trkpt>
      <trkpt lat="45.83316" lon="4.27539">
        <ele>694.358</ele>
        <time>2019-03-11T08:26:34Z</time>
      </trkpt>
      <trkpt lat="45.83311" lon="4.27534">
        <ele>694.553</ele>
        <time>2019-03-11T08:26:40Z</time>
      </trkpt>
      <trkpt lat="45.83309" lon="4.27531">
        <ele>694.64</ele>
        <time>2019-03-11T08:26:45Z</time>
      </trkpt>
      <trkpt lat="45.83304" lon="4.27522">
        <ele>694.461</ele>
        <time>2019-03-11T08:26:51Z</time>
      </trkpt>
      <trkpt lat="45.833" lon="4.27516">
        <ele>694.22</ele>
        <time>2019-03-11T08:26:56Z</time>
      </trkpt>
      <trkpt lat="45.83294" lon="4.27511">
        <ele>694.131</ele>
        <time>2019-03-11T08:27:01Z</time>
      </trkpt>
      <trkpt lat="45.83288" lon="4.27505">
        <ele>693.754</ele>
        <time>2019-03-11T08:27:07Z</time>
      </trkpt>
      <trkpt lat="45.83283" lon="4.27499">
        <ele>693.111</ele>
        <time>2019-03-11T08:27:12Z</time>
      </trkpt>
      <trkpt lat="45.83279" lon="4.27494">
        <ele>692.477</ele>
        <time>2019-03-11T08:27:17Z</time>
      </trkpt>
      <trkpt lat="45.83274" lon="4.27488">
        <ele>691.871</ele>
        <time>2019-03-11T08:27:23Z</time>
      </trkpt>
      <trkpt lat="45.8327" lon="4.27486">
        <ele>691.59</ele>
        <time>2019-03-11T08:27:29Z</time>
      </trkpt>
      <trkpt lat="45.83265" lon="4.2748">
        <ele>691.248</ele>
        <time>2019-03-11T08:27:35Z</time>
      </trkpt>
      <trkpt lat="45.83257" lon="4.2748">
        <ele>690.827</ele>
        <time>2019-03-11T08:27:40Z</time>
      </trkpt>
      <trkpt lat="45.8325" lon="4.27478">
        <ele>690.202</ele>
        <time>2019-03-11T08:27:46Z</time>
      </trkpt>
      <trkpt lat="45.83244" lon="4.27476">
        <ele>689.456</ele>
        <time>2019-03-11T08:27:52Z</time>
      </trkpt>
      <trkpt lat="45.83238" lon="4.27475">
        <ele>688.581</ele>
        <time>2019-03-11T08:27:58Z</time>
      </trkpt>
      <trkpt lat="45.8323" lon="4.27472">
        <ele>687.992</ele>
        <time>2019-03-11T08:28:03Z</time>
      </trkpt>
      <trkpt lat="45.83223" lon="4.27471">
        <ele>687.133</ele>
        <time>2019-03-11T08:28:09Z</time>
      </trkpt>
      <trkpt lat="45.83214" lon="4.2747">
        <ele>686.317</ele>
        <time>2019-03-11T08:28:15Z</time>
      </trkpt>
      <trkpt lat="45.83207" lon="4.2747">
        <ele>685.87</ele>
        <time>2019-03-11T08:28:20Z</time>
      </trkpt>
      <trkpt lat="45.832" lon="4.2747">
        <ele>685.658</ele>
        <time>2019-03-11T08:28:26Z</time>
      </trkpt>
      <trkpt lat="45.83195" lon="4.27468">
        <ele>685.364</ele>
        <time>2019-03-11T08:28:31Z</time>
      </trkpt>
      <trkpt lat="45.83187" lon="4.27462">
        <ele>684.677</ele>
        <time>2019-03-11T08:28:37Z</time>
      </trkpt>
      <trkpt lat="45.83181" lon="4.27459">
        <ele>683.992</ele>
        <time>2019-03-11T08:28:43Z</time>
      </trkpt>
      <trkpt lat="45.83173" lon="4.27458">
        <ele>683.048</ele>
        <time>2019-03-11T08:28:49Z</time>
      </trkpt>
      <trkpt lat="45.83168" lon="4.27458">
        <ele>682.664</ele>
        <time>2019-03-11T08:28:55Z</time>
      </trkpt>
      <trkpt lat="45.8316" lon="4.27456">
        <ele>682.543</ele>
        <time>2019-03-11T08:29:01Z</time>
      </trkpt>
      <trkpt lat="45.8315" lon="4.27454">
        <ele>682.235</ele>
        <time>2019-03-11T08:29:07Z</time>
      </trkpt>
      <trkpt lat="45.83145" lon="4.27452">
        <ele>682</ele>
        <time>2019-03-11T08:29:12Z</time>
      </trkpt>
      <trkpt lat="45.83138" lon="4.27445">
        <ele>681.809</ele>
        <time>2019-03-11T08:29:17Z</time>
      </trkpt>
      <trkpt lat="45.8313" lon="4.2744">
        <ele>681.416</ele>
        <time>2019-03-11T08:29:23Z</time>
      </trkpt>
      <trkpt lat="45.83124" lon="4.27437">
        <ele>681.102</ele>
        <time>2019-03-11T08:29:29Z</time>
      </trkpt>
      <trkpt lat="45.83116" lon="4.27434">
        <ele>680.757</ele>
        <time>2019-03-11T08:29:35Z</time>
      </trkpt>
      <trkpt lat="45.8311" lon="4.27431">
        <ele>680.715</ele>
        <time>2019-03-11T08:29:40Z</time>
      </trkpt>
      <trkpt lat="45.83101" lon="4.27425">
        <ele>680.9</ele>
        <time>2019-03-11T08:29:46Z</time>
      </trkpt>
      <trkpt lat="45.83094" lon="4.2742">
        <ele>680.65</ele>
        <time>2019-03-11T08:29:52Z</time>
      </trkpt>
      <trkpt lat="45.83089" lon="4.27417">
        <ele>680.381</ele>
        <time>2019-03-11T08:29:57Z</time>
      </trkpt>
      <trkpt lat="45.83084" lon="4.27412">
        <ele>680.083</ele>
        <time>2019-03-11T08:30:03Z</time>
      </trkpt>
      <trkpt lat="45.83076" lon="4.27405">
        <ele>679.82</ele>
        <time>2019-03-11T08:30:09Z</time>
      </trkpt>
      <trkpt lat="45.8307" lon="4.274">
        <ele>679.308</ele>
        <time>2019-03-11T08:30:14Z</time>
      </trkpt>
      <trkpt lat="45.83062" lon="4.27394">
        <ele>678.669</ele>
        <time>2019-03-11T08:30:20Z</time>
      </trkpt>
      <trkpt lat="45.83057" lon="4.27391">
        <ele>677.944</ele>
        <time>2019-03-11T08:30:25Z</time>
      </trkpt>
      <trkpt lat="45.8305" lon="4.27385">
        <ele>677.26</ele>
        <time>2019-03-11T08:30:31Z</time>
      </trkpt>
      <trkpt lat="45.83045" lon="4.27381">
        <ele>676.584</ele>
        <time>2019-03-11T08:30:36Z</time>
      </trkpt>
      <trkpt lat="45.8304" lon="4.2738">
        <ele>675.777</ele>
        <time>2019-03-11T08:30:42Z</time>
      </trkpt>
      <trkpt lat="45.83035" lon="4.27376">
        <ele>674.924</ele>
        <time>2019-03-11T08:30:47Z</time>
      </trkpt>
      <trkpt lat="45.83028" lon="4.2737">
        <ele>674.483</ele>
        <time>2019-03-11T08:30:53Z</time>
      </trkpt>
      <trkpt lat="45.83018" lon="4.27361">
        <ele>673.813</ele>
        <time>2019-03-11T08:30:59Z</time>
      </trkpt>
      <trkpt lat="45.83013" lon="4.27358">
        <ele>673.619</ele>
        <time>2019-03-11T08:31:04Z</time>
      </trkpt>
      <trkpt lat="45.83007" lon="4.27354">
        <ele>673.305</ele>
        <time>2019-03-11T08:31:10Z</time>
      </trkpt>
      <trkpt lat="45.83006" lon="4.27354">
        <ele>673.415</ele>
        <time>2019-03-11T08:31:15Z</time>
      </trkpt>
      <trkpt lat="45.83005" lon="4.27357">
        <ele>673.794</ele>
        <time>2019-03-11T08:31:21Z</time>
      </trkpt>
      <trkpt lat="45.83004" lon="4.27355">
        <ele>673.957</ele>
        <time>2019-03-11T08:31:27Z</time>
      </trkpt>
      <trkpt lat="45.83004" lon="4.27352">
        <ele>674.057</ele>
        <time>2019-03-11T08:31:32Z</time>
      </trkpt>
      <trkpt lat="45.83005" lon="4.27352">
        <ele>674.285</ele>
        <time>2019-03-11T08:31:38Z</time>
      </trkpt>
      <trkpt lat="45.83006" lon="4.27352">
        <ele>674.34</ele>
        <time>2019-03-11T08:31:43Z</time>
      </trkpt>
      <trkpt lat="45.83006" lon="4.27351">
        <ele>674.195</ele>
        <time>2019-03-11T08:31:48Z</time>
      </trkpt>
      <trkpt lat="45.83006" lon="4.27351">
        <ele>673.985</ele>
        <time>2019-03-11T08:31:54Z</time>
      </trkpt>
      <trkpt lat="45.83006" lon="4.27352">
        <ele>673.687</ele>
        <time>2019-03-11T08:32:00Z</time>
      </trkpt>
      <trkpt lat="45.83007" lon="4.27353">
        <ele>673.434</ele>
        <time>2019-03-11T08:32:06Z</time>
      </trkpt>
      <trkpt lat="45.83007" lon="4.27354">
        <ele>673.391</ele>
        <time>2019-03-11T08:32:12Z</time>
      </trkpt>
      <trkpt lat="45.83007" lon="4.27353">
        <ele>673.381</ele>
        <time>2019-03-11T08:32:18Z</time>
      </trkpt>
      <trkpt lat="45.83006" lon="4.27353">
        <ele>673.333</ele>
        <time>2019-03-11T08:32:24Z</time>
      </trkpt>
      <trkpt lat="45.83006" lon="4.27352">
        <ele>673.195</ele>
        <time>2019-03-11T08:32:29Z</time>
      </trkpt>
      <trkpt lat="45.83005" lon="4.27353">
        <ele>672.676</ele>
        <time>2019-03-11T08:32:35Z</time>
      </trkpt>
      <trkpt lat="45.83006" lon="4.27353">
        <ele>672.027</ele>
        <time>2019-03-11T08:32:41Z</time>
      </trkpt>
      <trkpt lat="45.83005" lon="4.27352">
        <ele>671.72</ele>
        <time>2019-03-11T08:32:47Z</time>
      </trkpt>
      <trkpt lat="45.83005" lon="4.27351">
        <ele>671.51</ele>
        <time>2019-03-11T08:32:52Z</time>
      </trkpt>
      <trkpt lat="45.83005" lon="4.27351">
        <ele>671.464</ele>
        <time>2019-03-11T08:32:58Z</time>
      </trkpt>
      <trkpt lat="45.83005" lon="4.2735">
        <ele>671.448</ele>
        <time>2019-03-11T08:33:03Z</time>
      </trkpt>
      <trkpt lat="45.83005" lon="4.27351">
        <ele>671.523</ele>
        <time>2019-03-11T08:33:09Z</time>
      </trkpt>
      <trkpt lat="45.83004" lon="4.27352">
        <ele>671.536</ele>
        <time>2019-03-11T08:33:15Z</time>
      </trkpt>
      <trkpt lat="45.83003" lon="4.27354">
        <ele>671.55</ele>
        <time>2019-03-11T08:33:21Z</time>
      </trkpt>
      <trkpt lat="45.83003" lon="4.27354">
        <ele>671.607</ele>
        <time>2019-03-11T08:33:26Z</time>
      </trkpt>
      <trkpt lat="45.83004" lon="4.27353">
        <ele>671.628</ele>
        <time>2019-03-11T08:33:31Z</time>
      </trkpt>
      <trkpt lat="45.83005" lon="4.27351">
        <ele>671.612</ele>
        <time>2019-03-11T08:33:37Z</time>
      </trkpt>
      <trkpt lat="45.83005" lon="4.27351">
        <ele>671.587</ele>
        <time>2019-03-11T08:33:43Z</time>
      </trkpt>
      <trkpt lat="45.83006" lon="4.2735">
        <ele>671.577</ele>
        <time>2019-03-11T08:33:48Z</time>
      </trkpt>
      <trkpt lat="45.83007" lon="4.2735">
        <ele>671.533</ele>
        <time>2019-03-11T08:33:53Z</time>
      </trkpt>
      <trkpt lat="45.83007" lon="4.27353">
        <ele>671.288</ele>
        <time>2019-03-11T08:33:59Z</time>
      </trkpt>
      <trkpt lat="45.83005" lon="4.27353">
        <ele>671.276</ele>
        <time>2019-03-11T08:34:04Z</time>
      </trkpt>
      <trkpt lat="45.83005" lon="4.27353">
        <ele>671.327</ele>
        <time>2019-03-11T08:34:10Z</time>
      </trkpt>
      <trkpt lat="45.83006" lon="4.27353">
        <ele>671.217</ele>
        <time>2019-03-11T08:34:16Z</time>
      </trkpt>
      <trkpt lat="45.83004" lon="4.27349">
        <ele>671.022</ele>
        <time>2019-03-11T08:34:22Z</time>
      </trkpt>
      <trkpt lat="45.83001" lon="4.27343">
        <ele>671.045</ele>
        <time>2019-03-11T08:34:28Z</time>
      </trkpt>
      <trkpt lat="45.82997" lon="4.27334">
        <ele>670.914</ele>
        <time>2019-03-11T08:34:34Z</time>
      </trkpt>
      <trkpt lat="45.82994" lon="4.27328">
        <ele>670.829</ele>
        <time>2019-03-11T08:34:39Z</time>
      </trkpt>
      <trkpt lat="45.82989" lon="4.27318">
        <ele>670.885</ele>
        <time>2019-03-11T08:34:45Z</time>
      </trkpt>
      <trkpt lat="45.82984" lon="4.27312">
        <ele>671.048</ele>
        <time>2019-03-11T08:34:50Z</time>
      </trkpt>
      <trkpt lat="45.82978" lon="4.27306">
        <ele>670.992</ele>
        <time>2019-03-11T08:34:56Z</time>
      </trkpt>
      <trkpt lat="45.82971" lon="4.27298">
        <ele>670.748</ele>
        <time>2019-03-11T08:35:02Z</time>
      </trkpt>
      <trkpt lat="45.82966" lon="4.27293">
        <ele>670.606</ele>
        <time>2019-03-11T08:35:07Z</time>
      </trkpt>
      <trkpt lat="45.8296" lon="4.27287">
        <ele>670.436</ele>
        <time>2019-03-11T08:35:12Z</time>
      </trkpt>
      <trkpt lat="45.82952" lon="4.27281">
        <ele>669.645</ele>
        <time>2019-03-11T08:35:18Z</time>
      </trkpt>
      <trkpt lat="45.82947" lon="4.27275">
        <ele>669.19</ele>
        <time>2019-03-11T08:35:23Z</time>
      </trkpt>
      <trkpt lat="45.82942" lon="4.27268">
        <ele>668.943</ele>
        <time>2019-03-11T08:35:29Z</time>
      </trkpt>
      <trkpt lat="45.82937" lon="4.27262">
        <ele>668.795</ele>
        <time>2019-03-11T08:35:34Z</time>
      </trkpt>
      <trkpt lat="45.82932" lon="4.27254">
        <ele>668.993</ele>
        <time>2019-03-11T08:35:40Z</time>
      </trkpt>
      <trkpt lat="45.82926" lon="4.27249">
        <ele>668.773</ele>
        <time>2019-03-11T08:35:46Z</time>
      </trkpt>
      <trkpt lat="45.82919" lon="4.27241">
        <ele>668.583</ele>
        <time>2019-03-11T08:35:52Z</time>
      </trkpt>
      <trkpt lat="45.82914" lon="4.27234">
        <ele>668.498</ele>
        <time>2019-03-11T08:35:58Z</time>
      </trkpt>
      <trkpt lat="45.82907" lon="4.27226">
        <ele>668.46</ele>
        <time>2019-03-11T08:36:04Z</time>
      </trkpt>
      <trkpt lat="45.82903" lon="4.2722">
        <ele>668.254</ele>
        <time>2019-03-11T08:36:09Z</time>
      </trkpt>
      <trkpt lat="45.82899" lon="4.27214">
        <ele>668.062</ele>
        <time>2019-03-11T08:36:15Z</time>
      </trkpt>
      <trkpt lat="45.82892" lon="4.27204">
        <ele>667.703</ele>
        <time>2019-03-11T08:36:21Z</time>
      </trkpt>
      <trkpt lat="45.82885" lon="4.27196">
        <ele>667.489</ele>
        <time>2019-03-11T08:36:27Z</time>
      </trkpt>
      <trkpt lat="45.8288" lon="4.27191">
        <ele>667.194</ele>
        <time>2019-03-11T08:36:32Z</time>
      </trkpt>
      <trkpt lat="45.82874" lon="4.27185">
        <ele>666.547</ele>
        <time>2019-03-11T08:36:38Z</time>
      </trkpt>
      <trkpt lat="45.8287" lon="4.2718">
        <ele>665.964</ele>
        <time>2019-03-11T08:36:43Z</time>
      </trkpt>
      <trkpt lat="45.82864" lon="4.27174">
        <ele>665.374</ele>
        <time>2019-03-11T08:36:49Z</time>
      </trkpt>
      <trkpt lat="45.82858" lon="4.27168">
        <ele>664.66</ele>
        <time>2019-03-11T08:36:55Z</time>
      </trkpt>
      <trkpt lat="45.82852" lon="4.27161">
        <ele>663.919</ele>
        <time>2019-03-11T08:37:00Z</time>
      </trkpt>
      <trkpt lat="45.82847" lon="4.27155">
        <ele>663.32</ele>
        <time>2019-03-11T08:37:06Z</time>
      </trkpt>
      <trkpt lat="45.82842" lon="4.2715">
        <ele>662.783</ele>
        <time>2019-03-11T08:37:11Z</time>
      </trkpt>
      <trkpt lat="45.82836" lon="4.27143">
        <ele>662.051</ele>
        <time>2019-03-11T08:37:17Z</time>
      </trkpt>
      <trkpt lat="45.82831" lon="4.27132">
        <ele>661.501</ele>
        <time>2019-03-11T08:37:23Z</time>
      </trkpt>
      <trkpt lat="45.82829" lon="4.27124">
        <ele>661.067</ele>
        <time>2019-03-11T08:37:29Z</time>
      </trkpt>
      <trkpt lat="45.82827" lon="4.27115">
        <ele>660.663</ele>
        <time>2019-03-11T08:37:34Z</time>
      </trkpt>
      <trkpt lat="45.82823" lon="4.27105">
        <ele>660.09</ele>
        <time>2019-03-11T08:37:40Z</time>
      </trkpt>
      <trkpt lat="45.82821" lon="4.27096">
        <ele>659.443</ele>
        <time>2019-03-11T08:37:46Z</time>
      </trkpt>
      <trkpt lat="45.82818" lon="4.27084">
        <ele>658.815</ele>
        <time>2019-03-11T08:37:52Z</time>
      </trkpt>
      <trkpt lat="45.82816" lon="4.27075">
        <ele>658.455</ele>
        <time>2019-03-11T08:37:58Z</time>
      </trkpt>
      <trkpt lat="45.82814" lon="4.27066">
        <ele>658.087</ele>
        <time>2019-03-11T08:38:03Z</time>
      </trkpt>
      <trkpt lat="45.82811" lon="4.27053">
        <ele>657.692</ele>
        <time>2019-03-11T08:38:09Z</time>
      </trkpt>
      <trkpt lat="45.8281" lon="4.27043">
        <ele>657.548</ele>
        <time>2019-03-11T08:38:15Z</time>
      </trkpt>
      <trkpt lat="45.82808" lon="4.27036">
        <ele>657.608</ele>
        <time>2019-03-11T08:38:20Z</time>
      </trkpt>
      <trkpt lat="45.82807" lon="4.27028">
        <ele>657.43</ele>
        <time>2019-03-11T08:38:25Z</time>
      </trkpt>
      <trkpt lat="45.82805" lon="4.27016">
        <ele>657.24</ele>
        <time>2019-03-11T08:38:31Z</time>
      </trkpt>
      <trkpt lat="45.82804" lon="4.27008">
        <ele>657.066</ele>
        <time>2019-03-11T08:38:36Z</time>
      </trkpt>
      <trkpt lat="45.82802" lon="4.26996">
        <ele>657.057</ele>
        <time>2019-03-11T08:38:41Z</time>
      </trkpt>
      <trkpt lat="45.82801" lon="4.26986">
        <ele>656.931</ele>
        <time>2019-03-11T08:38:47Z</time>
      </trkpt>
      <trkpt lat="45.82798" lon="4.26977">
        <ele>656.391</ele>
        <time>2019-03-11T08:38:53Z</time>
      </trkpt>
      <trkpt lat="45.82796" lon="4.26967">
        <ele>656.013</ele>
        <time>2019-03-11T08:38:58Z</time>
      </trkpt>
      <trkpt lat="45.82793" lon="4.26955">
        <ele>655.546</ele>
        <time>2019-03-11T08:39:04Z</time>
      </trkpt>
      <trkpt lat="45.82791" lon="4.26947">
        <ele>655.137</ele>
        <time>2019-03-11T08:39:09Z</time>
      </trkpt>
      <trkpt lat="45.82789" lon="4.26938">
        <ele>654.38</ele>
        <time>2019-03-11T08:39:15Z</time>
      </trkpt>
      <trkpt lat="45.82787" lon="4.26929">
        <ele>653.736</ele>
        <time>2019-03-11T08:39:20Z</time>
      </trkpt>
      <trkpt lat="45.82786" lon="4.26919">
        <ele>653.496</ele>
        <time>2019-03-11T08:39:25Z</time>
      </trkpt>
      <trkpt lat="45.82787" lon="4.26907">
        <ele>653.286</ele>
        <time>2019-03-11T08:39:31Z</time>
      </trkpt>
      <trkpt lat="45.82786" lon="4.26899">
        <ele>653.103</ele>
        <time>2019-03-11T08:39:36Z</time>
      </trkpt>
      <trkpt lat="45.82783" lon="4.26892">
        <ele>652.443</ele>
        <time>2019-03-11T08:39:42Z</time>
      </trkpt>
      <trkpt lat="45.82774" lon="4.26892">
        <ele>652.093</ele>
        <time>2019-03-11T08:39:48Z</time>
      </trkpt>
      <trkpt lat="45.8277" lon="4.26895">
        <ele>651.889</ele>
        <time>2019-03-11T08:39:53Z</time>
      </trkpt>
      <trkpt lat="45.82764" lon="4.26902">
        <ele>651.695</ele>
        <time>2019-03-11T08:39:59Z</time>
      </trkpt>
      <trkpt lat="45.82759" lon="4.2691">
        <ele>651.389</ele>
        <time>2019-03-11T08:40:05Z</time>
      </trkpt>
      <trkpt lat="45.82754" lon="4.26917">
        <ele>651.073</ele>
        <time>2019-03-11T08:40:10Z</time>
      </trkpt>
      <trkpt lat="45.82748" lon="4.26926">
        <ele>650.448</ele>
        <time>2019-03-11T08:40:16Z</time>
      </trkpt>
      <trkpt lat="45.82742" lon="4.26934">
        <ele>650.367</ele>
        <time>2019-03-11T08:40:22Z</time>
      </trkpt>
      <trkpt lat="45.82736" lon="4.2694">
        <ele>650.082</ele>
        <time>2019-03-11T08:40:28Z</time>
      </trkpt>
      <trkpt lat="45.82732" lon="4.26943">
        <ele>649.879</ele>
        <time>2019-03-11T08:40:33Z</time>
      </trkpt>
      <trkpt lat="45.82725" lon="4.26948">
        <ele>649.651</ele>
        <time>2019-03-11T08:40:38Z</time>
      </trkpt>
      <trkpt lat="45.82718" lon="4.26953">
        <ele>649.547</ele>
        <time>2019-03-11T08:40:44Z</time>
      </trkpt>
      <trkpt lat="45.82709" lon="4.26958">
        <ele>649.314</ele>
        <time>2019-03-11T08:40:50Z</time>
      </trkpt>
      <trkpt lat="45.82704" lon="4.26964">
        <ele>648.502</ele>
        <time>2019-03-11T08:40:55Z</time>
      </trkpt>
      <trkpt lat="45.82697" lon="4.26967">
        <ele>647.692</ele>
        <time>2019-03-11T08:41:01Z</time>
      </trkpt>
      <trkpt lat="45.82691" lon="4.26973">
        <ele>647.414</ele>
        <time>2019-03-11T08:41:07Z</time>
      </trkpt>
      <trkpt lat="45.82685" lon="4.26979">
        <ele>647.346</ele>
        <time>2019-03-11T08:41:12Z</time>
      </trkpt>
      <trkpt lat="45.82679" lon="4.26984">
        <ele>647.686</ele>
        <time>2019-03-11T08:41:18Z</time>
      </trkpt>
      <trkpt lat="45.82671" lon="4.2699">
        <ele>647.886</ele>
        <time>2019-03-11T08:41:24Z</time>
      </trkpt>
      <trkpt lat="45.82665" lon="4.26993">
        <ele>647.58</ele>
        <time>2019-03-11T08:41:30Z</time>
      </trkpt>
      <trkpt lat="45.82658" lon="4.26999">
        <ele>647.255</ele>
        <time>2019-03-11T08:41:36Z</time>
      </trkpt>
      <trkpt lat="45.82652" lon="4.27004">
        <ele>646.925</ele>
        <time>2019-03-11T08:41:41Z</time>
      </trkpt>
      <trkpt lat="45.82643" lon="4.27009">
        <ele>646.645</ele>
        <time>2019-03-11T08:41:47Z</time>
      </trkpt>
      <trkpt lat="45.82638" lon="4.27012">
        <ele>645.982</ele>
        <time>2019-03-11T08:41:52Z</time>
      </trkpt>
      <trkpt lat="45.82633" lon="4.27015">
        <ele>645.16</ele>
        <time>2019-03-11T08:41:57Z</time>
      </trkpt>
      <trkpt lat="45.82626" lon="4.27018">
        <ele>644.534</ele>
        <time>2019-03-11T08:42:03Z</time>
      </trkpt>
      <trkpt lat="45.82622" lon="4.27021">
        <ele>644.251</ele>
        <time>2019-03-11T08:42:08Z</time>
      </trkpt>
      <trkpt lat="45.82618" lon="4.27025">
        <ele>644.144</ele>
        <time>2019-03-11T08:42:13Z</time>
      </trkpt>
      <trkpt lat="45.82614" lon="4.27027">
        <ele>644.29</ele>
        <time>2019-03-11T08:42:18Z</time>
      </trkpt>
      <trkpt lat="45.82608" lon="4.27025">
        <ele>644.732</ele>
        <time>2019-03-11T08:42:24Z</time>
      </trkpt>
      <trkpt lat="45.826" lon="4.27025">
        <ele>645.163</ele>
        <time>2019-03-11T08:42:30Z</time>
      </trkpt>
      <trkpt lat="45.82593" lon="4.27024">
        <ele>645.372</ele>
        <time>2019-03-11T08:42:36Z</time>
      </trkpt>
      <trkpt lat="45.82584" lon="4.2702">
        <ele>644.497</ele>
        <time>2019-03-11T08:42:42Z</time>
      </trkpt>
      <trkpt lat="45.82576" lon="4.27018">
        <ele>643.984</ele>
        <time>2019-03-11T08:42:48Z</time>
      </trkpt>
      <trkpt lat="45.82569" lon="4.27017">
        <ele>643.741</ele>
        <time>2019-03-11T08:42:54Z</time>
      </trkpt>
      <trkpt lat="45.82564" lon="4.27014">
        <ele>643.804</ele>
        <time>2019-03-11T08:42:59Z</time>
      </trkpt>
      <trkpt lat="45.82558" lon="4.27012">
        <ele>643.853</ele>
        <time>2019-03-11T08:43:05Z</time>
      </trkpt>
      <trkpt lat="45.82551" lon="4.2701">
        <ele>643.76</ele>
        <time>2019-03-11T08:43:10Z</time>
      </trkpt>
      <trkpt lat="45.8254" lon="4.2701">
        <ele>643.604</ele>
        <time>2019-03-11T08:43:16Z</time>
      </trkpt>
      <trkpt lat="45.82536" lon="4.2701">
        <ele>644.264</ele>
        <time>2019-03-11T08:43:22Z</time>
      </trkpt>
      <trkpt lat="45.82531" lon="4.27011">
        <ele>644.539</ele>
        <time>2019-03-11T08:43:28Z</time>
      </trkpt>
      <trkpt lat="45.82524" lon="4.27011">
        <ele>645.314</ele>
        <time>2019-03-11T08:43:34Z</time>
      </trkpt>
      <trkpt lat="45.82517" lon="4.27012">
        <ele>645.372</ele>
        <time>2019-03-11T08:43:39Z</time>
      </trkpt>
      <trkpt lat="45.82509" lon="4.27011">
        <ele>645.818</ele>
        <time>2019-03-11T08:43:44Z</time>
      </trkpt>
      <trkpt lat="45.82504" lon="4.2701">
        <ele>646.284</ele>
        <time>2019-03-11T08:43:50Z</time>
      </trkpt>
      <trkpt lat="45.82496" lon="4.2701">
        <ele>646.52</ele>
        <time>2019-03-11T08:43:56Z</time>
      </trkpt>
      <trkpt lat="45.82489" lon="4.27009">
        <ele>647.062</ele>
        <time>2019-03-11T08:44:02Z</time>
      </trkpt>
      <trkpt lat="45.82482" lon="4.27008">
        <ele>647.38</ele>
        <time>2019-03-11T08:44:08Z</time>
      </trkpt>
      <trkpt lat="45.82476" lon="4.27007">
        <ele>647.187</ele>
        <time>2019-03-11T08:44:14Z</time>
      </trkpt>
      <trkpt lat="45.82471" lon="4.27006">
        <ele>647.024</ele>
        <time>2019-03-11T08:44:19Z</time>
      </trkpt>
      <trkpt lat="45.82465" lon="4.27005">
        <ele>646.692</ele>
        <time>2019-03-11T08:44:24Z</time>
      </trkpt>
      <trkpt lat="45.82456" lon="4.27005">
        <ele>646.166</ele>
        <time>2019-03-11T08:44:30Z</time>
      </trkpt>
      <trkpt lat="45.82449" lon="4.27004">
        <ele>646.113</ele>
        <time>2019-03-11T08:44:36Z</time>
      </trkpt>
      <trkpt lat="45.82442" lon="4.27003">
        <ele>645.406</ele>
        <time>2019-03-11T08:44:42Z</time>
      </trkpt>
      <trkpt lat="45.82441" lon="4.27004">
        <ele>645.185</ele>
        <time>2019-03-11T08:44:47Z</time>
      </trkpt>
      <trkpt lat="45.82439" lon="4.27002">
        <ele>645.044</ele>
        <time>2019-03-11T08:44:53Z</time>
      </trkpt>
      <trkpt lat="45.82432" lon="4.27001">
        <ele>645.027</ele>
        <time>2019-03-11T08:44:58Z</time>
      </trkpt>
      <trkpt lat="45.82425" lon="4.26997">
        <ele>644.979</ele>
        <time>2019-03-11T08:45:03Z</time>
      </trkpt>
      <trkpt lat="45.82422" lon="4.26994">
        <ele>644.855</ele>
        <time>2019-03-11T08:45:08Z</time>
      </trkpt>
      <trkpt lat="45.82419" lon="4.26992">
        <ele>645.094</ele>
        <time>2019-03-11T08:45:14Z</time>
      </trkpt>
      <trkpt lat="45.82411" lon="4.2699">
        <ele>645.273</ele>
        <time>2019-03-11T08:45:20Z</time>
      </trkpt>
      <trkpt lat="45.82403" lon="4.26987">
        <ele>645.708</ele>
        <time>2019-03-11T08:45:25Z</time>
      </trkpt>
      <trkpt lat="45.82395" lon="4.26986">
        <ele>645.586</ele>
        <time>2019-03-11T08:45:31Z</time>
      </trkpt>
      <trkpt lat="45.82387" lon="4.26984">
        <ele>645.738</ele>
        <time>2019-03-11T08:45:37Z</time>
      </trkpt>
      <trkpt lat="45.82379" lon="4.26983">
        <ele>645.607</ele>
        <time>2019-03-11T08:45:42Z</time>
      </trkpt>
      <trkpt lat="45.82372" lon="4.26982">
        <ele>645.432</ele>
        <time>2019-03-11T08:45:48Z</time>
      </trkpt>
      <trkpt lat="45.82364" lon="4.2698">
        <ele>645.358</ele>
        <time>2019-03-11T08:45:54Z</time>
      </trkpt>
      <trkpt lat="45.82359" lon="4.26981">
        <ele>645.13</ele>
        <time>2019-03-11T08:45:59Z</time>
      </trkpt>
      <trkpt lat="45.82352" lon="4.2698">
        <ele>644.387</ele>
        <time>2019-03-11T08:46:05Z</time>
      </trkpt>
      <trkpt lat="45.82348" lon="4.26978">
        <ele>643.992</ele>
        <time>2019-03-11T08:46:10Z</time>
      </trkpt>
      <trkpt lat="45.82341" lon="4.26975">
        <ele>643.088</ele>
        <time>2019-03-11T08:46:16Z</time>
      </trkpt>
      <trkpt lat="45.82335" lon="4.26973">
        <ele>642.195</ele>
        <time>2019-03-11T08:46:21Z</time>
      </trkpt>
      <trkpt lat="45.82324" lon="4.26972">
        <ele>640.997</ele>
        <time>2019-03-11T08:46:27Z</time>
      </trkpt>
      <trkpt lat="45.82318" lon="4.2697">
        <ele>640.235</ele>
        <time>2019-03-11T08:46:32Z</time>
      </trkpt>
      <trkpt lat="45.82312" lon="4.2697">
        <ele>639.466</ele>
        <time>2019-03-11T08:46:38Z</time>
      </trkpt>
      <trkpt lat="45.82305" lon="4.2697">
        <ele>638.738</ele>
        <time>2019-03-11T08:46:43Z</time>
      </trkpt>
      <trkpt lat="45.82297" lon="4.26966">
        <ele>638.33</ele>
        <time>2019-03-11T08:46:49Z</time>
      </trkpt>
      <trkpt lat="45.82292" lon="4.26965">
        <ele>638.103</ele>
        <time>2019-03-11T08:46:54Z</time>
      </trkpt>
      <trkpt lat="45.82284" lon="4.26962">
        <ele>637.875</ele>
        <time>2019-03-11T08:47:00Z</time>
      </trkpt>
      <trkpt lat="45.82279" lon="4.2696">
        <ele>637.097</ele>
        <time>2019-03-11T08:47:06Z</time>
      </trkpt>
      <trkpt lat="45.82272" lon="4.26956">
        <ele>636.462</ele>
        <time>2019-03-11T08:47:12Z</time>
      </trkpt>
      <trkpt lat="45.82266" lon="4.26952">
        <ele>635.99</ele>
        <time>2019-03-11T08:47:18Z</time>
      </trkpt>
      <trkpt lat="45.8226" lon="4.26949">
        <ele>635.404</ele>
        <time>2019-03-11T08:47:24Z</time>
      </trkpt>
      <trkpt lat="45.82259" lon="4.26948">
        <ele>635.078</ele>
        <time>2019-03-11T08:47:29Z</time>
      </trkpt>
      <trkpt lat="45.82256" lon="4.26945">
        <ele>634.403</ele>
        <time>2019-03-11T08:47:35Z</time>
      </trkpt>
      <trkpt lat="45.82254" lon="4.26944">
        <ele>633.601</ele>
        <time>2019-03-11T08:47:40Z</time>
      </trkpt>
      <trkpt lat="45.82253" lon="4.26943">
        <ele>632.612</ele>
        <time>2019-03-11T08:47:45Z</time>
      </trkpt>
      <trkpt lat="45.82252" lon="4.26945">
        <ele>631.976</ele>
        <time>2019-03-11T08:47:51Z</time>
      </trkpt>
      <trkpt lat="45.82252" lon="4.26945">
        <ele>630.964</ele>
        <time>2019-03-11T08:47:57Z</time>
      </trkpt>
      <trkpt lat="45.82252" lon="4.26942">
        <ele>630.591</ele>
        <time>2019-03-11T08:48:02Z</time>
      </trkpt>
      <trkpt lat="45.8225" lon="4.2694">
        <ele>630.077</ele>
        <time>2019-03-11T08:48:07Z</time>
      </trkpt>
      <trkpt lat="45.82247" lon="4.26938">
        <ele>629.591</ele>
        <time>2019-03-11T08:48:13Z</time>
      </trkpt>
      <trkpt lat="45.82242" lon="4.26936">
        <ele>628.788</ele>
        <time>2019-03-11T08:48:18Z</time>
      </trkpt>
      <trkpt lat="45.82238" lon="4.26933">
        <ele>628.296</ele>
        <time>2019-03-11T08:48:24Z</time>
      </trkpt>
      <trkpt lat="45.82232" lon="4.26931">
        <ele>627.207</ele>
        <time>2019-03-11T08:48:30Z</time>
      </trkpt>
      <trkpt lat="45.82224" lon="4.26926">
        <ele>626.517</ele>
        <time>2019-03-11T08:48:36Z</time>
      </trkpt>
      <trkpt lat="45.82215" lon="4.26922">
        <ele>626.165</ele>
        <time>2019-03-11T08:48:42Z</time>
      </trkpt>
      <trkpt lat="45.8221" lon="4.26918">
        <ele>625.827</ele>
        <time>2019-03-11T08:48:47Z</time>
      </trkpt>
      <trkpt lat="45.82203" lon="4.26915">
        <ele>625.427</ele>
        <time>2019-03-11T08:48:53Z</time>
      </trkpt>
      <trkpt lat="45.82196" lon="4.26911">
        <ele>624.819</ele>
        <time>2019-03-11T08:48:58Z</time>
      </trkpt>
      <trkpt lat="45.82191" lon="4.26905">
        <ele>624.011</ele>
        <time>2019-03-11T08:49:04Z</time>
      </trkpt>
      <trkpt lat="45.82185" lon="4.269">
        <ele>623.501</ele>
        <time>2019-03-11T08:49:09Z</time>
      </trkpt>
      <trkpt lat="45.82179" lon="4.26895">
        <ele>622.548</ele>
        <time>2019-03-11T08:49:15Z</time>
      </trkpt>
      <trkpt lat="45.82174" lon="4.26889">
        <ele>621.596</ele>
        <time>2019-03-11T08:49:20Z</time>
      </trkpt>
      <trkpt lat="45.82169" lon="4.26881">
        <ele>621.231</ele>
        <time>2019-03-11T08:49:26Z</time>
      </trkpt>
      <trkpt lat="45.82165" lon="4.26876">
        <ele>620.626</ele>
        <time>2019-03-11T08:49:31Z</time>
      </trkpt>
      <trkpt lat="45.82163" lon="4.26874">
        <ele>620.237</ele>
        <time>2019-03-11T08:49:37Z</time>
      </trkpt>
      <trkpt lat="45.82162" lon="4.26872">
        <ele>619.668</ele>
        <time>2019-03-11T08:49:42Z</time>
      </trkpt>
      <trkpt lat="45.82159" lon="4.26866">
        <ele>618.987</ele>
        <time>2019-03-11T08:49:48Z</time>
      </trkpt>
      <trkpt lat="45.82155" lon="4.26858">
        <ele>618.248</ele>
        <time>2019-03-11T08:49:54Z</time>
      </trkpt>
      <trkpt lat="45.8215" lon="4.2685">
        <ele>617.587</ele>
        <time>2019-03-11T08:50:00Z</time>
      </trkpt>
      <trkpt lat="45.82144" lon="4.26842">
        <ele>617.136</ele>
        <time>2019-03-11T08:50:06Z</time>
      </trkpt>
      <trkpt lat="45.8214" lon="4.26834">
        <ele>616.489</ele>
        <time>2019-03-11T08:50:11Z</time>
      </trkpt>
      <trkpt lat="45.82137" lon="4.26828">
        <ele>615.828</ele>
        <time>2019-03-11T08:50:16Z</time>
      </trkpt>
      <trkpt lat="45.82132" lon="4.26819">
        <ele>615.164</ele>
        <time>2019-03-11T08:50:22Z</time>
      </trkpt>
      <trkpt lat="45.82128" lon="4.26812">
        <ele>614.68</ele>
        <time>2019-03-11T08:50:27Z</time>
      </trkpt>
      <trkpt lat="45.82125" lon="4.26806">
        <ele>613.834</ele>
        <time>2019-03-11T08:50:33Z</time>
      </trkpt>
      <trkpt lat="45.8212" lon="4.26799">
        <ele>613.018</ele>
        <time>2019-03-11T08:50:38Z</time>
      </trkpt>
      <trkpt lat="45.82116" lon="4.26793">
        <ele>612.102</ele>
        <time>2019-03-11T08:50:44Z</time>
      </trkpt>
      <trkpt lat="45.8211" lon="4.26785">
        <ele>611.135</ele>
        <time>2019-03-11T08:50:50Z</time>
      </trkpt>
      <trkpt lat="45.82107" lon="4.26778">
        <ele>610.677</ele>
        <time>2019-03-11T08:50:55Z</time>
      </trkpt>
      <trkpt lat="45.82103" lon="4.2677">
        <ele>610.076</ele>
        <time>2019-03-11T08:51:00Z</time>
      </trkpt>
      <trkpt lat="45.821" lon="4.26766">
        <ele>609.559</ele>
        <time>2019-03-11T08:51:06Z</time>
      </trkpt>
      <trkpt lat="45.82096" lon="4.26758">
        <ele>609.032</ele>
        <time>2019-03-11T08:51:12Z</time>
      </trkpt>
      <trkpt lat="45.82092" lon="4.26752">
        <ele>608.55</ele>
        <time>2019-03-11T08:51:18Z</time>
      </trkpt>
      <trkpt lat="45.82087" lon="4.26744">
        <ele>608.392</ele>
        <time>2019-03-11T08:51:24Z</time>
      </trkpt>
      <trkpt lat="45.82082" lon="4.26736">
        <ele>608.324</ele>
        <time>2019-03-11T08:51:30Z</time>
      </trkpt>
      <trkpt lat="45.82078" lon="4.2673">
        <ele>608.385</ele>
        <time>2019-03-11T08:51:35Z</time>
      </trkpt>
      <trkpt lat="45.82073" lon="4.26724">
        <ele>608.248</ele>
        <time>2019-03-11T08:51:41Z</time>
      </trkpt>
      <trkpt lat="45.82068" lon="4.26717">
        <ele>607.555</ele>
        <time>2019-03-11T08:51:47Z</time>
      </trkpt>
      <trkpt lat="45.82064" lon="4.26711">
        <ele>606.702</ele>
        <time>2019-03-11T08:51:53Z</time>
      </trkpt>
      <trkpt lat="45.8206" lon="4.26702">
        <ele>606.007</ele>
        <time>2019-03-11T08:51:59Z</time>
      </trkpt>
      <trkpt lat="45.82055" lon="4.26695">
        <ele>605.836</ele>
        <time>2019-03-11T08:52:04Z</time>
      </trkpt>
      <trkpt lat="45.8205" lon="4.26688">
        <ele>605.178</ele>
        <time>2019-03-11T08:52:10Z</time>
      </trkpt>
      <trkpt lat="45.82045" lon="4.26681">
        <ele>604.563</ele>
        <time>2019-03-11T08:52:15Z</time>
      </trkpt>
      <trkpt lat="45.8204" lon="4.26673">
        <ele>603.858</ele>
        <time>2019-03-11T08:52:21Z</time>
      </trkpt>
      <trkpt lat="45.82033" lon="4.26664">
        <ele>603.171</ele>
        <time>2019-03-11T08:52:27Z</time>
      </trkpt>
      <trkpt lat="45.82029" lon="4.26654">
        <ele>602.141</ele>
        <time>2019-03-11T08:52:33Z</time>
      </trkpt>
      <trkpt lat="45.82024" lon="4.26645">
        <ele>600.952</ele>
        <time>2019-03-11T08:52:39Z</time>
      </trkpt>
      <trkpt lat="45.82021" lon="4.2664">
        <ele>600.205</ele>
        <time>2019-03-11T08:52:44Z</time>
      </trkpt>
      <trkpt lat="45.82018" lon="4.2663">
        <ele>599.928</ele>
        <time>2019-03-11T08:52:50Z</time>
      </trkpt>
      <trkpt lat="45.82015" lon="4.2662">
        <ele>599.772</ele>
        <time>2019-03-11T08:52:56Z</time>
      </trkpt>
      <trkpt lat="45.82013" lon="4.26612">
        <ele>599.355</ele>
        <time>2019-03-11T08:53:02Z</time>
      </trkpt>
      <trkpt lat="45.82011" lon="4.26607">
        <ele>598.657</ele>
        <time>2019-03-11T08:53:08Z</time>
      </trkpt>
      <trkpt lat="45.8201" lon="4.26606">
        <ele>598.156</ele>
        <time>2019-03-11T08:53:13Z</time>
      </trkpt>
      <trkpt lat="45.8201" lon="4.26605">
        <ele>597.555</ele>
        <time>2019-03-11T08:53:19Z</time>
      </trkpt>
      <trkpt lat="45.82011" lon="4.26603">
        <ele>597.166</ele>
        <time>2019-03-11T08:53:24Z</time>
      </trkpt>
      <trkpt lat="45.8201" lon="4.26601">
        <ele>596.567</ele>
        <time>2019-03-11T08:53:30Z</time>
      </trkpt>
      <trkpt lat="45.82014" lon="4.266">
        <ele>596.198</ele>
        <time>2019-03-11T08:53:35Z</time>
      </trkpt>
      <trkpt lat="45.82015" lon="4.26599">
        <ele>596.18</ele>
        <time>2019-03-11T08:53:41Z</time>
      </trkpt>
      <trkpt lat="45.82016" lon="4.26601">
        <ele>595.999</ele>
        <time>2019-03-11T08:53:47Z</time>
      </trkpt>
      <trkpt lat="45.82016" lon="4.26601">
        <ele>595.989</ele>
        <time>2019-03-11T08:53:52Z</time>
      </trkpt>
      <trkpt lat="45.82016" lon="4.26601">
        <ele>595.977</ele>
        <time>2019-03-11T08:53:57Z</time>
      </trkpt>
      <trkpt lat="45.82016" lon="4.26601">
        <ele>595.901</ele>
        <time>2019-03-11T08:54:03Z</time>
      </trkpt>
      <trkpt lat="45.82013" lon="4.26598">
        <ele>595.485</ele>
        <time>2019-03-11T08:54:08Z</time>
      </trkpt>
      <trkpt lat="45.8201" lon="4.26593">
        <ele>595.441</ele>
        <time>2019-03-11T08:54:14Z</time>
      </trkpt>
      <trkpt lat="45.82006" lon="4.26586">
        <ele>595.459</ele>
        <time>2019-03-11T08:54:20Z</time>
      </trkpt>
      <trkpt lat="45.82001" lon="4.26576">
        <ele>595.371</ele>
        <time>2019-03-11T08:54:25Z</time>
      </trkpt>
      <trkpt lat="45.81998" lon="4.26569">
        <ele>595.169</ele>
        <time>2019-03-11T08:54:31Z</time>
      </trkpt>
      <trkpt lat="45.81995" lon="4.26561">
        <ele>594.96</ele>
        <time>2019-03-11T08:54:37Z</time>
      </trkpt>
      <trkpt lat="45.8199" lon="4.26554">
        <ele>594.538</ele>
        <time>2019-03-11T08:54:43Z</time>
      </trkpt>
      <trkpt lat="45.81986" lon="4.2655">
        <ele>594.366</ele>
        <time>2019-03-11T08:54:48Z</time>
      </trkpt>
      <trkpt lat="45.81983" lon="4.26545">
        <ele>594.164</ele>
        <time>2019-03-11T08:54:54Z</time>
      </trkpt>
      <trkpt lat="45.81979" lon="4.26541">
        <ele>594.009</ele>
        <time>2019-03-11T08:54:59Z</time>
      </trkpt>
      <trkpt lat="45.81976" lon="4.26538">
        <ele>593.777</ele>
        <time>2019-03-11T08:55:05Z</time>
      </trkpt>
      <trkpt lat="45.81975" lon="4.26537">
        <ele>593.641</ele>
        <time>2019-03-11T08:55:10Z</time>
      </trkpt>
      <trkpt lat="45.81975" lon="4.26537">
        <ele>593.558</ele>
        <time>2019-03-11T08:55:16Z</time>
      </trkpt>
      <trkpt lat="45.81974" lon="4.26537">
        <ele>593.534</ele>
        <time>2019-03-11T08:55:21Z</time>
      </trkpt>
      <trkpt lat="45.81974" lon="4.26536">
        <ele>593.35</ele>
        <time>2019-03-11T08:55:27Z</time>
      </trkpt>
      <trkpt lat="45.8197" lon="4.26537">
        <ele>592.512</ele>
        <time>2019-03-11T08:55:33Z</time>
      </trkpt>
      <trkpt lat="45.81963" lon="4.26539">
        <ele>591.839</ele>
        <time>2019-03-11T08:55:39Z</time>
      </trkpt>
      <trkpt lat="45.81958" lon="4.2654">
        <ele>591.406</ele>
        <time>2019-03-11T08:55:45Z</time>
      </trkpt>
      <trkpt lat="45.81953" lon="4.26542">
        <ele>591.042</ele>
        <time>2019-03-11T08:55:50Z</time>
      </trkpt>
      <trkpt lat="45.81947" lon="4.26548">
        <ele>590.532</ele>
        <time>2019-03-11T08:55:56Z</time>
      </trkpt>
      <trkpt lat="45.81942" lon="4.26552">
        <ele>589.757</ele>
        <time>2019-03-11T08:56:01Z</time>
      </trkpt>
      <trkpt lat="45.81937" lon="4.26559">
        <ele>588.86</ele>
        <time>2019-03-11T08:56:06Z</time>
      </trkpt>
      <trkpt lat="45.81932" lon="4.26565">
        <ele>587.824</ele>
        <time>2019-03-11T08:56:12Z</time>
      </trkpt>
      <trkpt lat="45.81927" lon="4.26569">
        <ele>586.759</ele>
        <time>2019-03-11T08:56:18Z</time>
      </trkpt>
      <trkpt lat="45.81923" lon="4.26575">
        <ele>585.985</ele>
        <time>2019-03-11T08:56:23Z</time>
      </trkpt>
      <trkpt lat="45.81919" lon="4.26582">
        <ele>585.57</ele>
        <time>2019-03-11T08:56:28Z</time>
      </trkpt>
      <trkpt lat="45.81914" lon="4.2659">
        <ele>585.602</ele>
        <time>2019-03-11T08:56:34Z</time>
      </trkpt>
      <trkpt lat="45.81909" lon="4.26595">
        <ele>585.912</ele>
        <time>2019-03-11T08:56:40Z</time>
      </trkpt>
      <trkpt lat="45.81901" lon="4.266">
        <ele>585.741</ele>
        <time>2019-03-11T08:56:46Z</time>
      </trkpt>
      <trkpt lat="45.81894" lon="4.26602">
        <ele>585.213</ele>
        <time>2019-03-11T08:56:52Z</time>
      </trkpt>
      <trkpt lat="45.81887" lon="4.26608">
        <ele>584.354</ele>
        <time>2019-03-11T08:56:58Z</time>
      </trkpt>
      <trkpt lat="45.81879" lon="4.2661">
        <ele>583.58</ele>
        <time>2019-03-11T08:57:03Z</time>
      </trkpt>
      <trkpt lat="45.81874" lon="4.26613">
        <ele>582.808</ele>
        <time>2019-03-11T08:57:09Z</time>
      </trkpt>
      <trkpt lat="45.81868" lon="4.26615">
        <ele>582.129</ele>
        <time>2019-03-11T08:57:15Z</time>
      </trkpt>
      <trkpt lat="45.81864" lon="4.26617">
        <ele>581.41</ele>
        <time>2019-03-11T08:57:20Z</time>
      </trkpt>
      <trkpt lat="45.81859" lon="4.26617">
        <ele>580.824</ele>
        <time>2019-03-11T08:57:25Z</time>
      </trkpt>
      <trkpt lat="45.81853" lon="4.2662">
        <ele>580.276</ele>
        <time>2019-03-11T08:57:30Z</time>
      </trkpt>
      <trkpt lat="45.81847" lon="4.26622">
        <ele>580.193</ele>
        <time>2019-03-11T08:57:36Z</time>
      </trkpt>
      <trkpt lat="45.81842" lon="4.26624">
        <ele>580.031</ele>
        <time>2019-03-11T08:57:41Z</time>
      </trkpt>
      <trkpt lat="45.81835" lon="4.26624">
        <ele>578.912</ele>
        <time>2019-03-11T08:57:47Z</time>
      </trkpt>
      <trkpt lat="45.81828" lon="4.26625">
        <ele>577.232</ele>
        <time>2019-03-11T08:57:53Z</time>
      </trkpt>
      <trkpt lat="45.81824" lon="4.26627">
        <ele>575.934</ele>
        <time>2019-03-11T08:57:58Z</time>
      </trkpt>
      <trkpt lat="45.81817" lon="4.26634">
        <ele>574.16</ele>
        <time>2019-03-11T08:58:04Z</time>
      </trkpt>
      <trkpt lat="45.81814" lon="4.26641">
        <ele>572.836</ele>
        <time>2019-03-11T08:58:10Z</time>
      </trkpt>
      <trkpt lat="45.81809" lon="4.26651">
        <ele>571.662</ele>
        <time>2019-03-11T08:58:16Z</time>
      </trkpt>
      <trkpt lat="45.81804" lon="4.26664">
        <ele>570.731</ele>
        <time>2019-03-11T08:58:22Z</time>
      </trkpt>
      <trkpt lat="45.81801" lon="4.26677">
        <ele>570.551</ele>
        <time>2019-03-11T08:58:28Z</time>
      </trkpt>
      <trkpt lat="45.81797" lon="4.26685">
        <ele>570.044</ele>
        <time>2019-03-11T08:58:34Z</time>
      </trkpt>
      <trkpt lat="45.81795" lon="4.26687">
        <ele>569.365</ele>
        <time>2019-03-11T08:58:39Z</time>
      </trkpt>
      <trkpt lat="45.81794" lon="4.26688">
        <ele>568.663</ele>
        <time>2019-03-11T08:58:45Z</time>
      </trkpt>
      <trkpt lat="45.81792" lon="4.26695">
        <ele>567.998</ele>
        <time>2019-03-11T08:58:50Z</time>
      </trkpt>
      <trkpt lat="45.81788" lon="4.26705">
        <ele>567.373</ele>
        <time>2019-03-11T08:58:56Z</time>
      </trkpt>
      <trkpt lat="45.81784" lon="4.26717">
        <ele>566.923</ele>
        <time>2019-03-11T08:59:02Z</time>
      </trkpt>
      <trkpt lat="45.81781" lon="4.26725">
        <ele>566.087</ele>
        <time>2019-03-11T08:59:08Z</time>
      </trkpt>
      <trkpt lat="45.81778" lon="4.26733">
        <ele>565.84</ele>
        <time>2019-03-11T08:59:14Z</time>
      </trkpt>
      <trkpt lat="45.81778" lon="4.26741">
        <ele>565.35</ele>
        <time>2019-03-11T08:59:20Z</time>
      </trkpt>
      <trkpt lat="45.81779" lon="4.26748">
        <ele>564.831</ele>
        <time>2019-03-11T08:59:25Z</time>
      </trkpt>
      <trkpt lat="45.81781" lon="4.26755">
        <ele>564.143</ele>
        <time>2019-03-11T08:59:30Z</time>
      </trkpt>
      <trkpt lat="45.81783" lon="4.26764">
        <ele>563.358</ele>
        <time>2019-03-11T08:59:35Z</time>
      </trkpt>
      <trkpt lat="45.81787" lon="4.26773">
        <ele>562.521</ele>
        <time>2019-03-11T08:59:41Z</time>
      </trkpt>
      <trkpt lat="45.81793" lon="4.26782">
        <ele>561.436</ele>
        <time>2019-03-11T08:59:47Z</time>
      </trkpt>
      <trkpt lat="45.81796" lon="4.26787">
        <ele>560.542</ele>
        <time>2019-03-11T08:59:52Z</time>
      </trkpt>
      <trkpt lat="45.81801" lon="4.26794">
        <ele>559.76</ele>
        <time>2019-03-11T08:59:58Z</time>
      </trkpt>
      <trkpt lat="45.81805" lon="4.26799">
        <ele>559.098</ele>
        <time>2019-03-11T09:00:03Z</time>
      </trkpt>
      <trkpt lat="45.81808" lon="4.26804">
        <ele>558.31</ele>
        <time>2019-03-11T09:00:08Z</time>
      </trkpt>
      <trkpt lat="45.81816" lon="4.26812">
        <ele>557.41</ele>
        <time>2019-03-11T09:00:14Z</time>
      </trkpt>
      <trkpt lat="45.81821" lon="4.26816">
        <ele>556.751</ele>
        <time>2019-03-11T09:00:19Z</time>
      </trkpt>
      <trkpt lat="45.81824" lon="4.26822">
        <ele>555.654</ele>
        <time>2019-03-11T09:00:25Z</time>
      </trkpt>
      <trkpt lat="45.81825" lon="4.2683">
        <ele>554.453</ele>
        <time>2019-03-11T09:00:30Z</time>
      </trkpt>
      <trkpt lat="45.81824" lon="4.26842">
        <ele>553.517</ele>
        <time>2019-03-11T09:00:36Z</time>
      </trkpt>
      <trkpt lat="45.81822" lon="4.26847">
        <ele>552.817</ele>
        <time>2019-03-11T09:00:41Z</time>
      </trkpt>
      <trkpt lat="45.81816" lon="4.26851">
        <ele>552.247</ele>
        <time>2019-03-11T09:00:47Z</time>
      </trkpt>
      <trkpt lat="45.81812" lon="4.26853">
        <ele>551.558</ele>
        <time>2019-03-11T09:00:52Z</time>
      </trkpt>
      <trkpt lat="45.81804" lon="4.26859">
        <ele>550.813</ele>
        <time>2019-03-11T09:00:58Z</time>
      </trkpt>
      <trkpt lat="45.81798" lon="4.26865">
        <ele>550.331</ele>
        <time>2019-03-11T09:01:03Z</time>
      </trkpt>
      <trkpt lat="45.8179" lon="4.2687">
        <ele>549.395</ele>
        <time>2019-03-11T09:01:09Z</time>
      </trkpt>
      <trkpt lat="45.81785" lon="4.26872">
        <ele>548.993</ele>
        <time>2019-03-11T09:01:14Z</time>
      </trkpt>
      <trkpt lat="45.81781" lon="4.26875">
        <ele>548.767</ele>
        <time>2019-03-11T09:01:20Z</time>
      </trkpt>
      <trkpt lat="45.81774" lon="4.26882">
        <ele>548.657</ele>
        <time>2019-03-11T09:01:26Z</time>
      </trkpt>
      <trkpt lat="45.81769" lon="4.26886">
        <ele>548.67</ele>
        <time>2019-03-11T09:01:32Z</time>
      </trkpt>
      <trkpt lat="45.81763" lon="4.26889">
        <ele>548.558</ele>
        <time>2019-03-11T09:01:37Z</time>
      </trkpt>
      <trkpt lat="45.81758" lon="4.26891">
        <ele>548.485</ele>
        <time>2019-03-11T09:01:42Z</time>
      </trkpt>
      <trkpt lat="45.81752" lon="4.26896">
        <ele>548.429</ele>
        <time>2019-03-11T09:01:48Z</time>
      </trkpt>
      <trkpt lat="45.81745" lon="4.269">
        <ele>548.081</ele>
        <time>2019-03-11T09:01:54Z</time>
      </trkpt>
      <trkpt lat="45.81741" lon="4.26903">
        <ele>547.677</ele>
        <time>2019-03-11T09:02:00Z</time>
      </trkpt>
      <trkpt lat="45.81732" lon="4.26908">
        <ele>546.991</ele>
        <time>2019-03-11T09:02:06Z</time>
      </trkpt>
      <trkpt lat="45.81728" lon="4.26913">
        <ele>546.426</ele>
        <time>2019-03-11T09:02:11Z</time>
      </trkpt>
      <trkpt lat="45.81723" lon="4.26923">
        <ele>546.67</ele>
        <time>2019-03-11T09:02:17Z</time>
      </trkpt>
      <trkpt lat="45.81721" lon="4.26929">
        <ele>547.822</ele>
        <time>2019-03-11T09:02:22Z</time>
      </trkpt>
      <trkpt lat="45.8172" lon="4.26934">
        <ele>549.38</ele>
        <time>2019-03-11T09:02:28Z</time>
      </trkpt>
      <trkpt lat="45.81719" lon="4.2694">
        <ele>549.787</ele>
        <time>2019-03-11T09:02:33Z</time>
      </trkpt>
      <trkpt lat="45.8172" lon="4.26947">
        <ele>549.809</ele>
        <time>2019-03-11T09:02:39Z</time>
      </trkpt>
      <trkpt lat="45.81721" lon="4.26957">
        <ele>549.5</ele>
        <time>2019-03-11T09:02:44Z</time>
      </trkpt>
      <trkpt lat="45.81721" lon="4.26965">
        <ele>549.214</ele>
        <time>2019-03-11T09:02:49Z</time>
      </trkpt>
      <trkpt lat="45.81719" lon="4.26974">
        <ele>549.08</ele>
        <time>2019-03-11T09:02:55Z</time>
      </trkpt>
      <trkpt lat="45.81718" lon="4.26981">
        <ele>549.769</ele>
        <time>2019-03-11T09:03:01Z</time>
      </trkpt>
      <trkpt lat="45.81717" lon="4.26987">
        <ele>550.19</ele>
        <time>2019-03-11T09:03:06Z</time>
      </trkpt>
      <trkpt lat="45.81717" lon="4.26995">
        <ele>550.309</ele>
        <time>2019-03-11T09:03:12Z</time>
      </trkpt>
      <trkpt lat="45.81718" lon="4.27003">
        <ele>550.031</ele>
        <time>2019-03-11T09:03:18Z</time>
      </trkpt>
      <trkpt lat="45.81717" lon="4.2701">
        <ele>550.05</ele>
        <time>2019-03-11T09:03:23Z</time>
      </trkpt>
      <trkpt lat="45.81717" lon="4.27017">
        <ele>550.189</ele>
        <time>2019-03-11T09:03:29Z</time>
      </trkpt>
      <trkpt lat="45.81717" lon="4.27025">
        <ele>550.475</ele>
        <time>2019-03-11T09:03:35Z</time>
      </trkpt>
      <trkpt lat="45.81715" lon="4.27033">
        <ele>550.717</ele>
        <time>2019-03-11T09:03:41Z</time>
      </trkpt>
      <trkpt lat="45.81715" lon="4.27038">
        <ele>550.711</ele>
        <time>2019-03-11T09:03:46Z</time>
      </trkpt>
      <trkpt lat="45.81715" lon="4.27046">
        <ele>550.835</ele>
        <time>2019-03-11T09:03:52Z</time>
      </trkpt>
      <trkpt lat="45.81715" lon="4.27052">
        <ele>550.903</ele>
        <time>2019-03-11T09:03:57Z</time>
      </trkpt>
      <trkpt lat="45.81713" lon="4.2706">
        <ele>550.979</ele>
        <time>2019-03-11T09:04:03Z</time>
      </trkpt>
      <trkpt lat="45.81711" lon="4.27068">
        <ele>551.434</ele>
        <time>2019-03-11T09:04:08Z</time>
      </trkpt>
      <trkpt lat="45.8171" lon="4.27076">
        <ele>551.805</ele>
        <time>2019-03-11T09:04:14Z</time>
      </trkpt>
      <trkpt lat="45.81709" lon="4.27082">
        <ele>552.643</ele>
        <time>2019-03-11T09:04:20Z</time>
      </trkpt>
      <trkpt lat="45.81707" lon="4.2709">
        <ele>554.075</ele>
        <time>2019-03-11T09:04:26Z</time>
      </trkpt>
      <trkpt lat="45.81707" lon="4.27097">
        <ele>554.838</ele>
        <time>2019-03-11T09:04:31Z</time>
      </trkpt>
      <trkpt lat="45.81706" lon="4.27106">
        <ele>555.257</ele>
        <time>2019-03-11T09:04:37Z</time>
      </trkpt>
      <trkpt lat="45.81706" lon="4.27113">
        <ele>555.445</ele>
        <time>2019-03-11T09:04:42Z</time>
      </trkpt>
      <trkpt lat="45.81707" lon="4.27121">
        <ele>555.95</ele>
        <time>2019-03-11T09:04:48Z</time>
      </trkpt>
      <trkpt lat="45.81708" lon="4.27127">
        <ele>556.025</ele>
        <time>2019-03-11T09:04:53Z</time>
      </trkpt>
      <trkpt lat="45.8171" lon="4.2713">
        <ele>556.388</ele>
        <time>2019-03-11T09:04:58Z</time>
      </trkpt>
      <trkpt lat="45.81713" lon="4.27132">
        <ele>557.014</ele>
        <time>2019-03-11T09:05:03Z</time>
      </trkpt>
      <trkpt lat="45.81716" lon="4.27135">
        <ele>557.752</ele>
        <time>2019-03-11T09:05:09Z</time>
      </trkpt>
      <trkpt lat="45.81721" lon="4.27137">
        <ele>558.491</ele>
        <time>2019-03-11T09:05:15Z</time>
      </trkpt>
      <trkpt lat="45.81726" lon="4.27137">
        <ele>559.217</ele>
        <time>2019-03-11T09:05:20Z</time>
      </trkpt>
      <trkpt lat="45.81731" lon="4.27139">
        <ele>560.099</ele>
        <time>2019-03-11T09:05:25Z</time>
      </trkpt>
      <trkpt lat="45.81735" lon="4.2714">
        <ele>560.514</ele>
        <time>2019-03-11T09:05:31Z</time>
      </trkpt>
      <trkpt lat="45.81738" lon="4.27141">
        <ele>560.671</ele>
        <time>2019-03-11T09:05:36Z</time>
      </trkpt>
      <trkpt lat="45.81742" lon="4.27146">
        <ele>561.271</ele>
        <time>2019-03-11T09:05:42Z</time>
      </trkpt>
      <trkpt lat="45.81745" lon="4.27154">
        <ele>562.075</ele>
        <time>2019-03-11T09:05:48Z</time>
      </trkpt>
      <trkpt lat="45.81747" lon="4.27162">
        <ele>562.824</ele>
        <time>2019-03-11T09:05:54Z</time>
      </trkpt>
      <trkpt lat="45.81747" lon="4.27171">
        <ele>562.834</ele>
        <time>2019-03-11T09:06:00Z</time>
      </trkpt>
      <trkpt lat="45.81748" lon="4.27178">
        <ele>563.144</ele>
        <time>2019-03-11T09:06:06Z</time>
      </trkpt>
      <trkpt lat="45.8175" lon="4.27187">
        <ele>563.911</ele>
        <time>2019-03-11T09:06:12Z</time>
      </trkpt>
      <trkpt lat="45.81751" lon="4.27198">
        <ele>564.752</ele>
        <time>2019-03-11T09:06:18Z</time>
      </trkpt>
      <trkpt lat="45.81752" lon="4.27206">
        <ele>565.267</ele>
        <time>2019-03-11T09:06:24Z</time>
      </trkpt>
      <trkpt lat="45.81753" lon="4.27217">
        <ele>565.913</ele>
        <time>2019-03-11T09:06:30Z</time>
      </trkpt>
      <trkpt lat="45.81754" lon="4.27226">
        <ele>566.729</ele>
        <time>2019-03-11T09:06:36Z</time>
      </trkpt>
      <trkpt lat="45.81754" lon="4.27233">
        <ele>566.662</ele>
        <time>2019-03-11T09:06:41Z</time>
      </trkpt>
      <trkpt lat="45.81754" lon="4.27243">
        <ele>566.931</ele>
        <time>2019-03-11T09:06:47Z</time>
      </trkpt>
      <trkpt lat="45.81756" lon="4.2725">
        <ele>567.403</ele>
        <time>2019-03-11T09:06:52Z</time>
      </trkpt>
      <trkpt lat="45.81756" lon="4.27257">
        <ele>567.995</ele>
        <time>2019-03-11T09:06:58Z</time>
      </trkpt>
      <trkpt lat="45.81758" lon="4.27266">
        <ele>568.666</ele>
        <time>2019-03-11T09:07:04Z</time>
      </trkpt>
      <trkpt lat="45.81759" lon="4.27274">
        <ele>569.531</ele>
        <time>2019-03-11T09:07:09Z</time>
      </trkpt>
      <trkpt lat="45.81761" lon="4.27282">
        <ele>570.142</ele>
        <time>2019-03-11T09:07:15Z</time>
      </trkpt>
      <trkpt lat="45.81763" lon="4.27288">
        <ele>570.634</ele>
        <time>2019-03-11T09:07:20Z</time>
      </trkpt>
      <trkpt lat="45.81764" lon="4.27295">
        <ele>571.158</ele>
        <time>2019-03-11T09:07:25Z</time>
      </trkpt>
      <trkpt lat="45.81767" lon="4.27303">
        <ele>571.781</ele>
        <time>2019-03-11T09:07:30Z</time>
      </trkpt>
      <trkpt lat="45.81771" lon="4.27306">
        <ele>572.745</ele>
        <time>2019-03-11T09:07:36Z</time>
      </trkpt>
      <trkpt lat="45.81774" lon="4.2731">
        <ele>573.666</ele>
        <time>2019-03-11T09:07:41Z</time>
      </trkpt>
      <trkpt lat="45.81779" lon="4.27319">
        <ele>574.847</ele>
        <time>2019-03-11T09:07:47Z</time>
      </trkpt>
      <trkpt lat="45.81781" lon="4.27324">
        <ele>575.87</ele>
        <time>2019-03-11T09:07:53Z</time>
      </trkpt>
      <trkpt lat="45.81784" lon="4.27335">
        <ele>576.401</ele>
        <time>2019-03-11T09:07:58Z</time>
      </trkpt>
      <trkpt lat="45.81786" lon="4.27345">
        <ele>576.662</ele>
        <time>2019-03-11T09:08:04Z</time>
      </trkpt>
      <trkpt lat="45.81788" lon="4.27351">
        <ele>577.055</ele>
        <time>2019-03-11T09:08:09Z</time>
      </trkpt>
      <trkpt lat="45.8179" lon="4.27356">
        <ele>577.692</ele>
        <time>2019-03-11T09:08:15Z</time>
      </trkpt>
      <trkpt lat="45.81793" lon="4.27366">
        <ele>578.536</ele>
        <time>2019-03-11T09:08:21Z</time>
      </trkpt>
      <trkpt lat="45.81794" lon="4.27373">
        <ele>579.091</ele>
        <time>2019-03-11T09:08:26Z</time>
      </trkpt>
      <trkpt lat="45.81796" lon="4.27381">
        <ele>579.571</ele>
        <time>2019-03-11T09:08:32Z</time>
      </trkpt>
      <trkpt lat="45.81796" lon="4.2739">
        <ele>580.073</ele>
        <time>2019-03-11T09:08:38Z</time>
      </trkpt>
      <trkpt lat="45.81796" lon="4.27397">
        <ele>581.037</ele>
        <time>2019-03-11T09:08:44Z</time>
      </trkpt>
      <trkpt lat="45.81797" lon="4.27403">
        <ele>581.796</ele>
        <time>2019-03-11T09:08:49Z</time>
      </trkpt>
      <trkpt lat="45.81799" lon="4.2741">
        <ele>583.177</ele>
        <time>2019-03-11T09:08:55Z</time>
      </trkpt>
      <trkpt lat="45.81801" lon="4.27421">
        <ele>584.585</ele>
        <time>2019-03-11T09:09:01Z</time>
      </trkpt>
      <trkpt lat="45.81802" lon="4.27427">
        <ele>585.747</ele>
        <time>2019-03-11T09:09:06Z</time>
      </trkpt>
      <trkpt lat="45.81804" lon="4.27435">
        <ele>586.828</ele>
        <time>2019-03-11T09:09:12Z</time>
      </trkpt>
      <trkpt lat="45.81808" lon="4.27446">
        <ele>587.561</ele>
        <time>2019-03-11T09:09:18Z</time>
      </trkpt>
      <trkpt lat="45.81809" lon="4.27455">
        <ele>587.963</ele>
        <time>2019-03-11T09:09:24Z</time>
      </trkpt>
      <trkpt lat="45.81812" lon="4.27462">
        <ele>587.978</ele>
        <time>2019-03-11T09:09:29Z</time>
      </trkpt>
      <trkpt lat="45.81814" lon="4.27471">
        <ele>588.064</ele>
        <time>2019-03-11T09:09:34Z</time>
      </trkpt>
      <trkpt lat="45.81818" lon="4.2748">
        <ele>588.66</ele>
        <time>2019-03-11T09:09:40Z</time>
      </trkpt>
      <trkpt lat="45.8182" lon="4.27486">
        <ele>589.332</ele>
        <time>2019-03-11T09:09:45Z</time>
      </trkpt>
      <trkpt lat="45.81822" lon="4.27492">
        <ele>589.761</ele>
        <time>2019-03-11T09:09:50Z</time>
      </trkpt>
      <trkpt lat="45.81825" lon="4.27499">
        <ele>590.722</ele>
        <time>2019-03-11T09:09:56Z</time>
      </trkpt>
      <trkpt lat="45.81827" lon="4.27505">
        <ele>591.213</ele>
        <time>2019-03-11T09:10:01Z</time>
      </trkpt>
      <trkpt lat="45.8183" lon="4.2751">
        <ele>591.77</ele>
        <time>2019-03-11T09:10:07Z</time>
      </trkpt>
      <trkpt lat="45.81831" lon="4.27517">
        <ele>591.952</ele>
        <time>2019-03-11T09:10:12Z</time>
      </trkpt>
      <trkpt lat="45.81836" lon="4.27526">
        <ele>592.362</ele>
        <time>2019-03-11T09:10:18Z</time>
      </trkpt>
      <trkpt lat="45.81839" lon="4.27534">
        <ele>592.654</ele>
        <time>2019-03-11T09:10:24Z</time>
      </trkpt>
      <trkpt lat="45.81844" lon="4.2754">
        <ele>593.008</ele>
        <time>2019-03-11T09:10:30Z</time>
      </trkpt>
      <trkpt lat="45.81849" lon="4.27549">
        <ele>593.254</ele>
        <time>2019-03-11T09:10:36Z</time>
      </trkpt>
      <trkpt lat="45.81854" lon="4.27559">
        <ele>593.823</ele>
        <time>2019-03-11T09:10:41Z</time>
      </trkpt>
      <trkpt lat="45.81857" lon="4.27564">
        <ele>594.251</ele>
        <time>2019-03-11T09:10:46Z</time>
      </trkpt>
      <trkpt lat="45.81862" lon="4.2757">
        <ele>594.428</ele>
        <time>2019-03-11T09:10:52Z</time>
      </trkpt>
      <trkpt lat="45.81866" lon="4.27575">
        <ele>594.658</ele>
        <time>2019-03-11T09:10:57Z</time>
      </trkpt>
      <trkpt lat="45.81872" lon="4.27578">
        <ele>595.187</ele>
        <time>2019-03-11T09:11:03Z</time>
      </trkpt>
      <trkpt lat="45.81878" lon="4.27579">
        <ele>596.222</ele>
        <time>2019-03-11T09:11:09Z</time>
      </trkpt>
      <trkpt lat="45.81884" lon="4.27579">
        <ele>596.572</ele>
        <time>2019-03-11T09:11:14Z</time>
      </trkpt>
      <trkpt lat="45.81889" lon="4.27579">
        <ele>596.472</ele>
        <time>2019-03-11T09:11:19Z</time>
      </trkpt>
      <trkpt lat="45.81897" lon="4.27577">
        <ele>596.396</ele>
        <time>2019-03-11T09:11:25Z</time>
      </trkpt>
      <trkpt lat="45.81904" lon="4.27573">
        <ele>596.966</ele>
        <time>2019-03-11T09:11:31Z</time>
      </trkpt>
      <trkpt lat="45.81907" lon="4.27571">
        <ele>597.503</ele>
        <time>2019-03-11T09:11:37Z</time>
      </trkpt>
      <trkpt lat="45.81913" lon="4.27569">
        <ele>598.152</ele>
        <time>2019-03-11T09:11:43Z</time>
      </trkpt>
      <trkpt lat="45.81919" lon="4.27566">
        <ele>598.526</ele>
        <time>2019-03-11T09:11:49Z</time>
      </trkpt>
      <trkpt lat="45.81924" lon="4.27562">
        <ele>598.433</ele>
        <time>2019-03-11T09:11:55Z</time>
      </trkpt>
      <trkpt lat="45.81928" lon="4.2756">
        <ele>598.235</ele>
        <time>2019-03-11T09:12:00Z</time>
      </trkpt>
      <trkpt lat="45.81937" lon="4.27555">
        <ele>598.428</ele>
        <time>2019-03-11T09:12:06Z</time>
      </trkpt>
      <trkpt lat="45.81942" lon="4.27554">
        <ele>598.718</ele>
        <time>2019-03-11T09:12:11Z</time>
      </trkpt>
      <trkpt lat="45.81947" lon="4.27551">
        <ele>599.263</ele>
        <time>2019-03-11T09:12:16Z</time>
      </trkpt>
      <trkpt lat="45.81953" lon="4.27548">
        <ele>599.907</ele>
        <time>2019-03-11T09:12:22Z</time>
      </trkpt>
      <trkpt lat="45.81959" lon="4.27544">
        <ele>600.223</ele>
        <time>2019-03-11T09:12:28Z</time>
      </trkpt>
      <trkpt lat="45.81965" lon="4.27539">
        <ele>600.716</ele>
        <time>2019-03-11T09:12:34Z</time>
      </trkpt>
      <trkpt lat="45.81973" lon="4.27533">
        <ele>601.312</ele>
        <time>2019-03-11T09:12:40Z</time>
      </trkpt>
      <trkpt lat="45.81978" lon="4.27528">
        <ele>601.731</ele>
        <time>2019-03-11T09:12:46Z</time>
      </trkpt>
      <trkpt lat="45.81982" lon="4.27525">
        <ele>601.955</ele>
        <time>2019-03-11T09:12:51Z</time>
      </trkpt>
      <trkpt lat="45.81989" lon="4.27523">
        <ele>602.15</ele>
        <time>2019-03-11T09:12:57Z</time>
      </trkpt>
      <trkpt lat="45.81995" lon="4.2752">
        <ele>602.686</ele>
        <time>2019-03-11T09:13:02Z</time>
      </trkpt>
      <trkpt lat="45.82001" lon="4.27514">
        <ele>603.361</ele>
        <time>2019-03-11T09:13:08Z</time>
      </trkpt>
      <trkpt lat="45.82006" lon="4.2751">
        <ele>604.005</ele>
        <time>2019-03-11T09:13:14Z</time>
      </trkpt>
      <trkpt lat="45.82012" lon="4.27506">
        <ele>604.759</ele>
        <time>2019-03-11T09:13:19Z</time>
      </trkpt>
      <trkpt lat="45.82017" lon="4.27502">
        <ele>605.358</ele>
        <time>2019-03-11T09:13:24Z</time>
      </trkpt>
      <trkpt lat="45.82023" lon="4.27498">
        <ele>605.629</ele>
        <time>2019-03-11T09:13:30Z</time>
      </trkpt>
      <trkpt lat="45.82027" lon="4.27496">
        <ele>606.029</ele>
        <time>2019-03-11T09:13:35Z</time>
      </trkpt>
      <trkpt lat="45.82035" lon="4.27492">
        <ele>606.147</ele>
        <time>2019-03-11T09:13:41Z</time>
      </trkpt>
      <trkpt lat="45.8204" lon="4.2749">
        <ele>606.366</ele>
        <time>2019-03-11T09:13:47Z</time>
      </trkpt>
      <trkpt lat="45.82044" lon="4.27488">
        <ele>606.636</ele>
        <time>2019-03-11T09:13:52Z</time>
      </trkpt>
      <trkpt lat="45.8205" lon="4.27484">
        <ele>606.433</ele>
        <time>2019-03-11T09:13:58Z</time>
      </trkpt>
      <trkpt lat="45.82056" lon="4.27479">
        <ele>606.596</ele>
        <time>2019-03-11T09:14:04Z</time>
      </trkpt>
      <trkpt lat="45.82059" lon="4.27474">
        <ele>606.605</ele>
        <time>2019-03-11T09:14:09Z</time>
      </trkpt>
      <trkpt lat="45.82064" lon="4.27467">
        <ele>606.468</ele>
        <time>2019-03-11T09:14:14Z</time>
      </trkpt>
      <trkpt lat="45.82069" lon="4.27458">
        <ele>606.33</ele>
        <time>2019-03-11T09:14:20Z</time>
      </trkpt>
      <trkpt lat="45.82074" lon="4.27453">
        <ele>606.278</ele>
        <time>2019-03-11T09:14:25Z</time>
      </trkpt>
      <trkpt lat="45.82079" lon="4.27447">
        <ele>605.879</ele>
        <time>2019-03-11T09:14:31Z</time>
      </trkpt>
      <trkpt lat="45.82085" lon="4.27441">
        <ele>605.666</ele>
        <time>2019-03-11T09:14:36Z</time>
      </trkpt>
      <trkpt lat="45.8209" lon="4.27436">
        <ele>605.961</ele>
        <time>2019-03-11T09:14:42Z</time>
      </trkpt>
      <trkpt lat="45.82095" lon="4.27431">
        <ele>606.207</ele>
        <time>2019-03-11T09:14:48Z</time>
      </trkpt>
      <trkpt lat="45.82103" lon="4.27423">
        <ele>606.111</ele>
        <time>2019-03-11T09:14:54Z</time>
      </trkpt>
      <trkpt lat="45.82108" lon="4.27419">
        <ele>605.905</ele>
        <time>2019-03-11T09:14:59Z</time>
      </trkpt>
      <trkpt lat="45.82113" lon="4.27415">
        <ele>605.817</ele>
        <time>2019-03-11T09:15:04Z</time>
      </trkpt>
      <trkpt lat="45.8212" lon="4.2741">
        <ele>605.849</ele>
        <time>2019-03-11T09:15:10Z</time>
      </trkpt>
      <trkpt lat="45.82124" lon="4.27404">
        <ele>605.968</ele>
        <time>2019-03-11T09:15:15Z</time>
      </trkpt>
      <trkpt lat="45.8213" lon="4.27399">
        <ele>606.147</ele>
        <time>2019-03-11T09:15:21Z</time>
      </trkpt>
      <trkpt lat="45.82137" lon="4.27393">
        <ele>606.586</ele>
        <time>2019-03-11T09:15:27Z</time>
      </trkpt>
      <trkpt lat="45.82139" lon="4.2739">
        <ele>606.818</ele>
        <time>2019-03-11T09:15:33Z</time>
      </trkpt>
      <trkpt lat="45.82146" lon="4.27386">
        <ele>606.819</ele>
        <time>2019-03-11T09:15:39Z</time>
      </trkpt>
      <trkpt lat="45.8215" lon="4.27382">
        <ele>606.866</ele>
        <time>2019-03-11T09:15:44Z</time>
      </trkpt>
      <trkpt lat="45.82156" lon="4.27378">
        <ele>606.884</ele>
        <time>2019-03-11T09:15:49Z</time>
      </trkpt>
      <trkpt lat="45.82161" lon="4.27374">
        <ele>606.821</ele>
        <time>2019-03-11T09:15:55Z</time>
      </trkpt>
      <trkpt lat="45.82167" lon="4.27371">
        <ele>607.027</ele>
        <time>2019-03-11T09:16:00Z</time>
      </trkpt>
      <trkpt lat="45.82173" lon="4.27367">
        <ele>607.792</ele>
        <time>2019-03-11T09:16:06Z</time>
      </trkpt>
      <trkpt lat="45.82178" lon="4.27364">
        <ele>607.989</ele>
        <time>2019-03-11T09:16:12Z</time>
      </trkpt>
      <trkpt lat="45.82184" lon="4.27359">
        <ele>608.586</ele>
        <time>2019-03-11T09:16:18Z</time>
      </trkpt>
      <trkpt lat="45.82189" lon="4.27353">
        <ele>608.593</ele>
        <time>2019-03-11T09:16:24Z</time>
      </trkpt>
      <trkpt lat="45.82195" lon="4.27347">
        <ele>608.557</ele>
        <time>2019-03-11T09:16:30Z</time>
      </trkpt>
      <trkpt lat="45.82199" lon="4.27343">
        <ele>608.294</ele>
        <time>2019-03-11T09:16:36Z</time>
      </trkpt>
      <trkpt lat="45.82205" lon="4.27338">
        <ele>608.95</ele>
        <time>2019-03-11T09:16:42Z</time>
      </trkpt>
      <trkpt lat="45.82211" lon="4.27335">
        <ele>609.456</ele>
        <time>2019-03-11T09:16:48Z</time>
      </trkpt>
      <trkpt lat="45.82217" lon="4.27331">
        <ele>610.331</ele>
        <time>2019-03-11T09:16:54Z</time>
      </trkpt>
      <trkpt lat="45.82223" lon="4.27326">
        <ele>610.737</ele>
        <time>2019-03-11T09:17:00Z</time>
      </trkpt>
      <trkpt lat="45.82229" lon="4.27323">
        <ele>610.647</ele>
        <time>2019-03-11T09:17:06Z</time>
      </trkpt>
      <trkpt lat="45.82228" lon="4.27321">
        <ele>610.554</ele>
        <time>2019-03-11T09:17:12Z</time>
      </trkpt>
      <trkpt lat="45.82224" lon="4.27319">
        <ele>610.242</ele>
        <time>2019-03-11T09:17:18Z</time>
      </trkpt>
      <trkpt lat="45.82224" lon="4.27318">
        <ele>609.166</ele>
        <time>2019-03-11T09:17:24Z</time>
      </trkpt>
      <trkpt lat="45.82228" lon="4.27318">
        <ele>608.508</ele>
        <time>2019-03-11T09:17:29Z</time>
      </trkpt>
      <trkpt lat="45.82233" lon="4.27316">
        <ele>607.976</ele>
        <time>2019-03-11T09:17:35Z</time>
      </trkpt>
      <trkpt lat="45.82238" lon="4.27315">
        <ele>607.566</ele>
        <time>2019-03-11T09:17:40Z</time>
      </trkpt>
      <trkpt lat="45.82244" lon="4.27313">
        <ele>607.326</ele>
        <time>2019-03-11T09:17:46Z</time>
      </trkpt>
      <trkpt lat="45.82248" lon="4.27314">
        <ele>607.179</ele>
        <time>2019-03-11T09:17:51Z</time>
      </trkpt>
      <trkpt lat="45.82252" lon="4.27314">
        <ele>607.417</ele>
        <time>2019-03-11T09:17:57Z</time>
      </trkpt>
      <trkpt lat="45.82254" lon="4.27314">
        <ele>607.589</ele>
        <time>2019-03-11T09:18:02Z</time>
      </trkpt>
      <trkpt lat="45.82256" lon="4.27315">
        <ele>607.693</ele>
        <time>2019-03-11T09:18:07Z</time>
      </trkpt>
      <trkpt lat="45.82258" lon="4.27316">
        <ele>607.796</ele>
        <time>2019-03-11T09:18:12Z</time>
      </trkpt>
      <trkpt lat="45.82259" lon="4.27316">
        <ele>608.176</ele>
        <time>2019-03-11T09:18:18Z</time>
      </trkpt>
      <trkpt lat="45.82259" lon="4.27317">
        <ele>608.538</ele>
        <time>2019-03-11T09:18:23Z</time>
      </trkpt>
      <trkpt lat="45.82261" lon="4.27322">
        <ele>609.503</ele>
        <time>2019-03-11T09:18:29Z</time>
      </trkpt>
      <trkpt lat="45.82265" lon="4.27329">
        <ele>610.224</ele>
        <time>2019-03-11T09:18:35Z</time>
      </trkpt>
      <trkpt lat="45.82269" lon="4.27334">
        <ele>610.524</ele>
        <time>2019-03-11T09:18:41Z</time>
      </trkpt>
      <trkpt lat="45.82272" lon="4.27341">
        <ele>610.736</ele>
        <time>2019-03-11T09:18:46Z</time>
      </trkpt>
      <trkpt lat="45.82276" lon="4.27345">
        <ele>611.063</ele>
        <time>2019-03-11T09:18:51Z</time>
      </trkpt>
      <trkpt lat="45.82278" lon="4.27351">
        <ele>611.435</ele>
        <time>2019-03-11T09:18:56Z</time>
      </trkpt>
      <trkpt lat="45.82283" lon="4.27356">
        <ele>611.286</ele>
        <time>2019-03-11T09:19:02Z</time>
      </trkpt>
      <trkpt lat="45.82287" lon="4.27361">
        <ele>611.179</ele>
        <time>2019-03-11T09:19:07Z</time>
      </trkpt>
      <trkpt lat="45.82293" lon="4.27369">
        <ele>611.468</ele>
        <time>2019-03-11T09:19:13Z</time>
      </trkpt>
      <trkpt lat="45.82298" lon="4.27374">
        <ele>611.549</ele>
        <time>2019-03-11T09:19:18Z</time>
      </trkpt>
      <trkpt lat="45.82301" lon="4.27381">
        <ele>611.371</ele>
        <time>2019-03-11T09:19:24Z</time>
      </trkpt>
      <trkpt lat="45.82305" lon="4.27388">
        <ele>611.102</ele>
        <time>2019-03-11T09:19:30Z</time>
      </trkpt>
      <trkpt lat="45.82312" lon="4.27395">
        <ele>611.147</ele>
        <time>2019-03-11T09:19:36Z</time>
      </trkpt>
      <trkpt lat="45.82317" lon="4.27399">
        <ele>611.348</ele>
        <time>2019-03-11T09:19:41Z</time>
      </trkpt>
      <trkpt lat="45.82324" lon="4.27402">
        <ele>611.141</ele>
        <time>2019-03-11T09:19:46Z</time>
      </trkpt>
      <trkpt lat="45.82329" lon="4.27407">
        <ele>610.878</ele>
        <time>2019-03-11T09:19:52Z</time>
      </trkpt>
      <trkpt lat="45.82335" lon="4.27411">
        <ele>610.284</ele>
        <time>2019-03-11T09:19:58Z</time>
      </trkpt>
      <trkpt lat="45.82339" lon="4.27414">
        <ele>609.65</ele>
        <time>2019-03-11T09:20:03Z</time>
      </trkpt>
      <trkpt lat="45.82345" lon="4.27417">
        <ele>608.369</ele>
        <time>2019-03-11T09:20:09Z</time>
      </trkpt>
      <trkpt lat="45.82349" lon="4.27418">
        <ele>607.418</ele>
        <time>2019-03-11T09:20:14Z</time>
      </trkpt>
      <trkpt lat="45.82351" lon="4.27417">
        <ele>607.047</ele>
        <time>2019-03-11T09:20:20Z</time>
      </trkpt>
      <trkpt lat="45.82353" lon="4.27417">
        <ele>606.73</ele>
        <time>2019-03-11T09:20:25Z</time>
      </trkpt>
      <trkpt lat="45.82353" lon="4.27417">
        <ele>605.985</ele>
        <time>2019-03-11T09:20:31Z</time>
      </trkpt>
      <trkpt lat="45.82351" lon="4.27415">
        <ele>605.483</ele>
        <time>2019-03-11T09:20:36Z</time>
      </trkpt>
      <trkpt lat="45.82349" lon="4.27413">
        <ele>604.776</ele>
        <time>2019-03-11T09:20:41Z</time>
      </trkpt>
      <trkpt lat="45.8235" lon="4.27411">
        <ele>604.116</ele>
        <time>2019-03-11T09:20:47Z</time>
      </trkpt>
      <trkpt lat="45.82349" lon="4.27411">
        <ele>603.644</ele>
        <time>2019-03-11T09:20:53Z</time>
      </trkpt>
      <trkpt lat="45.8235" lon="4.2741">
        <ele>603.462</ele>
        <time>2019-03-11T09:20:59Z</time>
      </trkpt>
      <trkpt lat="45.82351" lon="4.2741">
        <ele>603.352</ele>
        <time>2019-03-11T09:21:04Z</time>
      </trkpt>
      <trkpt lat="45.82351" lon="4.2741">
        <ele>603.315</ele>
        <time>2019-03-11T09:21:10Z</time>
      </trkpt>
      <trkpt lat="45.82351" lon="4.2741">
        <ele>603.331</ele>
        <time>2019-03-11T09:21:15Z</time>
      </trkpt>
      <trkpt lat="45.82351" lon="4.2741">
        <ele>603.357</ele>
        <time>2019-03-11T09:21:21Z</time>
      </trkpt>
      <trkpt lat="45.82351" lon="4.2741">
        <ele>603.35</ele>
        <time>2019-03-11T09:21:26Z</time>
      </trkpt>
      <trkpt lat="45.82351" lon="4.2741">
        <ele>603.324</ele>
        <time>2019-03-11T09:21:32Z</time>
      </trkpt>
      <trkpt lat="45.82351" lon="4.2741">
        <ele>603.34</ele>
        <time>2019-03-11T09:21:37Z</time>
      </trkpt>
      <trkpt lat="45.82351" lon="4.27411">
        <ele>603.392</ele>
        <time>2019-03-11T09:21:43Z</time>
      </trkpt>
      <trkpt lat="45.82351" lon="4.27411">
        <ele>603.361</ele>
        <time>2019-03-11T09:21:49Z</time>
      </trkpt>
      <trkpt lat="45.82351" lon="4.27411">
        <ele>603.358</ele>
        <time>2019-03-11T09:21:54Z</time>
      </trkpt>
      <trkpt lat="45.82351" lon="4.27411">
        <ele>603.416</ele>
        <time>2019-03-11T09:22:00Z</time>
      </trkpt>
      <trkpt lat="45.82351" lon="4.27411">
        <ele>603.298</ele>
        <time>2019-03-11T09:22:06Z</time>
      </trkpt>
      <trkpt lat="45.82351" lon="4.27411">
        <ele>603.266</ele>
        <time>2019-03-11T09:22:12Z</time>
      </trkpt>
      <trkpt lat="45.82351" lon="4.27411">
        <ele>603.269</ele>
        <time>2019-03-11T09:22:17Z</time>
      </trkpt>
      <trkpt lat="45.82354" lon="4.27415">
        <ele>603.18</ele>
        <time>2019-03-11T09:22:23Z</time>
      </trkpt>
      <trkpt lat="45.82361" lon="4.2742">
        <ele>602.984</ele>
        <time>2019-03-11T09:22:28Z</time>
      </trkpt>
      <trkpt lat="45.82364" lon="4.27426">
        <ele>602.752</ele>
        <time>2019-03-11T09:22:34Z</time>
      </trkpt>
      <trkpt lat="45.82367" lon="4.2744">
        <ele>602.628</ele>
        <time>2019-03-11T09:22:40Z</time>
      </trkpt>
      <trkpt lat="45.8237" lon="4.27446">
        <ele>601.83</ele>
        <time>2019-03-11T09:22:46Z</time>
      </trkpt>
      <trkpt lat="45.82369" lon="4.2745">
        <ele>600.98</ele>
        <time>2019-03-11T09:22:52Z</time>
      </trkpt>
      <trkpt lat="45.82368" lon="4.27456">
        <ele>599.516</ele>
        <time>2019-03-11T09:22:58Z</time>
      </trkpt>
      <trkpt lat="45.82367" lon="4.2746">
        <ele>598.73</ele>
        <time>2019-03-11T09:23:03Z</time>
      </trkpt>
      <trkpt lat="45.82367" lon="4.27462">
        <ele>598.298</ele>
        <time>2019-03-11T09:23:09Z</time>
      </trkpt>
      <trkpt lat="45.82369" lon="4.27468">
        <ele>596.871</ele>
        <time>2019-03-11T09:23:15Z</time>
      </trkpt>
      <trkpt lat="45.8237" lon="4.27472">
        <ele>596.053</ele>
        <time>2019-03-11T09:23:20Z</time>
      </trkpt>
      <trkpt lat="45.82372" lon="4.27486">
        <ele>595.084</ele>
        <time>2019-03-11T09:23:26Z</time>
      </trkpt>
      <trkpt lat="45.82375" lon="4.27495">
        <ele>594.708</ele>
        <time>2019-03-11T09:23:31Z</time>
      </trkpt>
      <trkpt lat="45.8238" lon="4.27506">
        <ele>594.412</ele>
        <time>2019-03-11T09:23:37Z</time>
      </trkpt>
      <trkpt lat="45.82381" lon="4.27514">
        <ele>594.078</ele>
        <time>2019-03-11T09:23:43Z</time>
      </trkpt>
      <trkpt lat="45.82381" lon="4.27524">
        <ele>593.969</ele>
        <time>2019-03-11T09:23:48Z</time>
      </trkpt>
      <trkpt lat="45.8238" lon="4.27535">
        <ele>593.518</ele>
        <time>2019-03-11T09:23:54Z</time>
      </trkpt>
      <trkpt lat="45.82379" lon="4.27543">
        <ele>593.292</ele>
        <time>2019-03-11T09:24:00Z</time>
      </trkpt>
      <trkpt lat="45.82376" lon="4.27553">
        <ele>593.713</ele>
        <time>2019-03-11T09:24:06Z</time>
      </trkpt>
      <trkpt lat="45.82375" lon="4.27564">
        <ele>594.399</ele>
        <time>2019-03-11T09:24:12Z</time>
      </trkpt>
      <trkpt lat="45.82374" lon="4.27573">
        <ele>595.23</ele>
        <time>2019-03-11T09:24:18Z</time>
      </trkpt>
      <trkpt lat="45.82372" lon="4.27579">
        <ele>596.107</ele>
        <time>2019-03-11T09:24:23Z</time>
      </trkpt>
      <trkpt lat="45.82371" lon="4.27585">
        <ele>597.031</ele>
        <time>2019-03-11T09:24:28Z</time>
      </trkpt>
      <trkpt lat="45.82368" lon="4.2759">
        <ele>597.112</ele>
        <time>2019-03-11T09:24:33Z</time>
      </trkpt>
      <trkpt lat="45.82365" lon="4.27597">
        <ele>596.673</ele>
        <time>2019-03-11T09:24:39Z</time>
      </trkpt>
      <trkpt lat="45.82364" lon="4.27603">
        <ele>596.844</ele>
        <time>2019-03-11T09:24:44Z</time>
      </trkpt>
      <trkpt lat="45.82362" lon="4.27611">
        <ele>597.095</ele>
        <time>2019-03-11T09:24:51Z</time>
      </trkpt>
      <trkpt lat="45.82358" lon="4.27616">
        <ele>597.196</ele>
        <time>2019-03-11T09:24:57Z</time>
      </trkpt>
      <trkpt lat="45.82352" lon="4.27621">
        <ele>597.011</ele>
        <time>2019-03-11T09:25:02Z</time>
      </trkpt>
      <trkpt lat="45.82346" lon="4.27626">
        <ele>596.917</ele>
        <time>2019-03-11T09:25:08Z</time>
      </trkpt>
      <trkpt lat="45.82343" lon="4.2763">
        <ele>596.787</ele>
        <time>2019-03-11T09:25:13Z</time>
      </trkpt>
      <trkpt lat="45.82339" lon="4.27638">
        <ele>596.554</ele>
        <time>2019-03-11T09:25:18Z</time>
      </trkpt>
      <trkpt lat="45.82335" lon="4.27644">
        <ele>596.659</ele>
        <time>2019-03-11T09:25:24Z</time>
      </trkpt>
      <trkpt lat="45.8233" lon="4.27652">
        <ele>597.085</ele>
        <time>2019-03-11T09:25:30Z</time>
      </trkpt>
      <trkpt lat="45.82327" lon="4.27657">
        <ele>597.339</ele>
        <time>2019-03-11T09:25:36Z</time>
      </trkpt>
      <trkpt lat="45.82323" lon="4.27665">
        <ele>597.574</ele>
        <time>2019-03-11T09:25:42Z</time>
      </trkpt>
      <trkpt lat="45.82321" lon="4.27671">
        <ele>597.614</ele>
        <time>2019-03-11T09:25:47Z</time>
      </trkpt>
      <trkpt lat="45.82319" lon="4.2768">
        <ele>597.873</ele>
        <time>2019-03-11T09:25:53Z</time>
      </trkpt>
      <trkpt lat="45.82317" lon="4.27688">
        <ele>598.39</ele>
        <time>2019-03-11T09:25:58Z</time>
      </trkpt>
      <trkpt lat="45.82316" lon="4.27695">
        <ele>598.887</ele>
        <time>2019-03-11T09:26:04Z</time>
      </trkpt>
      <trkpt lat="45.82316" lon="4.27703">
        <ele>599.137</ele>
        <time>2019-03-11T09:26:09Z</time>
      </trkpt>
      <trkpt lat="45.82316" lon="4.27715">
        <ele>599.302</ele>
        <time>2019-03-11T09:26:15Z</time>
      </trkpt>
      <trkpt lat="45.82316" lon="4.27725">
        <ele>599.738</ele>
        <time>2019-03-11T09:26:20Z</time>
      </trkpt>
      <trkpt lat="45.82318" lon="4.27735">
        <ele>600.329</ele>
        <time>2019-03-11T09:26:26Z</time>
      </trkpt>
      <trkpt lat="45.82319" lon="4.27742">
        <ele>600.671</ele>
        <time>2019-03-11T09:26:31Z</time>
      </trkpt>
      <trkpt lat="45.8232" lon="4.2775">
        <ele>601.094</ele>
        <time>2019-03-11T09:26:37Z</time>
      </trkpt>
      <trkpt lat="45.82319" lon="4.2776">
        <ele>601.776</ele>
        <time>2019-03-11T09:26:42Z</time>
      </trkpt>
      <trkpt lat="45.8232" lon="4.27772">
        <ele>602.617</ele>
        <time>2019-03-11T09:26:48Z</time>
      </trkpt>
      <trkpt lat="45.82321" lon="4.27778">
        <ele>603.033</ele>
        <time>2019-03-11T09:26:53Z</time>
      </trkpt>
      <trkpt lat="45.82322" lon="4.27785">
        <ele>602.925</ele>
        <time>2019-03-11T09:26:58Z</time>
      </trkpt>
      <trkpt lat="45.82325" lon="4.27794">
        <ele>602.406</ele>
        <time>2019-03-11T09:27:03Z</time>
      </trkpt>
      <trkpt lat="45.82326" lon="4.27804">
        <ele>601.898</ele>
        <time>2019-03-11T09:27:09Z</time>
      </trkpt>
      <trkpt lat="45.82326" lon="4.27814">
        <ele>601.541</ele>
        <time>2019-03-11T09:27:14Z</time>
      </trkpt>
      <trkpt lat="45.82327" lon="4.27824">
        <ele>601.11</ele>
        <time>2019-03-11T09:27:19Z</time>
      </trkpt>
      <trkpt lat="45.82329" lon="4.27834">
        <ele>600.388</ele>
        <time>2019-03-11T09:27:24Z</time>
      </trkpt>
      <trkpt lat="45.8233" lon="4.27842">
        <ele>599.63</ele>
        <time>2019-03-11T09:27:30Z</time>
      </trkpt>
      <trkpt lat="45.82331" lon="4.27852">
        <ele>599.187</ele>
        <time>2019-03-11T09:27:36Z</time>
      </trkpt>
      <trkpt lat="45.82332" lon="4.27865">
        <ele>598.741</ele>
        <time>2019-03-11T09:27:42Z</time>
      </trkpt>
      <trkpt lat="45.82331" lon="4.27874">
        <ele>598.418</ele>
        <time>2019-03-11T09:27:47Z</time>
      </trkpt>
      <trkpt lat="45.82332" lon="4.2788">
        <ele>597.909</ele>
        <time>2019-03-11T09:27:52Z</time>
      </trkpt>
      <trkpt lat="45.82333" lon="4.2789">
        <ele>597.243</ele>
        <time>2019-03-11T09:27:57Z</time>
      </trkpt>
      <trkpt lat="45.82333" lon="4.27903">
        <ele>596.183</ele>
        <time>2019-03-11T09:28:03Z</time>
      </trkpt>
      <trkpt lat="45.82332" lon="4.27911">
        <ele>595.133</ele>
        <time>2019-03-11T09:28:08Z</time>
      </trkpt>
      <trkpt lat="45.82334" lon="4.27919">
        <ele>594.662</ele>
        <time>2019-03-11T09:28:13Z</time>
      </trkpt>
      <trkpt lat="45.82336" lon="4.27929">
        <ele>594.457</ele>
        <time>2019-03-11T09:28:19Z</time>
      </trkpt>
      <trkpt lat="45.82335" lon="4.27937">
        <ele>594.338</ele>
        <time>2019-03-11T09:28:25Z</time>
      </trkpt>
      <trkpt lat="45.82336" lon="4.27944">
        <ele>594.184</ele>
        <time>2019-03-11T09:28:30Z</time>
      </trkpt>
      <trkpt lat="45.82336" lon="4.27961">
        <ele>594.019</ele>
        <time>2019-03-11T09:28:35Z</time>
      </trkpt>
      <trkpt lat="45.82335" lon="4.27969">
        <ele>594.24</ele>
        <time>2019-03-11T09:28:41Z</time>
      </trkpt>
      <trkpt lat="45.82335" lon="4.27979">
        <ele>594.444</ele>
        <time>2019-03-11T09:28:47Z</time>
      </trkpt>
      <trkpt lat="45.82329" lon="4.27989">
        <ele>594.374</ele>
        <time>2019-03-11T09:28:53Z</time>
      </trkpt>
      <trkpt lat="45.82323" lon="4.27993">
        <ele>593.835</ele>
        <time>2019-03-11T09:28:58Z</time>
      </trkpt>
      <trkpt lat="45.82319" lon="4.27994">
        <ele>593.355</ele>
        <time>2019-03-11T09:29:04Z</time>
      </trkpt>
      <trkpt lat="45.82313" lon="4.27995">
        <ele>592.889</ele>
        <time>2019-03-11T09:29:10Z</time>
      </trkpt>
      <trkpt lat="45.82308" lon="4.27996">
        <ele>592.691</ele>
        <time>2019-03-11T09:29:16Z</time>
      </trkpt>
      <trkpt lat="45.82302" lon="4.27998">
        <ele>592.772</ele>
        <time>2019-03-11T09:29:21Z</time>
      </trkpt>
      <trkpt lat="45.82294" lon="4.28003">
        <ele>592.956</ele>
        <time>2019-03-11T09:29:27Z</time>
      </trkpt>
      <trkpt lat="45.8229" lon="4.28006">
        <ele>593.56</ele>
        <time>2019-03-11T09:29:32Z</time>
      </trkpt>
      <trkpt lat="45.82287" lon="4.28008">
        <ele>594.368</ele>
        <time>2019-03-11T09:29:38Z</time>
      </trkpt>
      <trkpt lat="45.82282" lon="4.2801">
        <ele>594.896</ele>
        <time>2019-03-11T09:29:44Z</time>
      </trkpt>
      <trkpt lat="45.82279" lon="4.28011">
        <ele>595.234</ele>
        <time>2019-03-11T09:29:49Z</time>
      </trkpt>
      <trkpt lat="45.82273" lon="4.28016">
        <ele>595.246</ele>
        <time>2019-03-11T09:29:55Z</time>
      </trkpt>
      <trkpt lat="45.8227" lon="4.28018">
        <ele>595.23</ele>
        <time>2019-03-11T09:30:00Z</time>
      </trkpt>
      <trkpt lat="45.82266" lon="4.28023">
        <ele>595.4</ele>
        <time>2019-03-11T09:30:06Z</time>
      </trkpt>
      <trkpt lat="45.82261" lon="4.28025">
        <ele>595.851</ele>
        <time>2019-03-11T09:30:11Z</time>
      </trkpt>
      <trkpt lat="45.82252" lon="4.28032">
        <ele>596.283</ele>
        <time>2019-03-11T09:30:17Z</time>
      </trkpt>
      <trkpt lat="45.82252" lon="4.28035">
        <ele>596.553</ele>
        <time>2019-03-11T09:30:23Z</time>
      </trkpt>
      <trkpt lat="45.82254" lon="4.28043">
        <ele>597.235</ele>
        <time>2019-03-11T09:30:29Z</time>
      </trkpt>
      <trkpt lat="45.82256" lon="4.28048">
        <ele>598.675</ele>
        <time>2019-03-11T09:30:35Z</time>
      </trkpt>
      <trkpt lat="45.82256" lon="4.28053">
        <ele>600.595</ele>
        <time>2019-03-11T09:30:41Z</time>
      </trkpt>
      <trkpt lat="45.82255" lon="4.28061">
        <ele>602.29</ele>
        <time>2019-03-11T09:30:47Z</time>
      </trkpt>
      <trkpt lat="45.82254" lon="4.28071">
        <ele>603.411</ele>
        <time>2019-03-11T09:30:53Z</time>
      </trkpt>
      <trkpt lat="45.82257" lon="4.28079">
        <ele>604.562</ele>
        <time>2019-03-11T09:30:59Z</time>
      </trkpt>
      <trkpt lat="45.82255" lon="4.28088">
        <ele>605.761</ele>
        <time>2019-03-11T09:31:05Z</time>
      </trkpt>
      <trkpt lat="45.82255" lon="4.28094">
        <ele>606.813</ele>
        <time>2019-03-11T09:31:10Z</time>
      </trkpt>
      <trkpt lat="45.82255" lon="4.281">
        <ele>608.255</ele>
        <time>2019-03-11T09:31:16Z</time>
      </trkpt>
      <trkpt lat="45.82255" lon="4.28108">
        <ele>609.557</ele>
        <time>2019-03-11T09:31:21Z</time>
      </trkpt>
      <trkpt lat="45.82253" lon="4.28115">
        <ele>610.977</ele>
        <time>2019-03-11T09:31:27Z</time>
      </trkpt>
      <trkpt lat="45.82253" lon="4.28124">
        <ele>612.31</ele>
        <time>2019-03-11T09:31:32Z</time>
      </trkpt>
      <trkpt lat="45.82251" lon="4.2813">
        <ele>613.699</ele>
        <time>2019-03-11T09:31:37Z</time>
      </trkpt>
      <trkpt lat="45.82251" lon="4.28137">
        <ele>614.771</ele>
        <time>2019-03-11T09:31:42Z</time>
      </trkpt>
      <trkpt lat="45.82253" lon="4.28146">
        <ele>615.726</ele>
        <time>2019-03-11T09:31:47Z</time>
      </trkpt>
      <trkpt lat="45.82252" lon="4.28151">
        <ele>617.153</ele>
        <time>2019-03-11T09:31:53Z</time>
      </trkpt>
      <trkpt lat="45.8225" lon="4.28162">
        <ele>618.496</ele>
        <time>2019-03-11T09:31:59Z</time>
      </trkpt>
      <trkpt lat="45.82248" lon="4.28169">
        <ele>619.852</ele>
        <time>2019-03-11T09:32:05Z</time>
      </trkpt>
      <trkpt lat="45.82248" lon="4.28182">
        <ele>621.017</ele>
        <time>2019-03-11T09:32:11Z</time>
      </trkpt>
      <trkpt lat="45.82247" lon="4.28189">
        <ele>621.678</ele>
        <time>2019-03-11T09:32:16Z</time>
      </trkpt>
      <trkpt lat="45.82246" lon="4.28195">
        <ele>622.146</ele>
        <time>2019-03-11T09:32:21Z</time>
      </trkpt>
      <trkpt lat="45.82243" lon="4.28206">
        <ele>622.732</ele>
        <time>2019-03-11T09:32:27Z</time>
      </trkpt>
      <trkpt lat="45.82241" lon="4.28218">
        <ele>623.875</ele>
        <time>2019-03-11T09:32:33Z</time>
      </trkpt>
      <trkpt lat="45.8224" lon="4.28226">
        <ele>624.914</ele>
        <time>2019-03-11T09:32:38Z</time>
      </trkpt>
      <trkpt lat="45.82238" lon="4.28235">
        <ele>625.598</ele>
        <time>2019-03-11T09:32:43Z</time>
      </trkpt>
      <trkpt lat="45.82237" lon="4.28243">
        <ele>626.349</ele>
        <time>2019-03-11T09:32:49Z</time>
      </trkpt>
      <trkpt lat="45.82238" lon="4.28252">
        <ele>626.786</ele>
        <time>2019-03-11T09:32:55Z</time>
      </trkpt>
      <trkpt lat="45.82239" lon="4.28262">
        <ele>627.392</ele>
        <time>2019-03-11T09:33:00Z</time>
      </trkpt>
      <trkpt lat="45.8224" lon="4.28274">
        <ele>627.857</ele>
        <time>2019-03-11T09:33:06Z</time>
      </trkpt>
      <trkpt lat="45.82242" lon="4.28282">
        <ele>628.058</ele>
        <time>2019-03-11T09:33:11Z</time>
      </trkpt>
      <trkpt lat="45.82242" lon="4.28291">
        <ele>628.12</ele>
        <time>2019-03-11T09:33:17Z</time>
      </trkpt>
      <trkpt lat="45.82244" lon="4.28301">
        <ele>627.77</ele>
        <time>2019-03-11T09:33:22Z</time>
      </trkpt>
      <trkpt lat="45.82245" lon="4.28315">
        <ele>627.18</ele>
        <time>2019-03-11T09:33:28Z</time>
      </trkpt>
      <trkpt lat="45.82244" lon="4.28321">
        <ele>626.614</ele>
        <time>2019-03-11T09:33:33Z</time>
      </trkpt>
      <trkpt lat="45.82244" lon="4.2832">
        <ele>625.865</ele>
        <time>2019-03-11T09:33:39Z</time>
      </trkpt>
      <trkpt lat="45.82245" lon="4.28318">
        <ele>625.323</ele>
        <time>2019-03-11T09:33:45Z</time>
      </trkpt>
      <trkpt lat="45.82246" lon="4.28319">
        <ele>625.051</ele>
        <time>2019-03-11T09:33:50Z</time>
      </trkpt>
      <trkpt lat="45.82246" lon="4.28321">
        <ele>624.063</ele>
        <time>2019-03-11T09:33:56Z</time>
      </trkpt>
      <trkpt lat="45.82245" lon="4.28318">
        <ele>623.883</ele>
        <time>2019-03-11T09:34:01Z</time>
      </trkpt>
      <trkpt lat="45.82246" lon="4.28317">
        <ele>623.779</ele>
        <time>2019-03-11T09:34:06Z</time>
      </trkpt>
      <trkpt lat="45.82247" lon="4.28317">
        <ele>623.631</ele>
        <time>2019-03-11T09:34:11Z</time>
      </trkpt>
      <trkpt lat="45.82246" lon="4.28319">
        <ele>623.068</ele>
        <time>2019-03-11T09:34:17Z</time>
      </trkpt>
      <trkpt lat="45.82246" lon="4.28319">
        <ele>622.871</ele>
        <time>2019-03-11T09:34:22Z</time>
      </trkpt>
      <trkpt lat="45.82243" lon="4.28319">
        <ele>622.788</ele>
        <time>2019-03-11T09:34:27Z</time>
      </trkpt>
      <trkpt lat="45.82243" lon="4.28319">
        <ele>622.747</ele>
        <time>2019-03-11T09:34:33Z</time>
      </trkpt>
      <trkpt lat="45.82243" lon="4.28319">
        <ele>622.711</ele>
        <time>2019-03-11T09:34:39Z</time>
      </trkpt>
      <trkpt lat="45.82243" lon="4.28319">
        <ele>622.673</ele>
        <time>2019-03-11T09:34:44Z</time>
      </trkpt>
      <trkpt lat="45.82243" lon="4.28319">
        <ele>622.487</ele>
        <time>2019-03-11T09:34:50Z</time>
      </trkpt>
      <trkpt lat="45.82243" lon="4.28319">
        <ele>622.196</ele>
        <time>2019-03-11T09:34:55Z</time>
      </trkpt>
      <trkpt lat="45.82243" lon="4.28319">
        <ele>621.895</ele>
        <time>2019-03-11T09:35:00Z</time>
      </trkpt>
      <trkpt lat="45.82243" lon="4.28319">
        <ele>621.692</ele>
        <time>2019-03-11T09:35:06Z</time>
      </trkpt>
      <trkpt lat="45.82243" lon="4.28319">
        <ele>621.61</ele>
        <time>2019-03-11T09:35:11Z</time>
      </trkpt>
      <trkpt lat="45.82243" lon="4.28319">
        <ele>621.556</ele>
        <time>2019-03-11T09:35:17Z</time>
      </trkpt>
      <trkpt lat="45.82243" lon="4.28319">
        <ele>621.657</ele>
        <time>2019-03-11T09:35:22Z</time>
      </trkpt>
      <trkpt lat="45.82243" lon="4.28319">
        <ele>622.087</ele>
        <time>2019-03-11T09:35:28Z</time>
      </trkpt>
      <trkpt lat="45.82243" lon="4.28319">
        <ele>622.231</ele>
        <time>2019-03-11T09:35:34Z</time>
      </trkpt>
      <trkpt lat="45.82245" lon="4.28317">
        <ele>622.516</ele>
        <time>2019-03-11T09:35:39Z</time>
      </trkpt>
      <trkpt lat="45.82246" lon="4.28309">
        <ele>622.461</ele>
        <time>2019-03-11T09:35:45Z</time>
      </trkpt>
      <trkpt lat="45.82245" lon="4.28298">
        <ele>622.3</ele>
        <time>2019-03-11T09:35:51Z</time>
      </trkpt>
      <trkpt lat="45.82243" lon="4.28287">
        <ele>622.758</ele>
        <time>2019-03-11T09:35:57Z</time>
      </trkpt>
      <trkpt lat="45.82242" lon="4.2828">
        <ele>623.068</ele>
        <time>2019-03-11T09:36:02Z</time>
      </trkpt>
      <trkpt lat="45.8224" lon="4.28275">
        <ele>623.053</ele>
        <time>2019-03-11T09:36:07Z</time>
      </trkpt>
      <trkpt lat="45.82238" lon="4.28262">
        <ele>623.616</ele>
        <time>2019-03-11T09:36:13Z</time>
      </trkpt>
      <trkpt lat="45.82238" lon="4.2826">
        <ele>623.829</ele>
        <time>2019-03-11T09:36:19Z</time>
      </trkpt>
      <trkpt lat="45.8224" lon="4.28264">
        <ele>623.343</ele>
        <time>2019-03-11T09:36:24Z</time>
      </trkpt>
      <trkpt lat="45.82241" lon="4.28269">
        <ele>623.426</ele>
        <time>2019-03-11T09:36:30Z</time>
      </trkpt>
      <trkpt lat="45.8224" lon="4.28273">
        <ele>624.037</ele>
        <time>2019-03-11T09:36:35Z</time>
      </trkpt>
      <trkpt lat="45.82241" lon="4.2828">
        <ele>624.813</ele>
        <time>2019-03-11T09:36:41Z</time>
      </trkpt>
      <trkpt lat="45.82242" lon="4.28292">
        <ele>625.452</ele>
        <time>2019-03-11T09:36:47Z</time>
      </trkpt>
      <trkpt lat="45.82245" lon="4.283">
        <ele>625.963</ele>
        <time>2019-03-11T09:36:53Z</time>
      </trkpt>
      <trkpt lat="45.82247" lon="4.2831">
        <ele>626.217</ele>
        <time>2019-03-11T09:36:59Z</time>
      </trkpt>
      <trkpt lat="45.82248" lon="4.28321">
        <ele>625.918</ele>
        <time>2019-03-11T09:37:04Z</time>
      </trkpt>
      <trkpt lat="45.82249" lon="4.28328">
        <ele>625.931</ele>
        <time>2019-03-11T09:37:09Z</time>
      </trkpt>
      <trkpt lat="45.82251" lon="4.28339">
        <ele>625.929</ele>
        <time>2019-03-11T09:37:15Z</time>
      </trkpt>
      <trkpt lat="45.82251" lon="4.28349">
        <ele>625.894</ele>
        <time>2019-03-11T09:37:21Z</time>
      </trkpt>
      <trkpt lat="45.82251" lon="4.28359">
        <ele>626.061</ele>
        <time>2019-03-11T09:37:26Z</time>
      </trkpt>
      <trkpt lat="45.8225" lon="4.28366">
        <ele>626.059</ele>
        <time>2019-03-11T09:37:31Z</time>
      </trkpt>
      <trkpt lat="45.82248" lon="4.28375">
        <ele>625.856</ele>
        <time>2019-03-11T09:37:36Z</time>
      </trkpt>
      <trkpt lat="45.82248" lon="4.28387">
        <ele>625.689</ele>
        <time>2019-03-11T09:37:42Z</time>
      </trkpt>
      <trkpt lat="45.82247" lon="4.28399">
        <ele>625.716</ele>
        <time>2019-03-11T09:37:48Z</time>
      </trkpt>
      <trkpt lat="45.82245" lon="4.28409">
        <ele>625.904</ele>
        <time>2019-03-11T09:37:54Z</time>
      </trkpt>
      <trkpt lat="45.82243" lon="4.28414">
        <ele>625.645</ele>
        <time>2019-03-11T09:37:59Z</time>
      </trkpt>
      <trkpt lat="45.82238" lon="4.28419">
        <ele>625.432</ele>
        <time>2019-03-11T09:38:05Z</time>
      </trkpt>
      <trkpt lat="45.82233" lon="4.28418">
        <ele>624.746</ele>
        <time>2019-03-11T09:38:11Z</time>
      </trkpt>
      <trkpt lat="45.82228" lon="4.28416">
        <ele>624.384</ele>
        <time>2019-03-11T09:38:16Z</time>
      </trkpt>
      <trkpt lat="45.82223" lon="4.28412">
        <ele>624.754</ele>
        <time>2019-03-11T09:38:22Z</time>
      </trkpt>
      <trkpt lat="45.82218" lon="4.28412">
        <ele>625.008</ele>
        <time>2019-03-11T09:38:27Z</time>
      </trkpt>
      <trkpt lat="45.82213" lon="4.28414">
        <ele>625.426</ele>
        <time>2019-03-11T09:38:33Z</time>
      </trkpt>
      <trkpt lat="45.82206" lon="4.28416">
        <ele>625.673</ele>
        <time>2019-03-11T09:38:39Z</time>
      </trkpt>
      <trkpt lat="45.82202" lon="4.28419">
        <ele>625.752</ele>
        <time>2019-03-11T09:38:45Z</time>
      </trkpt>
      <trkpt lat="45.82198" lon="4.2842">
        <ele>626.088</ele>
        <time>2019-03-11T09:38:50Z</time>
      </trkpt>
      <trkpt lat="45.82192" lon="4.28422">
        <ele>626.409</ele>
        <time>2019-03-11T09:38:56Z</time>
      </trkpt>
      <trkpt lat="45.82188" lon="4.28425">
        <ele>626.347</ele>
        <time>2019-03-11T09:39:02Z</time>
      </trkpt>
      <trkpt lat="45.82182" lon="4.28429">
        <ele>626.493</ele>
        <time>2019-03-11T09:39:08Z</time>
      </trkpt>
      <trkpt lat="45.82177" lon="4.28435">
        <ele>626.718</ele>
        <time>2019-03-11T09:39:14Z</time>
      </trkpt>
      <trkpt lat="45.82173" lon="4.28442">
        <ele>627.085</ele>
        <time>2019-03-11T09:39:20Z</time>
      </trkpt>
      <trkpt lat="45.8217" lon="4.28451">
        <ele>627.648</ele>
        <time>2019-03-11T09:39:26Z</time>
      </trkpt>
      <trkpt lat="45.82167" lon="4.28457">
        <ele>628.234</ele>
        <time>2019-03-11T09:39:32Z</time>
      </trkpt>
      <trkpt lat="45.82165" lon="4.28465">
        <ele>629.03</ele>
        <time>2019-03-11T09:39:38Z</time>
      </trkpt>
      <trkpt lat="45.82164" lon="4.28473">
        <ele>629.83</ele>
        <time>2019-03-11T09:39:43Z</time>
      </trkpt>
      <trkpt lat="45.82162" lon="4.2848">
        <ele>630.499</ele>
        <time>2019-03-11T09:39:48Z</time>
      </trkpt>
      <trkpt lat="45.82161" lon="4.28489">
        <ele>631.161</ele>
        <time>2019-03-11T09:39:54Z</time>
      </trkpt>
      <trkpt lat="45.8216" lon="4.28498">
        <ele>632.175</ele>
        <time>2019-03-11T09:40:00Z</time>
      </trkpt>
      <trkpt lat="45.82159" lon="4.28505">
        <ele>632.914</ele>
        <time>2019-03-11T09:40:06Z</time>
      </trkpt>
      <trkpt lat="45.8216" lon="4.2851">
        <ele>633.737</ele>
        <time>2019-03-11T09:40:11Z</time>
      </trkpt>
      <trkpt lat="45.8216" lon="4.28517">
        <ele>634.189</ele>
        <time>2019-03-11T09:40:16Z</time>
      </trkpt>
      <trkpt lat="45.82159" lon="4.28526">
        <ele>634.836</ele>
        <time>2019-03-11T09:40:22Z</time>
      </trkpt>
      <trkpt lat="45.82158" lon="4.28537">
        <ele>635.804</ele>
        <time>2019-03-11T09:40:28Z</time>
      </trkpt>
      <trkpt lat="45.82158" lon="4.28545">
        <ele>636.139</ele>
        <time>2019-03-11T09:40:34Z</time>
      </trkpt>
      <trkpt lat="45.82159" lon="4.28553">
        <ele>636.397</ele>
        <time>2019-03-11T09:40:39Z</time>
      </trkpt>
      <trkpt lat="45.82159" lon="4.28564">
        <ele>636.882</ele>
        <time>2019-03-11T09:40:45Z</time>
      </trkpt>
      <trkpt lat="45.82159" lon="4.28572">
        <ele>637.104</ele>
        <time>2019-03-11T09:40:50Z</time>
      </trkpt>
      <trkpt lat="45.8216" lon="4.28582">
        <ele>637.596</ele>
        <time>2019-03-11T09:40:56Z</time>
      </trkpt>
      <trkpt lat="45.82161" lon="4.28589">
        <ele>637.949</ele>
        <time>2019-03-11T09:41:01Z</time>
      </trkpt>
      <trkpt lat="45.82162" lon="4.28601">
        <ele>638.064</ele>
        <time>2019-03-11T09:41:07Z</time>
      </trkpt>
      <trkpt lat="45.82163" lon="4.28608">
        <ele>638.527</ele>
        <time>2019-03-11T09:41:12Z</time>
      </trkpt>
      <trkpt lat="45.82166" lon="4.28619">
        <ele>639.065</ele>
        <time>2019-03-11T09:41:18Z</time>
      </trkpt>
      <trkpt lat="45.82169" lon="4.28626">
        <ele>639.619</ele>
        <time>2019-03-11T09:41:23Z</time>
      </trkpt>
      <trkpt lat="45.8217" lon="4.2863">
        <ele>640.058</ele>
        <time>2019-03-11T09:41:29Z</time>
      </trkpt>
      <trkpt lat="45.82171" lon="4.28631">
        <ele>640.736</ele>
        <time>2019-03-11T09:41:35Z</time>
      </trkpt>
      <trkpt lat="45.82171" lon="4.28633">
        <ele>641.36</ele>
        <time>2019-03-11T09:41:41Z</time>
      </trkpt>
      <trkpt lat="45.82171" lon="4.28635">
        <ele>641.407</ele>
        <time>2019-03-11T09:41:46Z</time>
      </trkpt>
      <trkpt lat="45.8217" lon="4.28635">
        <ele>641.597</ele>
        <time>2019-03-11T09:41:52Z</time>
      </trkpt>
      <trkpt lat="45.82171" lon="4.28635">
        <ele>642.02</ele>
        <time>2019-03-11T09:41:57Z</time>
      </trkpt>
      <trkpt lat="45.82171" lon="4.28634">
        <ele>642.198</ele>
        <time>2019-03-11T09:42:02Z</time>
      </trkpt>
      <trkpt lat="45.82171" lon="4.28633">
        <ele>642.561</ele>
        <time>2019-03-11T09:42:08Z</time>
      </trkpt>
      <trkpt lat="45.82168" lon="4.28632">
        <ele>642.725</ele>
        <time>2019-03-11T09:42:14Z</time>
      </trkpt>
      <trkpt lat="45.82167" lon="4.28632">
        <ele>642.928</ele>
        <time>2019-03-11T09:42:19Z</time>
      </trkpt>
      <trkpt lat="45.82167" lon="4.28634">
        <ele>643.019</ele>
        <time>2019-03-11T09:42:25Z</time>
      </trkpt>
      <trkpt lat="45.82168" lon="4.28634">
        <ele>643.515</ele>
        <time>2019-03-11T09:42:30Z</time>
      </trkpt>
      <trkpt lat="45.82168" lon="4.28638">
        <ele>644.256</ele>
        <time>2019-03-11T09:42:36Z</time>
      </trkpt>
      <trkpt lat="45.8217" lon="4.28639">
        <ele>644.543</ele>
        <time>2019-03-11T09:42:41Z</time>
      </trkpt>
      <trkpt lat="45.8217" lon="4.28636">
        <ele>644.605</ele>
        <time>2019-03-11T09:42:47Z</time>
      </trkpt>
      <trkpt lat="45.82171" lon="4.28635">
        <ele>644.244</ele>
        <time>2019-03-11T09:42:52Z</time>
      </trkpt>
      <trkpt lat="45.82172" lon="4.28636">
        <ele>644.261</ele>
        <time>2019-03-11T09:42:58Z</time>
      </trkpt>
      <trkpt lat="45.82176" lon="4.28637">
        <ele>644.491</ele>
        <time>2019-03-11T09:43:04Z</time>
      </trkpt>
      <trkpt lat="45.82182" lon="4.28637">
        <ele>644.501</ele>
        <time>2019-03-11T09:43:10Z</time>
      </trkpt>
      <trkpt lat="45.82189" lon="4.28637">
        <ele>644.618</ele>
        <time>2019-03-11T09:43:15Z</time>
      </trkpt>
      <trkpt lat="45.82196" lon="4.28638">
        <ele>644.932</ele>
        <time>2019-03-11T09:43:21Z</time>
      </trkpt>
      <trkpt lat="45.82202" lon="4.28639">
        <ele>645.438</ele>
        <time>2019-03-11T09:43:27Z</time>
      </trkpt>
      <trkpt lat="45.82206" lon="4.2864">
        <ele>645.765</ele>
        <time>2019-03-11T09:43:33Z</time>
      </trkpt>
      <trkpt lat="45.8221" lon="4.28641">
        <ele>646.11</ele>
        <time>2019-03-11T09:43:38Z</time>
      </trkpt>
      <trkpt lat="45.82217" lon="4.28643">
        <ele>646.685</ele>
        <time>2019-03-11T09:43:44Z</time>
      </trkpt>
      <trkpt lat="45.82222" lon="4.28645">
        <ele>647.166</ele>
        <time>2019-03-11T09:43:49Z</time>
      </trkpt>
      <trkpt lat="45.8223" lon="4.28647">
        <ele>647.809</ele>
        <time>2019-03-11T09:43:55Z</time>
      </trkpt>
      <trkpt lat="45.82236" lon="4.2865">
        <ele>648.218</ele>
        <time>2019-03-11T09:44:00Z</time>
      </trkpt>
      <trkpt lat="45.82242" lon="4.28653">
        <ele>648.658</ele>
        <time>2019-03-11T09:44:05Z</time>
      </trkpt>
      <trkpt lat="45.82248" lon="4.28655">
        <ele>649.247</ele>
        <time>2019-03-11T09:44:11Z</time>
      </trkpt>
      <trkpt lat="45.82253" lon="4.28657">
        <ele>649.407</ele>
        <time>2019-03-11T09:44:16Z</time>
      </trkpt>
      <trkpt lat="45.82259" lon="4.28663">
        <ele>649.478</ele>
        <time>2019-03-11T09:44:22Z</time>
      </trkpt>
      <trkpt lat="45.82264" lon="4.28665">
        <ele>649.565</ele>
        <time>2019-03-11T09:44:27Z</time>
      </trkpt>
      <trkpt lat="45.82271" lon="4.2867">
        <ele>650.061</ele>
        <time>2019-03-11T09:44:33Z</time>
      </trkpt>
      <trkpt lat="45.82276" lon="4.28673">
        <ele>650.568</ele>
        <time>2019-03-11T09:44:38Z</time>
      </trkpt>
      <trkpt lat="45.82284" lon="4.28676">
        <ele>651.319</ele>
        <time>2019-03-11T09:44:44Z</time>
      </trkpt>
      <trkpt lat="45.82289" lon="4.2868">
        <ele>651.811</ele>
        <time>2019-03-11T09:44:49Z</time>
      </trkpt>
      <trkpt lat="45.82294" lon="4.28683">
        <ele>652.305</ele>
        <time>2019-03-11T09:44:55Z</time>
      </trkpt>
      <trkpt lat="45.823" lon="4.28687">
        <ele>652.675</ele>
        <time>2019-03-11T09:45:00Z</time>
      </trkpt>
      <trkpt lat="45.82305" lon="4.2869">
        <ele>652.951</ele>
        <time>2019-03-11T09:45:05Z</time>
      </trkpt>
      <trkpt lat="45.82311" lon="4.28695">
        <ele>653.287</ele>
        <time>2019-03-11T09:45:11Z</time>
      </trkpt>
      <trkpt lat="45.82315" lon="4.28698">
        <ele>653.294</ele>
        <time>2019-03-11T09:45:16Z</time>
      </trkpt>
      <trkpt lat="45.82322" lon="4.28702">
        <ele>653.506</ele>
        <time>2019-03-11T09:45:22Z</time>
      </trkpt>
      <trkpt lat="45.82327" lon="4.28705">
        <ele>653.895</ele>
        <time>2019-03-11T09:45:27Z</time>
      </trkpt>
      <trkpt lat="45.82328" lon="4.28708">
        <ele>654.348</ele>
        <time>2019-03-11T09:45:33Z</time>
      </trkpt>
      <trkpt lat="45.82329" lon="4.28708">
        <ele>654.808</ele>
        <time>2019-03-11T09:45:38Z</time>
      </trkpt>
      <trkpt lat="45.82327" lon="4.28706">
        <ele>655.351</ele>
        <time>2019-03-11T09:45:44Z</time>
      </trkpt>
      <trkpt lat="45.82329" lon="4.2871">
        <ele>655.491</ele>
        <time>2019-03-11T09:45:49Z</time>
      </trkpt>
      <trkpt lat="45.82327" lon="4.28714">
        <ele>655.027</ele>
        <time>2019-03-11T09:45:55Z</time>
      </trkpt>
      <trkpt lat="45.82323" lon="4.28716">
        <ele>654.703</ele>
        <time>2019-03-11T09:46:01Z</time>
      </trkpt>
      <trkpt lat="45.82317" lon="4.2872">
        <ele>654.611</ele>
        <time>2019-03-11T09:46:07Z</time>
      </trkpt>
      <trkpt lat="45.82312" lon="4.28725">
        <ele>654.651</ele>
        <time>2019-03-11T09:46:12Z</time>
      </trkpt>
      <trkpt lat="45.82309" lon="4.28733">
        <ele>654.96</ele>
        <time>2019-03-11T09:46:18Z</time>
      </trkpt>
      <trkpt lat="45.82312" lon="4.28734">
        <ele>654.964</ele>
        <time>2019-03-11T09:46:23Z</time>
      </trkpt>
      <trkpt lat="45.82319" lon="4.28736">
        <ele>655.523</ele>
        <time>2019-03-11T09:46:29Z</time>
      </trkpt>
      <trkpt lat="45.82324" lon="4.28738">
        <ele>655.895</ele>
        <time>2019-03-11T09:46:34Z</time>
      </trkpt>
      <trkpt lat="45.82329" lon="4.28741">
        <ele>656.315</ele>
        <time>2019-03-11T09:46:40Z</time>
      </trkpt>
      <trkpt lat="45.82334" lon="4.28744">
        <ele>656.941</ele>
        <time>2019-03-11T09:46:46Z</time>
      </trkpt>
      <trkpt lat="45.82337" lon="4.28747">
        <ele>657.364</ele>
        <time>2019-03-11T09:46:51Z</time>
      </trkpt>
      <trkpt lat="45.82341" lon="4.28753">
        <ele>657.726</ele>
        <time>2019-03-11T09:46:57Z</time>
      </trkpt>
      <trkpt lat="45.82345" lon="4.28757">
        <ele>657.657</ele>
        <time>2019-03-11T09:47:03Z</time>
      </trkpt>
      <trkpt lat="45.82351" lon="4.28762">
        <ele>657.255</ele>
        <time>2019-03-11T09:47:09Z</time>
      </trkpt>
      <trkpt lat="45.82355" lon="4.28766">
        <ele>657.504</ele>
        <time>2019-03-11T09:47:15Z</time>
      </trkpt>
      <trkpt lat="45.82361" lon="4.2877">
        <ele>658.235</ele>
        <time>2019-03-11T09:47:21Z</time>
      </trkpt>
      <trkpt lat="45.82365" lon="4.28772">
        <ele>658.775</ele>
        <time>2019-03-11T09:47:27Z</time>
      </trkpt>
      <trkpt lat="45.8237" lon="4.28777">
        <ele>659.222</ele>
        <time>2019-03-11T09:47:32Z</time>
      </trkpt>
      <trkpt lat="45.82375" lon="4.28781">
        <ele>659.499</ele>
        <time>2019-03-11T09:47:38Z</time>
      </trkpt>
      <trkpt lat="45.82381" lon="4.28786">
        <ele>659.565</ele>
        <time>2019-03-11T09:47:43Z</time>
      </trkpt>
      <trkpt lat="45.82386" lon="4.28788">
        <ele>659.71</ele>
        <time>2019-03-11T09:47:48Z</time>
      </trkpt>
      <trkpt lat="45.82392" lon="4.28789">
        <ele>660.007</ele>
        <time>2019-03-11T09:47:53Z</time>
      </trkpt>
      <trkpt lat="45.82398" lon="4.28791">
        <ele>660.538</ele>
        <time>2019-03-11T09:47:58Z</time>
      </trkpt>
      <trkpt lat="45.82403" lon="4.28794">
        <ele>660.788</ele>
        <time>2019-03-11T09:48:04Z</time>
      </trkpt>
      <trkpt lat="45.82407" lon="4.28794">
        <ele>660.939</ele>
        <time>2019-03-11T09:48:09Z</time>
      </trkpt>
      <trkpt lat="45.82412" lon="4.28793">
        <ele>661.05</ele>
        <time>2019-03-11T09:48:15Z</time>
      </trkpt>
      <trkpt lat="45.82417" lon="4.2879">
        <ele>661.21</ele>
        <time>2019-03-11T09:48:21Z</time>
      </trkpt>
      <trkpt lat="45.82422" lon="4.28789">
        <ele>661.244</ele>
        <time>2019-03-11T09:48:27Z</time>
      </trkpt>
      <trkpt lat="45.82427" lon="4.28785">
        <ele>661.683</ele>
        <time>2019-03-11T09:48:33Z</time>
      </trkpt>
      <trkpt lat="45.82432" lon="4.28781">
        <ele>661.869</ele>
        <time>2019-03-11T09:48:39Z</time>
      </trkpt>
      <trkpt lat="45.82439" lon="4.28777">
        <ele>662.128</ele>
        <time>2019-03-11T09:48:45Z</time>
      </trkpt>
      <trkpt lat="45.82445" lon="4.28773">
        <ele>662.258</ele>
        <time>2019-03-11T09:48:51Z</time>
      </trkpt>
      <trkpt lat="45.8245" lon="4.28769">
        <ele>662.296</ele>
        <time>2019-03-11T09:48:57Z</time>
      </trkpt>
      <trkpt lat="45.82457" lon="4.28762">
        <ele>662.432</ele>
        <time>2019-03-11T09:49:03Z</time>
      </trkpt>
      <trkpt lat="45.82463" lon="4.28758">
        <ele>662.657</ele>
        <time>2019-03-11T09:49:09Z</time>
      </trkpt>
      <trkpt lat="45.82467" lon="4.28755">
        <ele>663.008</ele>
        <time>2019-03-11T09:49:15Z</time>
      </trkpt>
      <trkpt lat="45.82472" lon="4.2875">
        <ele>663.471</ele>
        <time>2019-03-11T09:49:21Z</time>
      </trkpt>
      <trkpt lat="45.82477" lon="4.28744">
        <ele>663.848</ele>
        <time>2019-03-11T09:49:27Z</time>
      </trkpt>
      <trkpt lat="45.82483" lon="4.28742">
        <ele>663.555</ele>
        <time>2019-03-11T09:49:33Z</time>
      </trkpt>
      <trkpt lat="45.82489" lon="4.2874">
        <ele>663.047</ele>
        <time>2019-03-11T09:49:38Z</time>
      </trkpt>
      <trkpt lat="45.82493" lon="4.28737">
        <ele>662.713</ele>
        <time>2019-03-11T09:49:43Z</time>
      </trkpt>
      <trkpt lat="45.82497" lon="4.28734">
        <ele>662.722</ele>
        <time>2019-03-11T09:49:49Z</time>
      </trkpt>
      <trkpt lat="45.82503" lon="4.28728">
        <ele>663.041</ele>
        <time>2019-03-11T09:49:54Z</time>
      </trkpt>
      <trkpt lat="45.82508" lon="4.28725">
        <ele>663.454</ele>
        <time>2019-03-11T09:49:59Z</time>
      </trkpt>
      <trkpt lat="45.82513" lon="4.28722">
        <ele>664.004</ele>
        <time>2019-03-11T09:50:05Z</time>
      </trkpt>
      <trkpt lat="45.82517" lon="4.2872">
        <ele>664.959</ele>
        <time>2019-03-11T09:50:11Z</time>
      </trkpt>
      <trkpt lat="45.82521" lon="4.28719">
        <ele>665.776</ele>
        <time>2019-03-11T09:50:16Z</time>
      </trkpt>
      <trkpt lat="45.82525" lon="4.28717">
        <ele>666.931</ele>
        <time>2019-03-11T09:50:22Z</time>
      </trkpt>
      <trkpt lat="45.82528" lon="4.28716">
        <ele>667.429</ele>
        <time>2019-03-11T09:50:27Z</time>
      </trkpt>
      <trkpt lat="45.82532" lon="4.28716">
        <ele>667.69</ele>
        <time>2019-03-11T09:50:33Z</time>
      </trkpt>
      <trkpt lat="45.82535" lon="4.28715">
        <ele>668.193</ele>
        <time>2019-03-11T09:50:38Z</time>
      </trkpt>
      <trkpt lat="45.8254" lon="4.28713">
        <ele>668.703</ele>
        <time>2019-03-11T09:50:43Z</time>
      </trkpt>
      <trkpt lat="45.82546" lon="4.28708">
        <ele>669.142</ele>
        <time>2019-03-11T09:50:49Z</time>
      </trkpt>
      <trkpt lat="45.82553" lon="4.28705">
        <ele>669.817</ele>
        <time>2019-03-11T09:50:55Z</time>
      </trkpt>
      <trkpt lat="45.82559" lon="4.28703">
        <ele>670.345</ele>
        <time>2019-03-11T09:51:01Z</time>
      </trkpt>
      <trkpt lat="45.82562" lon="4.28701">
        <ele>670.99</ele>
        <time>2019-03-11T09:51:07Z</time>
      </trkpt>
      <trkpt lat="45.82565" lon="4.28698">
        <ele>671.817</ele>
        <time>2019-03-11T09:51:13Z</time>
      </trkpt>
      <trkpt lat="45.8257" lon="4.28695">
        <ele>672.625</ele>
        <time>2019-03-11T09:51:19Z</time>
      </trkpt>
      <trkpt lat="45.82573" lon="4.28693">
        <ele>673.144</ele>
        <time>2019-03-11T09:51:25Z</time>
      </trkpt>
      <trkpt lat="45.82574" lon="4.28691">
        <ele>673.608</ele>
        <time>2019-03-11T09:51:31Z</time>
      </trkpt>
      <trkpt lat="45.82577" lon="4.28691">
        <ele>674.402</ele>
        <time>2019-03-11T09:51:37Z</time>
      </trkpt>
      <trkpt lat="45.8258" lon="4.28693">
        <ele>674.986</ele>
        <time>2019-03-11T09:51:42Z</time>
      </trkpt>
      <trkpt lat="45.82582" lon="4.28695">
        <ele>675.532</ele>
        <time>2019-03-11T09:51:48Z</time>
      </trkpt>
      <trkpt lat="45.82584" lon="4.28695">
        <ele>675.907</ele>
        <time>2019-03-11T09:51:54Z</time>
      </trkpt>
      <trkpt lat="45.82585" lon="4.28698">
        <ele>676.088</ele>
        <time>2019-03-11T09:52:00Z</time>
      </trkpt>
      <trkpt lat="45.82583" lon="4.28698">
        <ele>676.205</ele>
        <time>2019-03-11T09:52:05Z</time>
      </trkpt>
      <trkpt lat="45.82581" lon="4.28698">
        <ele>676.784</ele>
        <time>2019-03-11T09:52:11Z</time>
      </trkpt>
      <trkpt lat="45.82582" lon="4.28695">
        <ele>676.787</ele>
        <time>2019-03-11T09:52:16Z</time>
      </trkpt>
      <trkpt lat="45.82583" lon="4.28694">
        <ele>676.7</ele>
        <time>2019-03-11T09:52:22Z</time>
      </trkpt>
      <trkpt lat="45.82584" lon="4.28694">
        <ele>676.616</ele>
        <time>2019-03-11T09:52:27Z</time>
      </trkpt>
      <trkpt lat="45.82584" lon="4.28694">
        <ele>676.556</ele>
        <time>2019-03-11T09:52:33Z</time>
      </trkpt>
      <trkpt lat="45.82583" lon="4.28693">
        <ele>676.538</ele>
        <time>2019-03-11T09:52:39Z</time>
      </trkpt>
      <trkpt lat="45.82584" lon="4.28694">
        <ele>676.509</ele>
        <time>2019-03-11T09:52:45Z</time>
      </trkpt>
      <trkpt lat="45.82585" lon="4.28694">
        <ele>676.466</ele>
        <time>2019-03-11T09:52:51Z</time>
      </trkpt>
      <trkpt lat="45.82585" lon="4.28695">
        <ele>676.426</ele>
        <time>2019-03-11T09:52:57Z</time>
      </trkpt>
      <trkpt lat="45.82589" lon="4.28695">
        <ele>676.338</ele>
        <time>2019-03-11T09:53:03Z</time>
      </trkpt>
      <trkpt lat="45.82593" lon="4.28695">
        <ele>676.418</ele>
        <time>2019-03-11T09:53:08Z</time>
      </trkpt>
      <trkpt lat="45.82598" lon="4.28694">
        <ele>676.254</ele>
        <time>2019-03-11T09:53:14Z</time>
      </trkpt>
      <trkpt lat="45.82604" lon="4.28691">
        <ele>676.278</ele>
        <time>2019-03-11T09:53:20Z</time>
      </trkpt>
      <trkpt lat="45.82609" lon="4.28688">
        <ele>676.514</ele>
        <time>2019-03-11T09:53:26Z</time>
      </trkpt>
      <trkpt lat="45.82617" lon="4.28685">
        <ele>677.091</ele>
        <time>2019-03-11T09:53:32Z</time>
      </trkpt>
      <trkpt lat="45.82622" lon="4.28684">
        <ele>677.73</ele>
        <time>2019-03-11T09:53:38Z</time>
      </trkpt>
      <trkpt lat="45.82628" lon="4.28687">
        <ele>678.086</ele>
        <time>2019-03-11T09:53:44Z</time>
      </trkpt>
      <trkpt lat="45.82635" lon="4.28691">
        <ele>678.285</ele>
        <time>2019-03-11T09:53:49Z</time>
      </trkpt>
      <trkpt lat="45.8264" lon="4.28698">
        <ele>678.521</ele>
        <time>2019-03-11T09:53:55Z</time>
      </trkpt>
      <trkpt lat="45.82646" lon="4.28702">
        <ele>678.42</ele>
        <time>2019-03-11T09:54:01Z</time>
      </trkpt>
      <trkpt lat="45.82651" lon="4.28707">
        <ele>678.591</ele>
        <time>2019-03-11T09:54:06Z</time>
      </trkpt>
      <trkpt lat="45.82656" lon="4.28712">
        <ele>679.207</ele>
        <time>2019-03-11T09:54:12Z</time>
      </trkpt>
      <trkpt lat="45.8266" lon="4.28717">
        <ele>679.662</ele>
        <time>2019-03-11T09:54:17Z</time>
      </trkpt>
      <trkpt lat="45.82665" lon="4.28721">
        <ele>679.876</ele>
        <time>2019-03-11T09:54:23Z</time>
      </trkpt>
      <trkpt lat="45.8267" lon="4.28726">
        <ele>679.937</ele>
        <time>2019-03-11T09:54:29Z</time>
      </trkpt>
      <trkpt lat="45.82674" lon="4.28729">
        <ele>680.232</ele>
        <time>2019-03-11T09:54:34Z</time>
      </trkpt>
      <trkpt lat="45.82679" lon="4.28736">
        <ele>680.39</ele>
        <time>2019-03-11T09:54:40Z</time>
      </trkpt>
      <trkpt lat="45.82683" lon="4.2874">
        <ele>680.812</ele>
        <time>2019-03-11T09:54:45Z</time>
      </trkpt>
      <trkpt lat="45.82688" lon="4.28743">
        <ele>680.893</ele>
        <time>2019-03-11T09:54:50Z</time>
      </trkpt>
      <trkpt lat="45.82692" lon="4.28745">
        <ele>681.035</ele>
        <time>2019-03-11T09:54:55Z</time>
      </trkpt>
      <trkpt lat="45.82698" lon="4.28751">
        <ele>681.044</ele>
        <time>2019-03-11T09:55:01Z</time>
      </trkpt>
      <trkpt lat="45.82704" lon="4.28756">
        <ele>681.395</ele>
        <time>2019-03-11T09:55:07Z</time>
      </trkpt>
      <trkpt lat="45.82707" lon="4.2876">
        <ele>681.498</ele>
        <time>2019-03-11T09:55:13Z</time>
      </trkpt>
      <trkpt lat="45.82708" lon="4.28764">
        <ele>681.564</ele>
        <time>2019-03-11T09:55:18Z</time>
      </trkpt>
      <trkpt lat="45.82714" lon="4.28769">
        <ele>682.087</ele>
        <time>2019-03-11T09:55:24Z</time>
      </trkpt>
      <trkpt lat="45.82717" lon="4.28772">
        <ele>682.384</ele>
        <time>2019-03-11T09:55:29Z</time>
      </trkpt>
      <trkpt lat="45.82722" lon="4.28778">
        <ele>683.022</ele>
        <time>2019-03-11T09:55:35Z</time>
      </trkpt>
      <trkpt lat="45.82728" lon="4.28781">
        <ele>683.457</ele>
        <time>2019-03-11T09:55:41Z</time>
      </trkpt>
      <trkpt lat="45.82731" lon="4.28784">
        <ele>683.549</ele>
        <time>2019-03-11T09:55:47Z</time>
      </trkpt>
      <trkpt lat="45.82736" lon="4.28789">
        <ele>683.664</ele>
        <time>2019-03-11T09:55:52Z</time>
      </trkpt>
      <trkpt lat="45.8274" lon="4.28792">
        <ele>683.812</ele>
        <time>2019-03-11T09:55:58Z</time>
      </trkpt>
      <trkpt lat="45.82746" lon="4.28797">
        <ele>684.192</ele>
        <time>2019-03-11T09:56:04Z</time>
      </trkpt>
      <trkpt lat="45.82752" lon="4.28802">
        <ele>684.699</ele>
        <time>2019-03-11T09:56:10Z</time>
      </trkpt>
      <trkpt lat="45.82755" lon="4.28805">
        <ele>685.072</ele>
        <time>2019-03-11T09:56:15Z</time>
      </trkpt>
      <trkpt lat="45.82758" lon="4.28809">
        <ele>685.488</ele>
        <time>2019-03-11T09:56:21Z</time>
      </trkpt>
      <trkpt lat="45.8276" lon="4.2881">
        <ele>685.974</ele>
        <time>2019-03-11T09:56:26Z</time>
      </trkpt>
      <trkpt lat="45.82764" lon="4.28815">
        <ele>686.669</ele>
        <time>2019-03-11T09:56:32Z</time>
      </trkpt>
      <trkpt lat="45.82768" lon="4.28822">
        <ele>687.531</ele>
        <time>2019-03-11T09:56:38Z</time>
      </trkpt>
      <trkpt lat="45.82772" lon="4.28829">
        <ele>687.859</ele>
        <time>2019-03-11T09:56:43Z</time>
      </trkpt>
      <trkpt lat="45.82777" lon="4.28834">
        <ele>688.08</ele>
        <time>2019-03-11T09:56:49Z</time>
      </trkpt>
      <trkpt lat="45.82782" lon="4.2884">
        <ele>688.473</ele>
        <time>2019-03-11T09:56:55Z</time>
      </trkpt>
      <trkpt lat="45.82787" lon="4.28844">
        <ele>688.979</ele>
        <time>2019-03-11T09:57:00Z</time>
      </trkpt>
      <trkpt lat="45.82791" lon="4.28849">
        <ele>689.353</ele>
        <time>2019-03-11T09:57:05Z</time>
      </trkpt>
      <trkpt lat="45.82795" lon="4.28853">
        <ele>689.903</ele>
        <time>2019-03-11T09:57:11Z</time>
      </trkpt>
      <trkpt lat="45.828" lon="4.28858">
        <ele>690.165</ele>
        <time>2019-03-11T09:57:17Z</time>
      </trkpt>
      <trkpt lat="45.82803" lon="4.28861">
        <ele>690.425</ele>
        <time>2019-03-11T09:57:22Z</time>
      </trkpt>
      <trkpt lat="45.82808" lon="4.28866">
        <ele>690.887</ele>
        <time>2019-03-11T09:57:28Z</time>
      </trkpt>
      <trkpt lat="45.82813" lon="4.28871">
        <ele>691.709</ele>
        <time>2019-03-11T09:57:34Z</time>
      </trkpt>
      <trkpt lat="45.82817" lon="4.28875">
        <ele>692.561</ele>
        <time>2019-03-11T09:57:39Z</time>
      </trkpt>
      <trkpt lat="45.82821" lon="4.28879">
        <ele>693.026</ele>
        <time>2019-03-11T09:57:45Z</time>
      </trkpt>
      <trkpt lat="45.82825" lon="4.28885">
        <ele>693.52</ele>
        <time>2019-03-11T09:57:51Z</time>
      </trkpt>
      <trkpt lat="45.8283" lon="4.28892">
        <ele>694.06</ele>
        <time>2019-03-11T09:57:57Z</time>
      </trkpt>
      <trkpt lat="45.82836" lon="4.28897">
        <ele>694.909</ele>
        <time>2019-03-11T09:58:03Z</time>
      </trkpt>
      <trkpt lat="45.82841" lon="4.28901">
        <ele>695.694</ele>
        <time>2019-03-11T09:58:08Z</time>
      </trkpt>
      <trkpt lat="45.82846" lon="4.28905">
        <ele>696.551</ele>
        <time>2019-03-11T09:58:14Z</time>
      </trkpt>
      <trkpt lat="45.8285" lon="4.28908">
        <ele>696.923</ele>
        <time>2019-03-11T09:58:19Z</time>
      </trkpt>
      <trkpt lat="45.82857" lon="4.28913">
        <ele>697.147</ele>
        <time>2019-03-11T09:58:25Z</time>
      </trkpt>
      <trkpt lat="45.8286" lon="4.28915">
        <ele>697.571</ele>
        <time>2019-03-11T09:58:30Z</time>
      </trkpt>
      <trkpt lat="45.82865" lon="4.2892">
        <ele>697.86</ele>
        <time>2019-03-11T09:58:35Z</time>
      </trkpt>
      <trkpt lat="45.82871" lon="4.28926">
        <ele>698.562</ele>
        <time>2019-03-11T09:58:41Z</time>
      </trkpt>
      <trkpt lat="45.82876" lon="4.28929">
        <ele>698.825</ele>
        <time>2019-03-11T09:58:46Z</time>
      </trkpt>
      <trkpt lat="45.82881" lon="4.28935">
        <ele>699.39</ele>
        <time>2019-03-11T09:58:52Z</time>
      </trkpt>
      <trkpt lat="45.82888" lon="4.28941">
        <ele>699.954</ele>
        <time>2019-03-11T09:58:58Z</time>
      </trkpt>
      <trkpt lat="45.82893" lon="4.28946">
        <ele>700.147</ele>
        <time>2019-03-11T09:59:04Z</time>
      </trkpt>
      <trkpt lat="45.82898" lon="4.2895">
        <ele>700.807</ele>
        <time>2019-03-11T09:59:09Z</time>
      </trkpt>
      <trkpt lat="45.82903" lon="4.28953">
        <ele>701.776</ele>
        <time>2019-03-11T09:59:15Z</time>
      </trkpt>
      <trkpt lat="45.82907" lon="4.28955">
        <ele>702.251</ele>
        <time>2019-03-11T09:59:21Z</time>
      </trkpt>
      <trkpt lat="45.82913" lon="4.28958">
        <ele>702.673</ele>
        <time>2019-03-11T09:59:27Z</time>
      </trkpt>
      <trkpt lat="45.82919" lon="4.28962">
        <ele>703.312</ele>
        <time>2019-03-11T09:59:32Z</time>
      </trkpt>
      <trkpt lat="45.82924" lon="4.28962">
        <ele>704.102</ele>
        <time>2019-03-11T09:59:37Z</time>
      </trkpt>
      <trkpt lat="45.82933" lon="4.28963">
        <ele>704.152</ele>
        <time>2019-03-11T09:59:43Z</time>
      </trkpt>
      <trkpt lat="45.82939" lon="4.28964">
        <ele>703.858</ele>
        <time>2019-03-11T09:59:49Z</time>
      </trkpt>
      <trkpt lat="45.82942" lon="4.28963">
        <ele>704.169</ele>
        <time>2019-03-11T09:59:54Z</time>
      </trkpt>
      <trkpt lat="45.82945" lon="4.28964">
        <ele>704.784</ele>
        <time>2019-03-11T10:00:00Z</time>
      </trkpt>
      <trkpt lat="45.82946" lon="4.28962">
        <ele>705.659</ele>
        <time>2019-03-11T10:00:05Z</time>
      </trkpt>
      <trkpt lat="45.82946" lon="4.28961">
        <ele>705.957</ele>
        <time>2019-03-11T10:00:11Z</time>
      </trkpt>
      <trkpt lat="45.82949" lon="4.28963">
        <ele>706.437</ele>
        <time>2019-03-11T10:00:16Z</time>
      </trkpt>
      <trkpt lat="45.82955" lon="4.28967">
        <ele>706.92</ele>
        <time>2019-03-11T10:00:22Z</time>
      </trkpt>
      <trkpt lat="45.8296" lon="4.28968">
        <ele>707.204</ele>
        <time>2019-03-11T10:00:28Z</time>
      </trkpt>
      <trkpt lat="45.82965" lon="4.28969">
        <ele>707.574</ele>
        <time>2019-03-11T10:00:33Z</time>
      </trkpt>
      <trkpt lat="45.82968" lon="4.28969">
        <ele>707.779</ele>
        <time>2019-03-11T10:00:38Z</time>
      </trkpt>
      <trkpt lat="45.82976" lon="4.28971">
        <ele>708.146</ele>
        <time>2019-03-11T10:00:43Z</time>
      </trkpt>
      <trkpt lat="45.82983" lon="4.28973">
        <ele>708.304</ele>
        <time>2019-03-11T10:00:49Z</time>
      </trkpt>
      <trkpt lat="45.82988" lon="4.28973">
        <ele>708.383</ele>
        <time>2019-03-11T10:00:55Z</time>
      </trkpt>
      <trkpt lat="45.82994" lon="4.28975">
        <ele>708.627</ele>
        <time>2019-03-11T10:01:00Z</time>
      </trkpt>
      <trkpt lat="45.83002" lon="4.28975">
        <ele>708.885</ele>
        <time>2019-03-11T10:01:06Z</time>
      </trkpt>
      <trkpt lat="45.83008" lon="4.28976">
        <ele>709.382</ele>
        <time>2019-03-11T10:01:11Z</time>
      </trkpt>
      <trkpt lat="45.83014" lon="4.28976">
        <ele>710.043</ele>
        <time>2019-03-11T10:01:16Z</time>
      </trkpt>
      <trkpt lat="45.83023" lon="4.28978">
        <ele>710.695</ele>
        <time>2019-03-11T10:01:22Z</time>
      </trkpt>
      <trkpt lat="45.8303" lon="4.28978">
        <ele>710.613</ele>
        <time>2019-03-11T10:01:27Z</time>
      </trkpt>
      <trkpt lat="45.83038" lon="4.28979">
        <ele>710.551</ele>
        <time>2019-03-11T10:01:32Z</time>
      </trkpt>
      <trkpt lat="45.83048" lon="4.28981">
        <ele>709.825</ele>
        <time>2019-03-11T10:01:38Z</time>
      </trkpt>
      <trkpt lat="45.83053" lon="4.28982">
        <ele>709.624</ele>
        <time>2019-03-11T10:01:44Z</time>
      </trkpt>
      <trkpt lat="45.8306" lon="4.28983">
        <ele>709.495</ele>
        <time>2019-03-11T10:01:50Z</time>
      </trkpt>
      <trkpt lat="45.83067" lon="4.28983">
        <ele>709.863</ele>
        <time>2019-03-11T10:01:55Z</time>
      </trkpt>
      <trkpt lat="45.83075" lon="4.28983">
        <ele>710.191</ele>
        <time>2019-03-11T10:02:00Z</time>
      </trkpt>
      <trkpt lat="45.83082" lon="4.28983">
        <ele>710.422</ele>
        <time>2019-03-11T10:02:06Z</time>
      </trkpt>
      <trkpt lat="45.83091" lon="4.28982">
        <ele>710.771</ele>
        <time>2019-03-11T10:02:11Z</time>
      </trkpt>
      <trkpt lat="45.83099" lon="4.28981">
        <ele>711.098</ele>
        <time>2019-03-11T10:02:16Z</time>
      </trkpt>
      <trkpt lat="45.83106" lon="4.28978">
        <ele>712.033</ele>
        <time>2019-03-11T10:02:22Z</time>
      </trkpt>
      <trkpt lat="45.83112" lon="4.28976">
        <ele>712.852</ele>
        <time>2019-03-11T10:02:27Z</time>
      </trkpt>
      <trkpt lat="45.8312" lon="4.28976">
        <ele>713.773</ele>
        <time>2019-03-11T10:02:33Z</time>
      </trkpt>
      <trkpt lat="45.83125" lon="4.28976">
        <ele>715.155</ele>
        <time>2019-03-11T10:02:39Z</time>
      </trkpt>
      <trkpt lat="45.83132" lon="4.28976">
        <ele>716.257</ele>
        <time>2019-03-11T10:02:45Z</time>
      </trkpt>
      <trkpt lat="45.83138" lon="4.28976">
        <ele>716.742</ele>
        <time>2019-03-11T10:02:51Z</time>
      </trkpt>
      <trkpt lat="45.83141" lon="4.28975">
        <ele>717.181</ele>
        <time>2019-03-11T10:02:56Z</time>
      </trkpt>
      <trkpt lat="45.83145" lon="4.28974">
        <ele>717.887</ele>
        <time>2019-03-11T10:03:02Z</time>
      </trkpt>
      <trkpt lat="45.8315" lon="4.28972">
        <ele>718.847</ele>
        <time>2019-03-11T10:03:07Z</time>
      </trkpt>
      <trkpt lat="45.83152" lon="4.28972">
        <ele>719.509</ele>
        <time>2019-03-11T10:03:13Z</time>
      </trkpt>
      <trkpt lat="45.83154" lon="4.28972">
        <ele>720.136</ele>
        <time>2019-03-11T10:03:19Z</time>
      </trkpt>
      <trkpt lat="45.83153" lon="4.2897">
        <ele>720.441</ele>
        <time>2019-03-11T10:03:25Z</time>
      </trkpt>
      <trkpt lat="45.83152" lon="4.2897">
        <ele>720.822</ele>
        <time>2019-03-11T10:03:30Z</time>
      </trkpt>
      <trkpt lat="45.83153" lon="4.2897">
        <ele>722.137</ele>
        <time>2019-03-11T10:03:36Z</time>
      </trkpt>
      <trkpt lat="45.83153" lon="4.28971">
        <ele>722.975</ele>
        <time>2019-03-11T10:03:42Z</time>
      </trkpt>
      <trkpt lat="45.83154" lon="4.28968">
        <ele>723.926</ele>
        <time>2019-03-11T10:03:48Z</time>
      </trkpt>
      <trkpt lat="45.83154" lon="4.28966">
        <ele>724.008</ele>
        <time>2019-03-11T10:03:54Z</time>
      </trkpt>
      <trkpt lat="45.83155" lon="4.28967">
        <ele>723.971</ele>
        <time>2019-03-11T10:03:59Z</time>
      </trkpt>
      <trkpt lat="45.83156" lon="4.28968">
        <ele>723.845</ele>
        <time>2019-03-11T10:04:05Z</time>
      </trkpt>
      <trkpt lat="45.83158" lon="4.28969">
        <ele>723.509</ele>
        <time>2019-03-11T10:04:11Z</time>
      </trkpt>
      <trkpt lat="45.8316" lon="4.28971">
        <ele>723.529</ele>
        <time>2019-03-11T10:04:17Z</time>
      </trkpt>
      <trkpt lat="45.8316" lon="4.28971">
        <ele>723.524</ele>
        <time>2019-03-11T10:04:22Z</time>
      </trkpt>
      <trkpt lat="45.83158" lon="4.2897">
        <ele>723.022</ele>
        <time>2019-03-11T10:04:28Z</time>
      </trkpt>
      <trkpt lat="45.83158" lon="4.28969">
        <ele>723.358</ele>
        <time>2019-03-11T10:04:33Z</time>
      </trkpt>
      <trkpt lat="45.83158" lon="4.28969">
        <ele>723.809</ele>
        <time>2019-03-11T10:04:39Z</time>
      </trkpt>
      <trkpt lat="45.83158" lon="4.28969">
        <ele>723.928</ele>
        <time>2019-03-11T10:04:44Z</time>
      </trkpt>
      <trkpt lat="45.83158" lon="4.28969">
        <ele>724.075</ele>
        <time>2019-03-11T10:04:50Z</time>
      </trkpt>
      <trkpt lat="45.83159" lon="4.28971">
        <ele>724.23</ele>
        <time>2019-03-11T10:04:55Z</time>
      </trkpt>
      <trkpt lat="45.8316" lon="4.2897">
        <ele>724.421</ele>
        <time>2019-03-11T10:05:01Z</time>
      </trkpt>
      <trkpt lat="45.8316" lon="4.2897">
        <ele>724.535</ele>
        <time>2019-03-11T10:05:06Z</time>
      </trkpt>
      <trkpt lat="45.8316" lon="4.2897">
        <ele>724.582</ele>
        <time>2019-03-11T10:05:11Z</time>
      </trkpt>
      <trkpt lat="45.8316" lon="4.2897">
        <ele>724.725</ele>
        <time>2019-03-11T10:05:17Z</time>
      </trkpt>
      <trkpt lat="45.8316" lon="4.2897">
        <ele>724.698</ele>
        <time>2019-03-11T10:05:23Z</time>
      </trkpt>
      <trkpt lat="45.8316" lon="4.28971">
        <ele>724.326</ele>
        <time>2019-03-11T10:05:29Z</time>
      </trkpt>
      <trkpt lat="45.83162" lon="4.28968">
        <ele>724.194</ele>
        <time>2019-03-11T10:05:34Z</time>
      </trkpt>
      <trkpt lat="45.83161" lon="4.28965">
        <ele>724.022</ele>
        <time>2019-03-11T10:05:39Z</time>
      </trkpt>
      <trkpt lat="45.83163" lon="4.28954">
        <ele>723.683</ele>
        <time>2019-03-11T10:05:45Z</time>
      </trkpt>
      <trkpt lat="45.83162" lon="4.28943">
        <ele>723.99</ele>
        <time>2019-03-11T10:05:50Z</time>
      </trkpt>
      <trkpt lat="45.83164" lon="4.28932">
        <ele>724.485</ele>
        <time>2019-03-11T10:05:56Z</time>
      </trkpt>
      <trkpt lat="45.83168" lon="4.28924">
        <ele>724.553</ele>
        <time>2019-03-11T10:06:02Z</time>
      </trkpt>
      <trkpt lat="45.83172" lon="4.28916">
        <ele>724.751</ele>
        <time>2019-03-11T10:06:08Z</time>
      </trkpt>
      <trkpt lat="45.83175" lon="4.2891">
        <ele>724.439</ele>
        <time>2019-03-11T10:06:14Z</time>
      </trkpt>
      <trkpt lat="45.83178" lon="4.28902">
        <ele>724.21</ele>
        <time>2019-03-11T10:06:19Z</time>
      </trkpt>
      <trkpt lat="45.83181" lon="4.28897">
        <ele>724.485</ele>
        <time>2019-03-11T10:06:25Z</time>
      </trkpt>
      <trkpt lat="45.83185" lon="4.2889">
        <ele>724.605</ele>
        <time>2019-03-11T10:06:30Z</time>
      </trkpt>
      <trkpt lat="45.83192" lon="4.28881">
        <ele>724.564</ele>
        <time>2019-03-11T10:06:36Z</time>
      </trkpt>
      <trkpt lat="45.83196" lon="4.28876">
        <ele>724.09</ele>
        <time>2019-03-11T10:06:41Z</time>
      </trkpt>
      <trkpt lat="45.83204" lon="4.28871">
        <ele>723.794</ele>
        <time>2019-03-11T10:06:47Z</time>
      </trkpt>
      <trkpt lat="45.83212" lon="4.28867">
        <ele>723.618</ele>
        <time>2019-03-11T10:06:52Z</time>
      </trkpt>
      <trkpt lat="45.83217" lon="4.28864">
        <ele>723.351</ele>
        <time>2019-03-11T10:06:57Z</time>
      </trkpt>
      <trkpt lat="45.83224" lon="4.2886">
        <ele>723.094</ele>
        <time>2019-03-11T10:07:03Z</time>
      </trkpt>
      <trkpt lat="45.83228" lon="4.28856">
        <ele>722.879</ele>
        <time>2019-03-11T10:07:09Z</time>
      </trkpt>
      <trkpt lat="45.83235" lon="4.28849">
        <ele>723.154</ele>
        <time>2019-03-11T10:07:15Z</time>
      </trkpt>
      <trkpt lat="45.83242" lon="4.28842">
        <ele>723.087</ele>
        <time>2019-03-11T10:07:21Z</time>
      </trkpt>
      <trkpt lat="45.83249" lon="4.28832">
        <ele>723.275</ele>
        <time>2019-03-11T10:07:27Z</time>
      </trkpt>
      <trkpt lat="45.83253" lon="4.28826">
        <ele>723.328</ele>
        <time>2019-03-11T10:07:33Z</time>
      </trkpt>
      <trkpt lat="45.83258" lon="4.2882">
        <ele>723.165</ele>
        <time>2019-03-11T10:07:39Z</time>
      </trkpt>
      <trkpt lat="45.83265" lon="4.28808">
        <ele>722.624</ele>
        <time>2019-03-11T10:07:45Z</time>
      </trkpt>
      <trkpt lat="45.83266" lon="4.28805">
        <ele>721.485</ele>
        <time>2019-03-11T10:07:51Z</time>
      </trkpt>
      <trkpt lat="45.83267" lon="4.28799">
        <ele>720.935</ele>
        <time>2019-03-11T10:07:57Z</time>
      </trkpt>
      <trkpt lat="45.83268" lon="4.28795">
        <ele>720.683</ele>
        <time>2019-03-11T10:08:02Z</time>
      </trkpt>
      <trkpt lat="45.83269" lon="4.2879">
        <ele>720.313</ele>
        <time>2019-03-11T10:08:08Z</time>
      </trkpt>
      <trkpt lat="45.83271" lon="4.28785">
        <ele>719.705</ele>
        <time>2019-03-11T10:08:13Z</time>
      </trkpt>
      <trkpt lat="45.83273" lon="4.28772">
        <ele>719.026</ele>
        <time>2019-03-11T10:08:19Z</time>
      </trkpt>
      <trkpt lat="45.83277" lon="4.2876">
        <ele>717.249</ele>
        <time>2019-03-11T10:08:25Z</time>
      </trkpt>
      <trkpt lat="45.83277" lon="4.28741">
        <ele>715.693</ele>
        <time>2019-03-11T10:08:31Z</time>
      </trkpt>
      <trkpt lat="45.83279" lon="4.28734">
        <ele>714.954</ele>
        <time>2019-03-11T10:08:37Z</time>
      </trkpt>
      <trkpt lat="45.83279" lon="4.28728">
        <ele>714.118</ele>
        <time>2019-03-11T10:08:42Z</time>
      </trkpt>
      <trkpt lat="45.83277" lon="4.28716">
        <ele>713.304</ele>
        <time>2019-03-11T10:08:48Z</time>
      </trkpt>
      <trkpt lat="45.83275" lon="4.28709">
        <ele>712.951</ele>
        <time>2019-03-11T10:08:53Z</time>
      </trkpt>
      <trkpt lat="45.83275" lon="4.28704">
        <ele>712.254</ele>
        <time>2019-03-11T10:08:59Z</time>
      </trkpt>
      <trkpt lat="45.83271" lon="4.28697">
        <ele>710.952</ele>
        <time>2019-03-11T10:09:05Z</time>
      </trkpt>
      <trkpt lat="45.83269" lon="4.28686">
        <ele>709.671</ele>
        <time>2019-03-11T10:09:10Z</time>
      </trkpt>
      <trkpt lat="45.83268" lon="4.28673">
        <ele>708.092</ele>
        <time>2019-03-11T10:09:16Z</time>
      </trkpt>
      <trkpt lat="45.83269" lon="4.28666">
        <ele>706.192</ele>
        <time>2019-03-11T10:09:22Z</time>
      </trkpt>
      <trkpt lat="45.83269" lon="4.28663">
        <ele>705.671</ele>
        <time>2019-03-11T10:09:28Z</time>
      </trkpt>
      <trkpt lat="45.83274" lon="4.28649">
        <ele>705.43</ele>
        <time>2019-03-11T10:09:34Z</time>
      </trkpt>
      <trkpt lat="45.83282" lon="4.28633">
        <ele>705.53</ele>
        <time>2019-03-11T10:09:40Z</time>
      </trkpt>
      <trkpt lat="45.83286" lon="4.28626">
        <ele>705.767</ele>
        <time>2019-03-11T10:09:45Z</time>
      </trkpt>
      <trkpt lat="45.83289" lon="4.28624">
        <ele>705.88</ele>
        <time>2019-03-11T10:09:51Z</time>
      </trkpt>
      <trkpt lat="45.83293" lon="4.28622">
        <ele>705.581</ele>
        <time>2019-03-11T10:09:56Z</time>
      </trkpt>
      <trkpt lat="45.83301" lon="4.28619">
        <ele>705.459</ele>
        <time>2019-03-11T10:10:01Z</time>
      </trkpt>
      <trkpt lat="45.83306" lon="4.28613">
        <ele>704.867</ele>
        <time>2019-03-11T10:10:07Z</time>
      </trkpt>
      <trkpt lat="45.83318" lon="4.28606">
        <ele>704.28</ele>
        <time>2019-03-11T10:10:13Z</time>
      </trkpt>
      <trkpt lat="45.83322" lon="4.28604">
        <ele>703.899</ele>
        <time>2019-03-11T10:10:18Z</time>
      </trkpt>
      <trkpt lat="45.83327" lon="4.28601">
        <ele>703.632</ele>
        <time>2019-03-11T10:10:23Z</time>
      </trkpt>
      <trkpt lat="45.83335" lon="4.286">
        <ele>702.952</ele>
        <time>2019-03-11T10:10:29Z</time>
      </trkpt>
      <trkpt lat="45.83339" lon="4.28599">
        <ele>702.802</ele>
        <time>2019-03-11T10:10:35Z</time>
      </trkpt>
      <trkpt lat="45.83344" lon="4.28596">
        <ele>702.68</ele>
        <time>2019-03-11T10:10:40Z</time>
      </trkpt>
      <trkpt lat="45.83348" lon="4.28593">
        <ele>702.307</ele>
        <time>2019-03-11T10:10:45Z</time>
      </trkpt>
      <trkpt lat="45.83353" lon="4.2859">
        <ele>701.922</ele>
        <time>2019-03-11T10:10:51Z</time>
      </trkpt>
      <trkpt lat="45.8336" lon="4.28587">
        <ele>701.624</ele>
        <time>2019-03-11T10:10:57Z</time>
      </trkpt>
      <trkpt lat="45.83365" lon="4.28585">
        <ele>701.614</ele>
        <time>2019-03-11T10:11:03Z</time>
      </trkpt>
      <trkpt lat="45.83373" lon="4.28578">
        <ele>701.423</ele>
        <time>2019-03-11T10:11:09Z</time>
      </trkpt>
      <trkpt lat="45.83379" lon="4.2857">
        <ele>700.931</ele>
        <time>2019-03-11T10:11:14Z</time>
      </trkpt>
      <trkpt lat="45.83382" lon="4.2856">
        <ele>700.849</ele>
        <time>2019-03-11T10:11:19Z</time>
      </trkpt>
      <trkpt lat="45.83388" lon="4.28547">
        <ele>701.173</ele>
        <time>2019-03-11T10:11:25Z</time>
      </trkpt>
      <trkpt lat="45.83391" lon="4.28538">
        <ele>701.478</ele>
        <time>2019-03-11T10:11:30Z</time>
      </trkpt>
      <trkpt lat="45.83393" lon="4.28532">
        <ele>701.549</ele>
        <time>2019-03-11T10:11:35Z</time>
      </trkpt>
      <trkpt lat="45.83394" lon="4.28527">
        <ele>701.304</ele>
        <time>2019-03-11T10:11:41Z</time>
      </trkpt>
      <trkpt lat="45.83395" lon="4.2852">
        <ele>701.089</ele>
        <time>2019-03-11T10:11:47Z</time>
      </trkpt>
      <trkpt lat="45.83396" lon="4.28515">
        <ele>700.683</ele>
        <time>2019-03-11T10:11:52Z</time>
      </trkpt>
      <trkpt lat="45.83398" lon="4.28509">
        <ele>700.843</ele>
        <time>2019-03-11T10:11:57Z</time>
      </trkpt>
      <trkpt lat="45.83398" lon="4.28501">
        <ele>700.787</ele>
        <time>2019-03-11T10:12:03Z</time>
      </trkpt>
      <trkpt lat="45.83399" lon="4.28496">
        <ele>700.747</ele>
        <time>2019-03-11T10:12:09Z</time>
      </trkpt>
      <trkpt lat="45.834" lon="4.28488">
        <ele>700.617</ele>
        <time>2019-03-11T10:12:14Z</time>
      </trkpt>
      <trkpt lat="45.834" lon="4.28482">
        <ele>700.313</ele>
        <time>2019-03-11T10:12:19Z</time>
      </trkpt>
      <trkpt lat="45.83399" lon="4.28478">
        <ele>700.573</ele>
        <time>2019-03-11T10:12:25Z</time>
      </trkpt>
      <trkpt lat="45.83397" lon="4.28473">
        <ele>701.215</ele>
        <time>2019-03-11T10:12:30Z</time>
      </trkpt>
      <trkpt lat="45.83395" lon="4.28467">
        <ele>701.993</ele>
        <time>2019-03-11T10:12:35Z</time>
      </trkpt>
      <trkpt lat="45.83395" lon="4.2846">
        <ele>703.154</ele>
        <time>2019-03-11T10:12:41Z</time>
      </trkpt>
      <trkpt lat="45.83396" lon="4.28453">
        <ele>703.811</ele>
        <time>2019-03-11T10:12:47Z</time>
      </trkpt>
      <trkpt lat="45.83395" lon="4.28448">
        <ele>703.888</ele>
        <time>2019-03-11T10:12:53Z</time>
      </trkpt>
      <trkpt lat="45.83395" lon="4.28443">
        <ele>704.08</ele>
        <time>2019-03-11T10:12:59Z</time>
      </trkpt>
      <trkpt lat="45.83395" lon="4.28434">
        <ele>704.107</ele>
        <time>2019-03-11T10:13:05Z</time>
      </trkpt>
      <trkpt lat="45.83393" lon="4.28426">
        <ele>704.642</ele>
        <time>2019-03-11T10:13:11Z</time>
      </trkpt>
      <trkpt lat="45.83393" lon="4.28414">
        <ele>705.72</ele>
        <time>2019-03-11T10:13:17Z</time>
      </trkpt>
      <trkpt lat="45.83393" lon="4.28403">
        <ele>706.588</ele>
        <time>2019-03-11T10:13:22Z</time>
      </trkpt>
      <trkpt lat="45.83392" lon="4.28395">
        <ele>707.37</ele>
        <time>2019-03-11T10:13:27Z</time>
      </trkpt>
      <trkpt lat="45.83392" lon="4.28387">
        <ele>708.203</ele>
        <time>2019-03-11T10:13:33Z</time>
      </trkpt>
      <trkpt lat="45.8339" lon="4.28381">
        <ele>708.909</ele>
        <time>2019-03-11T10:13:39Z</time>
      </trkpt>
      <trkpt lat="45.83391" lon="4.28376">
        <ele>709.785</ele>
        <time>2019-03-11T10:13:44Z</time>
      </trkpt>
      <trkpt lat="45.8339" lon="4.2837">
        <ele>710.918</ele>
        <time>2019-03-11T10:13:50Z</time>
      </trkpt>
      <trkpt lat="45.83389" lon="4.28363">
        <ele>711.902</ele>
        <time>2019-03-11T10:13:55Z</time>
      </trkpt>
      <trkpt lat="45.8339" lon="4.28361">
        <ele>712.651</ele>
        <time>2019-03-11T10:14:00Z</time>
      </trkpt>
      <trkpt lat="45.8339" lon="4.2836">
        <ele>713.28</ele>
        <time>2019-03-11T10:14:06Z</time>
      </trkpt>
      <trkpt lat="45.83391" lon="4.28356">
        <ele>713.604</ele>
        <time>2019-03-11T10:14:11Z</time>
      </trkpt>
      <trkpt lat="45.83392" lon="4.28355">
        <ele>714.081</ele>
        <time>2019-03-11T10:14:16Z</time>
      </trkpt>
      <trkpt lat="45.83393" lon="4.28354">
        <ele>714.726</ele>
        <time>2019-03-11T10:14:22Z</time>
      </trkpt>
      <trkpt lat="45.83394" lon="4.28354">
        <ele>715.108</ele>
        <time>2019-03-11T10:14:27Z</time>
      </trkpt>
      <trkpt lat="45.83394" lon="4.28354">
        <ele>715.308</ele>
        <time>2019-03-11T10:14:33Z</time>
      </trkpt>
      <trkpt lat="45.83394" lon="4.28353">
        <ele>715.482</ele>
        <time>2019-03-11T10:14:38Z</time>
      </trkpt>
      <trkpt lat="45.83396" lon="4.28352">
        <ele>716.103</ele>
        <time>2019-03-11T10:14:44Z</time>
      </trkpt>
      <trkpt lat="45.83397" lon="4.28354">
        <ele>716.354</ele>
        <time>2019-03-11T10:14:49Z</time>
      </trkpt>
      <trkpt lat="45.83397" lon="4.28353">
        <ele>717.488</ele>
        <time>2019-03-11T10:14:55Z</time>
      </trkpt>
      <trkpt lat="45.834" lon="4.28341">
        <ele>718.105</ele>
        <time>2019-03-11T10:15:00Z</time>
      </trkpt>
      <trkpt lat="45.834" lon="4.28329">
        <ele>718.079</ele>
        <time>2019-03-11T10:15:06Z</time>
      </trkpt>
      <trkpt lat="45.83398" lon="4.28324">
        <ele>717.948</ele>
        <time>2019-03-11T10:15:11Z</time>
      </trkpt>
      <trkpt lat="45.83396" lon="4.28319">
        <ele>718.355</ele>
        <time>2019-03-11T10:15:17Z</time>
      </trkpt>
      <trkpt lat="45.83396" lon="4.28308">
        <ele>719.168</ele>
        <time>2019-03-11T10:15:23Z</time>
      </trkpt>
      <trkpt lat="45.83398" lon="4.28301">
        <ele>719.791</ele>
        <time>2019-03-11T10:15:28Z</time>
      </trkpt>
      <trkpt lat="45.83402" lon="4.28291">
        <ele>720.118</ele>
        <time>2019-03-11T10:15:34Z</time>
      </trkpt>
      <trkpt lat="45.83406" lon="4.28284">
        <ele>720.371</ele>
        <time>2019-03-11T10:15:39Z</time>
      </trkpt>
      <trkpt lat="45.8341" lon="4.28277">
        <ele>720.757</ele>
        <time>2019-03-11T10:15:44Z</time>
      </trkpt>
      <trkpt lat="45.83412" lon="4.28268">
        <ele>720.954</ele>
        <time>2019-03-11T10:15:50Z</time>
      </trkpt>
      <trkpt lat="45.83418" lon="4.28261">
        <ele>721.202</ele>
        <time>2019-03-11T10:15:56Z</time>
      </trkpt>
      <trkpt lat="45.83424" lon="4.28255">
        <ele>721.388</ele>
        <time>2019-03-11T10:16:02Z</time>
      </trkpt>
      <trkpt lat="45.8343" lon="4.28248">
        <ele>721.452</ele>
        <time>2019-03-11T10:16:08Z</time>
      </trkpt>
      <trkpt lat="45.83436" lon="4.28239">
        <ele>721.52</ele>
        <time>2019-03-11T10:16:14Z</time>
      </trkpt>
      <trkpt lat="45.8344" lon="4.2823">
        <ele>721.569</ele>
        <time>2019-03-11T10:16:19Z</time>
      </trkpt>
      <trkpt lat="45.83444" lon="4.28223">
        <ele>721.654</ele>
        <time>2019-03-11T10:16:24Z</time>
      </trkpt>
      <trkpt lat="45.83448" lon="4.28218">
        <ele>721.66</ele>
        <time>2019-03-11T10:16:29Z</time>
      </trkpt>
      <trkpt lat="45.83454" lon="4.28209">
        <ele>721.601</ele>
        <time>2019-03-11T10:16:35Z</time>
      </trkpt>
      <trkpt lat="45.83459" lon="4.282">
        <ele>721.66</ele>
        <time>2019-03-11T10:16:41Z</time>
      </trkpt>
      <trkpt lat="45.83461" lon="4.28193">
        <ele>721.621</ele>
        <time>2019-03-11T10:16:46Z</time>
      </trkpt>
      <trkpt lat="45.83465" lon="4.28186">
        <ele>722.01</ele>
        <time>2019-03-11T10:16:51Z</time>
      </trkpt>
      <trkpt lat="45.83468" lon="4.28179">
        <ele>722.414</ele>
        <time>2019-03-11T10:16:57Z</time>
      </trkpt>
      <trkpt lat="45.83472" lon="4.28173">
        <ele>722.75</ele>
        <time>2019-03-11T10:17:02Z</time>
      </trkpt>
      <trkpt lat="45.83476" lon="4.28167">
        <ele>723.162</ele>
        <time>2019-03-11T10:17:08Z</time>
      </trkpt>
      <trkpt lat="45.8348" lon="4.28161">
        <ele>723.346</ele>
        <time>2019-03-11T10:17:13Z</time>
      </trkpt>
      <trkpt lat="45.83482" lon="4.28161">
        <ele>723.302</ele>
        <time>2019-03-11T10:17:18Z</time>
      </trkpt>
      <trkpt lat="45.83487" lon="4.2815">
        <ele>723.233</ele>
        <time>2019-03-11T10:17:24Z</time>
      </trkpt>
      <trkpt lat="45.83489" lon="4.28149">
        <ele>723.257</ele>
        <time>2019-03-11T10:17:29Z</time>
      </trkpt>
      <trkpt lat="45.83496" lon="4.28142">
        <ele>723.446</ele>
        <time>2019-03-11T10:17:35Z</time>
      </trkpt>
      <trkpt lat="45.835" lon="4.28134">
        <ele>723.434</ele>
        <time>2019-03-11T10:17:41Z</time>
      </trkpt>
      <trkpt lat="45.83506" lon="4.28127">
        <ele>723.464</ele>
        <time>2019-03-11T10:17:47Z</time>
      </trkpt>
      <trkpt lat="45.8351" lon="4.28119">
        <ele>723.359</ele>
        <time>2019-03-11T10:17:53Z</time>
      </trkpt>
      <trkpt lat="45.83516" lon="4.28115">
        <ele>723.316</ele>
        <time>2019-03-11T10:17:58Z</time>
      </trkpt>
      <trkpt lat="45.8352" lon="4.28108">
        <ele>722.94</ele>
        <time>2019-03-11T10:18:04Z</time>
      </trkpt>
      <trkpt lat="45.83525" lon="4.28104">
        <ele>722.899</ele>
        <time>2019-03-11T10:18:09Z</time>
      </trkpt>
      <trkpt lat="45.83529" lon="4.28098">
        <ele>722.976</ele>
        <time>2019-03-11T10:18:14Z</time>
      </trkpt>
      <trkpt lat="45.83531" lon="4.28095">
        <ele>722.918</ele>
        <time>2019-03-11T10:18:20Z</time>
      </trkpt>
      <trkpt lat="45.83534" lon="4.28091">
        <ele>722.952</ele>
        <time>2019-03-11T10:18:26Z</time>
      </trkpt>
      <trkpt lat="45.83538" lon="4.28086">
        <ele>723.251</ele>
        <time>2019-03-11T10:18:31Z</time>
      </trkpt>
      <trkpt lat="45.83543" lon="4.28081">
        <ele>723.528</ele>
        <time>2019-03-11T10:18:37Z</time>
      </trkpt>
      <trkpt lat="45.83549" lon="4.28077">
        <ele>723.782</ele>
        <time>2019-03-11T10:18:42Z</time>
      </trkpt>
      <trkpt lat="45.83555" lon="4.28072">
        <ele>723.931</ele>
        <time>2019-03-11T10:18:47Z</time>
      </trkpt>
      <trkpt lat="45.83561" lon="4.28066">
        <ele>723.971</ele>
        <time>2019-03-11T10:18:53Z</time>
      </trkpt>
      <trkpt lat="45.83567" lon="4.28062">
        <ele>723.942</ele>
        <time>2019-03-11T10:18:58Z</time>
      </trkpt>
      <trkpt lat="45.83572" lon="4.28058">
        <ele>723.919</ele>
        <time>2019-03-11T10:19:04Z</time>
      </trkpt>
      <trkpt lat="45.83577" lon="4.28055">
        <ele>723.939</ele>
        <time>2019-03-11T10:19:09Z</time>
      </trkpt>
      <trkpt lat="45.83581" lon="4.28051">
        <ele>723.958</ele>
        <time>2019-03-11T10:19:14Z</time>
      </trkpt>
      <trkpt lat="45.83587" lon="4.28047">
        <ele>723.817</ele>
        <time>2019-03-11T10:19:20Z</time>
      </trkpt>
      <trkpt lat="45.83595" lon="4.2804">
        <ele>723.696</ele>
        <time>2019-03-11T10:19:26Z</time>
      </trkpt>
      <trkpt lat="45.83601" lon="4.28035">
        <ele>724.043</ele>
        <time>2019-03-11T10:19:32Z</time>
      </trkpt>
      <trkpt lat="45.83607" lon="4.28033">
        <ele>724.316</ele>
        <time>2019-03-11T10:19:37Z</time>
      </trkpt>
      <trkpt lat="45.83614" lon="4.2803">
        <ele>724.314</ele>
        <time>2019-03-11T10:19:43Z</time>
      </trkpt>
      <trkpt lat="45.83618" lon="4.28024">
        <ele>724.227</ele>
        <time>2019-03-11T10:19:49Z</time>
      </trkpt>
      <trkpt lat="45.83623" lon="4.28018">
        <ele>724.064</ele>
        <time>2019-03-11T10:19:54Z</time>
      </trkpt>
      <trkpt lat="45.83631" lon="4.28011">
        <ele>723.652</ele>
        <time>2019-03-11T10:20:00Z</time>
      </trkpt>
      <trkpt lat="45.83639" lon="4.28006">
        <ele>723.384</ele>
        <time>2019-03-11T10:20:06Z</time>
      </trkpt>
      <trkpt lat="45.83646" lon="4.27999">
        <ele>722.961</ele>
        <time>2019-03-11T10:20:11Z</time>
      </trkpt>
      <trkpt lat="45.83651" lon="4.27994">
        <ele>722.044</ele>
        <time>2019-03-11T10:20:17Z</time>
      </trkpt>
      <trkpt lat="45.83656" lon="4.27991">
        <ele>721.29</ele>
        <time>2019-03-11T10:20:23Z</time>
      </trkpt>
      <trkpt lat="45.8366" lon="4.27986">
        <ele>721.011</ele>
        <time>2019-03-11T10:20:28Z</time>
      </trkpt>
      <trkpt lat="45.83668" lon="4.2798">
        <ele>721.048</ele>
        <time>2019-03-11T10:20:34Z</time>
      </trkpt>
      <trkpt lat="45.83675" lon="4.27978">
        <ele>720.743</ele>
        <time>2019-03-11T10:20:40Z</time>
      </trkpt>
      <trkpt lat="45.83682" lon="4.2797">
        <ele>720.566</ele>
        <time>2019-03-11T10:20:46Z</time>
      </trkpt>
      <trkpt lat="45.83689" lon="4.27964">
        <ele>720.475</ele>
        <time>2019-03-11T10:20:52Z</time>
      </trkpt>
      <trkpt lat="45.83695" lon="4.2796">
        <ele>719.908</ele>
        <time>2019-03-11T10:20:57Z</time>
      </trkpt>
      <trkpt lat="45.83703" lon="4.27954">
        <ele>719.452</ele>
        <time>2019-03-11T10:21:03Z</time>
      </trkpt>
      <trkpt lat="45.83709" lon="4.27948">
        <ele>719.039</ele>
        <time>2019-03-11T10:21:09Z</time>
      </trkpt>
      <trkpt lat="45.83714" lon="4.27942">
        <ele>718.468</ele>
        <time>2019-03-11T10:21:14Z</time>
      </trkpt>
      <trkpt lat="45.83718" lon="4.27935">
        <ele>718.122</ele>
        <time>2019-03-11T10:21:20Z</time>
      </trkpt>
      <trkpt lat="45.83722" lon="4.2793">
        <ele>718.098</ele>
        <time>2019-03-11T10:21:26Z</time>
      </trkpt>
      <trkpt lat="45.8373" lon="4.27925">
        <ele>717.941</ele>
        <time>2019-03-11T10:21:32Z</time>
      </trkpt>
      <trkpt lat="45.83737" lon="4.2792">
        <ele>718.007</ele>
        <time>2019-03-11T10:21:38Z</time>
      </trkpt>
      <trkpt lat="45.83744" lon="4.27916">
        <ele>717.55</ele>
        <time>2019-03-11T10:21:44Z</time>
      </trkpt>
      <trkpt lat="45.8375" lon="4.27912">
        <ele>717.292</ele>
        <time>2019-03-11T10:21:49Z</time>
      </trkpt>
      <trkpt lat="45.83756" lon="4.27905">
        <ele>717.062</ele>
        <time>2019-03-11T10:21:55Z</time>
      </trkpt>
      <trkpt lat="45.83762" lon="4.279">
        <ele>716.882</ele>
        <time>2019-03-11T10:22:00Z</time>
      </trkpt>
      <trkpt lat="45.83768" lon="4.27895">
        <ele>716.942</ele>
        <time>2019-03-11T10:22:06Z</time>
      </trkpt>
      <trkpt lat="45.83773" lon="4.2789">
        <ele>717.054</ele>
        <time>2019-03-11T10:22:12Z</time>
      </trkpt>
      <trkpt lat="45.83778" lon="4.27884">
        <ele>717.149</ele>
        <time>2019-03-11T10:22:18Z</time>
      </trkpt>
      <trkpt lat="45.83782" lon="4.27876">
        <ele>717.285</ele>
        <time>2019-03-11T10:22:23Z</time>
      </trkpt>
      <trkpt lat="45.83783" lon="4.2787">
        <ele>717.249</ele>
        <time>2019-03-11T10:22:28Z</time>
      </trkpt>
      <trkpt lat="45.83785" lon="4.27859">
        <ele>717.192</ele>
        <time>2019-03-11T10:22:34Z</time>
      </trkpt>
      <trkpt lat="45.83787" lon="4.27848">
        <ele>717.075</ele>
        <time>2019-03-11T10:22:40Z</time>
      </trkpt>
      <trkpt lat="45.83788" lon="4.27838">
        <ele>716.709</ele>
        <time>2019-03-11T10:22:45Z</time>
      </trkpt>
      <trkpt lat="45.8379" lon="4.27828">
        <ele>716.517</ele>
        <time>2019-03-11T10:22:50Z</time>
      </trkpt>
      <trkpt lat="45.83792" lon="4.27819">
        <ele>716.239</ele>
        <time>2019-03-11T10:22:55Z</time>
      </trkpt>
      <trkpt lat="45.83793" lon="4.27809">
        <ele>715.909</ele>
        <time>2019-03-11T10:23:01Z</time>
      </trkpt>
      <trkpt lat="45.83797" lon="4.27798">
        <ele>715.757</ele>
        <time>2019-03-11T10:23:07Z</time>
      </trkpt>
      <trkpt lat="45.838" lon="4.27789">
        <ele>715.73</ele>
        <time>2019-03-11T10:23:12Z</time>
      </trkpt>
      <trkpt lat="45.83801" lon="4.27781">
        <ele>715.66</ele>
        <time>2019-03-11T10:23:17Z</time>
      </trkpt>
      <trkpt lat="45.83805" lon="4.2777">
        <ele>715.454</ele>
        <time>2019-03-11T10:23:23Z</time>
      </trkpt>
      <trkpt lat="45.83809" lon="4.2776">
        <ele>715.029</ele>
        <time>2019-03-11T10:23:29Z</time>
      </trkpt>
      <trkpt lat="45.83813" lon="4.27752">
        <ele>714.746</ele>
        <time>2019-03-11T10:23:34Z</time>
      </trkpt>
      <trkpt lat="45.83817" lon="4.27744">
        <ele>714.444</ele>
        <time>2019-03-11T10:23:40Z</time>
      </trkpt>
      <trkpt lat="45.83822" lon="4.27735">
        <ele>714.05</ele>
        <time>2019-03-11T10:23:46Z</time>
      </trkpt>
      <trkpt lat="45.83828" lon="4.27726">
        <ele>713.425</ele>
        <time>2019-03-11T10:23:52Z</time>
      </trkpt>
      <trkpt lat="45.83833" lon="4.27717">
        <ele>712.484</ele>
        <time>2019-03-11T10:23:58Z</time>
      </trkpt>
      <trkpt lat="45.83838" lon="4.27706">
        <ele>711.793</ele>
        <time>2019-03-11T10:24:04Z</time>
      </trkpt>
      <trkpt lat="45.83842" lon="4.27698">
        <ele>710.97</ele>
        <time>2019-03-11T10:24:10Z</time>
      </trkpt>
      <trkpt lat="45.83846" lon="4.27691">
        <ele>710.528</ele>
        <time>2019-03-11T10:24:15Z</time>
      </trkpt>
      <trkpt lat="45.83851" lon="4.27683">
        <ele>710.107</ele>
        <time>2019-03-11T10:24:21Z</time>
      </trkpt>
      <trkpt lat="45.83854" lon="4.27675">
        <ele>709.769</ele>
        <time>2019-03-11T10:24:26Z</time>
      </trkpt>
      <trkpt lat="45.8386" lon="4.27662">
        <ele>709.365</ele>
        <time>2019-03-11T10:24:32Z</time>
      </trkpt>
      <trkpt lat="45.83865" lon="4.27654">
        <ele>709.132</ele>
        <time>2019-03-11T10:24:38Z</time>
      </trkpt>
      <trkpt lat="45.83868" lon="4.27647">
        <ele>708.568</ele>
        <time>2019-03-11T10:24:44Z</time>
      </trkpt>
      <trkpt lat="45.83866" lon="4.27639">
        <ele>707.821</ele>
        <time>2019-03-11T10:24:50Z</time>
      </trkpt>
      <trkpt lat="45.83864" lon="4.27633">
        <ele>707.346</ele>
        <time>2019-03-11T10:24:55Z</time>
      </trkpt>
      <trkpt lat="45.83865" lon="4.27629">
        <ele>706.864</ele>
        <time>2019-03-11T10:25:01Z</time>
      </trkpt>
      <trkpt lat="45.83866" lon="4.27627">
        <ele>706.078</ele>
        <time>2019-03-11T10:25:07Z</time>
      </trkpt>
      <trkpt lat="45.83865" lon="4.27625">
        <ele>705.958</ele>
        <time>2019-03-11T10:25:13Z</time>
      </trkpt>
      <trkpt lat="45.83865" lon="4.27624">
        <ele>705.366</ele>
        <time>2019-03-11T10:25:19Z</time>
      </trkpt>
      <trkpt lat="45.83865" lon="4.27624">
        <ele>705.408</ele>
        <time>2019-03-11T10:25:24Z</time>
      </trkpt>
      <trkpt lat="45.83867" lon="4.27624">
        <ele>705.408</ele>
        <time>2019-03-11T10:25:30Z</time>
      </trkpt>
      <trkpt lat="45.8387" lon="4.27625">
        <ele>705.273</ele>
        <time>2019-03-11T10:25:36Z</time>
      </trkpt>
      <trkpt lat="45.83869" lon="4.27625">
        <ele>705.119</ele>
        <time>2019-03-11T10:25:41Z</time>
      </trkpt>
      <trkpt lat="45.83864" lon="4.27623">
        <ele>704.384</ele>
        <time>2019-03-11T10:25:47Z</time>
      </trkpt>
      <trkpt lat="45.8386" lon="4.27619">
        <ele>703.223</ele>
        <time>2019-03-11T10:25:53Z</time>
      </trkpt>
      <trkpt lat="45.83857" lon="4.27614">
        <ele>702.449</ele>
        <time>2019-03-11T10:25:58Z</time>
      </trkpt>
      <trkpt lat="45.83854" lon="4.27607">
        <ele>701.846</ele>
        <time>2019-03-11T10:26:03Z</time>
      </trkpt>
      <trkpt lat="45.83851" lon="4.27596">
        <ele>701.394</ele>
        <time>2019-03-11T10:26:09Z</time>
      </trkpt>
      <trkpt lat="45.8385" lon="4.27587">
        <ele>701.269</ele>
        <time>2019-03-11T10:26:14Z</time>
      </trkpt>
      <trkpt lat="45.8385" lon="4.27576">
        <ele>700.957</ele>
        <time>2019-03-11T10:26:20Z</time>
      </trkpt>
      <trkpt lat="45.83851" lon="4.27569">
        <ele>700.256</ele>
        <time>2019-03-11T10:26:25Z</time>
      </trkpt>
      <trkpt lat="45.8385" lon="4.27557">
        <ele>699.473</ele>
        <time>2019-03-11T10:26:31Z</time>
      </trkpt>
      <trkpt lat="45.8385" lon="4.2755">
        <ele>698.664</ele>
        <time>2019-03-11T10:26:36Z</time>
      </trkpt>
      <trkpt lat="45.8385" lon="4.27538">
        <ele>698.164</ele>
        <time>2019-03-11T10:26:41Z</time>
      </trkpt>
      <trkpt lat="45.83848" lon="4.27527">
        <ele>697.972</ele>
        <time>2019-03-11T10:26:47Z</time>
      </trkpt>
      <trkpt lat="45.83847" lon="4.27519">
        <ele>697.841</ele>
        <time>2019-03-11T10:26:52Z</time>
      </trkpt>
      <trkpt lat="45.83847" lon="4.27508">
        <ele>697.517</ele>
        <time>2019-03-11T10:26:58Z</time>
      </trkpt>
      <trkpt lat="45.83846" lon="4.27497">
        <ele>697.068</ele>
        <time>2019-03-11T10:27:04Z</time>
      </trkpt>
      <trkpt lat="45.83845" lon="4.27487">
        <ele>696.708</ele>
        <time>2019-03-11T10:27:10Z</time>
      </trkpt>
      <trkpt lat="45.83845" lon="4.27479">
        <ele>696.164</ele>
        <time>2019-03-11T10:27:16Z</time>
      </trkpt>
      <trkpt lat="45.83846" lon="4.27468">
        <ele>695.979</ele>
        <time>2019-03-11T10:27:21Z</time>
      </trkpt>
      <trkpt lat="45.83846" lon="4.27455">
        <ele>695.615</ele>
        <time>2019-03-11T10:27:27Z</time>
      </trkpt>
      <trkpt lat="45.83845" lon="4.27442">
        <ele>695.108</ele>
        <time>2019-03-11T10:27:33Z</time>
      </trkpt>
      <trkpt lat="45.83845" lon="4.27432">
        <ele>694.604</ele>
        <time>2019-03-11T10:27:39Z</time>
      </trkpt>
      <trkpt lat="45.83845" lon="4.27422">
        <ele>694.057</ele>
        <time>2019-03-11T10:27:45Z</time>
      </trkpt>
      <trkpt lat="45.83845" lon="4.27414">
        <ele>693.736</ele>
        <time>2019-03-11T10:27:50Z</time>
      </trkpt>
      <trkpt lat="45.83846" lon="4.27405">
        <ele>693.303</ele>
        <time>2019-03-11T10:27:55Z</time>
      </trkpt>
      <trkpt lat="45.83846" lon="4.27394">
        <ele>692.818</ele>
        <time>2019-03-11T10:28:00Z</time>
      </trkpt>
      <trkpt lat="45.83847" lon="4.27382">
        <ele>692.17</ele>
        <time>2019-03-11T10:28:06Z</time>
      </trkpt>
      <trkpt lat="45.83847" lon="4.2737">
        <ele>691.6</ele>
        <time>2019-03-11T10:28:12Z</time>
      </trkpt>
      <trkpt lat="45.83847" lon="4.27361">
        <ele>691.014</ele>
        <time>2019-03-11T10:28:18Z</time>
      </trkpt>
      <trkpt lat="45.83846" lon="4.27349">
        <ele>690.69</ele>
        <time>2019-03-11T10:28:24Z</time>
      </trkpt>
      <trkpt lat="45.83845" lon="4.27337">
        <ele>689.95</ele>
        <time>2019-03-11T10:28:30Z</time>
      </trkpt>
      <trkpt lat="45.83844" lon="4.27329">
        <ele>689.397</ele>
        <time>2019-03-11T10:28:35Z</time>
      </trkpt>
      <trkpt lat="45.83844" lon="4.27318">
        <ele>688.954</ele>
        <time>2019-03-11T10:28:40Z</time>
      </trkpt>
      <trkpt lat="45.83844" lon="4.27311">
        <ele>688.667</ele>
        <time>2019-03-11T10:28:45Z</time>
      </trkpt>
      <trkpt lat="45.83844" lon="4.273">
        <ele>688.428</ele>
        <time>2019-03-11T10:28:51Z</time>
      </trkpt>
      <trkpt lat="45.83843" lon="4.27287">
        <ele>688.075</ele>
        <time>2019-03-11T10:28:57Z</time>
      </trkpt>
      <trkpt lat="45.83843" lon="4.27276">
        <ele>687.737</ele>
        <time>2019-03-11T10:29:03Z</time>
      </trkpt>
      <trkpt lat="45.83842" lon="4.27264">
        <ele>686.988</ele>
        <time>2019-03-11T10:29:09Z</time>
      </trkpt>
      <trkpt lat="45.8384" lon="4.27254">
        <ele>686.241</ele>
        <time>2019-03-11T10:29:14Z</time>
      </trkpt>
      <trkpt lat="45.83839" lon="4.27245">
        <ele>685.151</ele>
        <time>2019-03-11T10:29:20Z</time>
      </trkpt>
      <trkpt lat="45.83839" lon="4.27235">
        <ele>684.41</ele>
        <time>2019-03-11T10:29:26Z</time>
      </trkpt>
      <trkpt lat="45.83838" lon="4.27225">
        <ele>684.077</ele>
        <time>2019-03-11T10:29:31Z</time>
      </trkpt>
      <trkpt lat="45.83836" lon="4.27215">
        <ele>684.207</ele>
        <time>2019-03-11T10:29:37Z</time>
      </trkpt>
      <trkpt lat="45.83836" lon="4.27206">
        <ele>684.019</ele>
        <time>2019-03-11T10:29:42Z</time>
      </trkpt>
      <trkpt lat="45.83837" lon="4.27199">
        <ele>684.033</ele>
        <time>2019-03-11T10:29:47Z</time>
      </trkpt>
      <trkpt lat="45.83838" lon="4.2719">
        <ele>683.922</ele>
        <time>2019-03-11T10:29:53Z</time>
      </trkpt>
      <trkpt lat="45.8384" lon="4.2718">
        <ele>683.786</ele>
        <time>2019-03-11T10:29:59Z</time>
      </trkpt>
      <trkpt lat="45.8384" lon="4.27167">
        <ele>683.708</ele>
        <time>2019-03-11T10:30:05Z</time>
      </trkpt>
      <trkpt lat="45.83841" lon="4.27158">
        <ele>683.316</ele>
        <time>2019-03-11T10:30:10Z</time>
      </trkpt>
      <trkpt lat="45.83842" lon="4.27149">
        <ele>682.693</ele>
        <time>2019-03-11T10:30:15Z</time>
      </trkpt>
      <trkpt lat="45.83846" lon="4.27136">
        <ele>682.324</ele>
        <time>2019-03-11T10:30:21Z</time>
      </trkpt>
      <trkpt lat="45.83847" lon="4.27127">
        <ele>681.643</ele>
        <time>2019-03-11T10:30:27Z</time>
      </trkpt>
      <trkpt lat="45.83847" lon="4.2712">
        <ele>680.984</ele>
        <time>2019-03-11T10:30:33Z</time>
      </trkpt>
      <trkpt lat="45.83848" lon="4.27109">
        <ele>680.358</ele>
        <time>2019-03-11T10:30:39Z</time>
      </trkpt>
      <trkpt lat="45.83848" lon="4.27099">
        <ele>679.973</ele>
        <time>2019-03-11T10:30:44Z</time>
      </trkpt>
      <trkpt lat="45.83847" lon="4.27089">
        <ele>679.678</ele>
        <time>2019-03-11T10:30:50Z</time>
      </trkpt>
      <trkpt lat="45.83848" lon="4.2708">
        <ele>679.709</ele>
        <time>2019-03-11T10:30:55Z</time>
      </trkpt>
      <trkpt lat="45.83849" lon="4.27072">
        <ele>679.552</ele>
        <time>2019-03-11T10:31:00Z</time>
      </trkpt>
      <trkpt lat="45.8385" lon="4.27065">
        <ele>679.002</ele>
        <time>2019-03-11T10:31:05Z</time>
      </trkpt>
      <trkpt lat="45.83851" lon="4.27055">
        <ele>678.273</ele>
        <time>2019-03-11T10:31:11Z</time>
      </trkpt>
      <trkpt lat="45.83852" lon="4.27042">
        <ele>677.857</ele>
        <time>2019-03-11T10:31:17Z</time>
      </trkpt>
      <trkpt lat="45.83853" lon="4.27034">
        <ele>677.3</ele>
        <time>2019-03-11T10:31:22Z</time>
      </trkpt>
      <trkpt lat="45.83853" lon="4.27025">
        <ele>677.042</ele>
        <time>2019-03-11T10:31:28Z</time>
      </trkpt>
      <trkpt lat="45.83855" lon="4.27017">
        <ele>676.657</ele>
        <time>2019-03-11T10:31:34Z</time>
      </trkpt>
      <trkpt lat="45.83856" lon="4.27012">
        <ele>676.127</ele>
        <time>2019-03-11T10:31:39Z</time>
      </trkpt>
      <trkpt lat="45.83855" lon="4.27004">
        <ele>675.691</ele>
        <time>2019-03-11T10:31:45Z</time>
      </trkpt>
      <trkpt lat="45.83854" lon="4.26996">
        <ele>675.436</ele>
        <time>2019-03-11T10:31:51Z</time>
      </trkpt>
      <trkpt lat="45.83852" lon="4.26987">
        <ele>674.638</ele>
        <time>2019-03-11T10:31:56Z</time>
      </trkpt>
      <trkpt lat="45.8385" lon="4.26978">
        <ele>673.634</ele>
        <time>2019-03-11T10:32:02Z</time>
      </trkpt>
      <trkpt lat="45.83851" lon="4.26967">
        <ele>673.241</ele>
        <time>2019-03-11T10:32:08Z</time>
      </trkpt>
      <trkpt lat="45.8385" lon="4.26959">
        <ele>672.997</ele>
        <time>2019-03-11T10:32:14Z</time>
      </trkpt>
      <trkpt lat="45.83851" lon="4.2695">
        <ele>672.295</ele>
        <time>2019-03-11T10:32:19Z</time>
      </trkpt>
      <trkpt lat="45.8385" lon="4.26942">
        <ele>671.381</ele>
        <time>2019-03-11T10:32:24Z</time>
      </trkpt>
      <trkpt lat="45.83849" lon="4.26934">
        <ele>670.012</ele>
        <time>2019-03-11T10:32:30Z</time>
      </trkpt>
      <trkpt lat="45.83847" lon="4.26926">
        <ele>669.073</ele>
        <time>2019-03-11T10:32:35Z</time>
      </trkpt>
      <trkpt lat="45.83841" lon="4.2692">
        <ele>667.823</ele>
        <time>2019-03-11T10:32:40Z</time>
      </trkpt>
      <trkpt lat="45.8384" lon="4.2692">
        <ele>666.585</ele>
        <time>2019-03-11T10:32:45Z</time>
      </trkpt>
      <trkpt lat="45.83835" lon="4.26923">
        <ele>665.775</ele>
        <time>2019-03-11T10:32:51Z</time>
      </trkpt>
      <trkpt lat="45.83827" lon="4.26924">
        <ele>665.089</ele>
        <time>2019-03-11T10:32:57Z</time>
      </trkpt>
      <trkpt lat="45.83821" lon="4.26927">
        <ele>664.33</ele>
        <time>2019-03-11T10:33:02Z</time>
      </trkpt>
      <trkpt lat="45.83815" lon="4.26933">
        <ele>663.509</ele>
        <time>2019-03-11T10:33:08Z</time>
      </trkpt>
      <trkpt lat="45.8381" lon="4.2694">
        <ele>663.02</ele>
        <time>2019-03-11T10:33:13Z</time>
      </trkpt>
      <trkpt lat="45.83803" lon="4.26943">
        <ele>662.211</ele>
        <time>2019-03-11T10:33:19Z</time>
      </trkpt>
      <trkpt lat="45.83796" lon="4.26947">
        <ele>661.692</ele>
        <time>2019-03-11T10:33:24Z</time>
      </trkpt>
      <trkpt lat="45.83789" lon="4.26951">
        <ele>661.151</ele>
        <time>2019-03-11T10:33:29Z</time>
      </trkpt>
      <trkpt lat="45.83781" lon="4.26955">
        <ele>660.591</ele>
        <time>2019-03-11T10:33:35Z</time>
      </trkpt>
      <trkpt lat="45.83774" lon="4.26955">
        <ele>659.956</ele>
        <time>2019-03-11T10:33:40Z</time>
      </trkpt>
      <trkpt lat="45.83762" lon="4.26952">
        <ele>659.87</ele>
        <time>2019-03-11T10:33:46Z</time>
      </trkpt>
      <trkpt lat="45.83753" lon="4.26951">
        <ele>659.379</ele>
        <time>2019-03-11T10:33:51Z</time>
      </trkpt>
      <trkpt lat="45.83744" lon="4.2695">
        <ele>658.732</ele>
        <time>2019-03-11T10:33:57Z</time>
      </trkpt>
      <trkpt lat="45.83739" lon="4.26948">
        <ele>658.128</ele>
        <time>2019-03-11T10:34:02Z</time>
      </trkpt>
      <trkpt lat="45.83733" lon="4.26943">
        <ele>657.621</ele>
        <time>2019-03-11T10:34:08Z</time>
      </trkpt>
      <trkpt lat="45.83729" lon="4.26938">
        <ele>657.294</ele>
        <time>2019-03-11T10:34:14Z</time>
      </trkpt>
      <trkpt lat="45.83724" lon="4.26926">
        <ele>656.743</ele>
        <time>2019-03-11T10:34:20Z</time>
      </trkpt>
      <trkpt lat="45.83721" lon="4.26918">
        <ele>655.515</ele>
        <time>2019-03-11T10:34:25Z</time>
      </trkpt>
      <trkpt lat="45.83718" lon="4.26911">
        <ele>653.912</ele>
        <time>2019-03-11T10:34:31Z</time>
      </trkpt>
      <trkpt lat="45.83713" lon="4.26902">
        <ele>652.983</ele>
        <time>2019-03-11T10:34:37Z</time>
      </trkpt>
      <trkpt lat="45.83711" lon="4.26898">
        <ele>652.125</ele>
        <time>2019-03-11T10:34:42Z</time>
      </trkpt>
      <trkpt lat="45.83707" lon="4.26889">
        <ele>651.344</ele>
        <time>2019-03-11T10:34:48Z</time>
      </trkpt>
      <trkpt lat="45.83704" lon="4.26883">
        <ele>651.263</ele>
        <time>2019-03-11T10:34:54Z</time>
      </trkpt>
      <trkpt lat="45.83701" lon="4.26879">
        <ele>651.312</ele>
        <time>2019-03-11T10:35:00Z</time>
      </trkpt>
      <trkpt lat="45.83696" lon="4.26869">
        <ele>651.281</ele>
        <time>2019-03-11T10:35:06Z</time>
      </trkpt>
      <trkpt lat="45.83693" lon="4.2686">
        <ele>650.929</ele>
        <time>2019-03-11T10:35:11Z</time>
      </trkpt>
      <trkpt lat="45.83693" lon="4.26849">
        <ele>650.809</ele>
        <time>2019-03-11T10:35:17Z</time>
      </trkpt>
      <trkpt lat="45.83693" lon="4.26839">
        <ele>650.841</ele>
        <time>2019-03-11T10:35:22Z</time>
      </trkpt>
      <trkpt lat="45.83693" lon="4.26826">
        <ele>650.797</ele>
        <time>2019-03-11T10:35:28Z</time>
      </trkpt>
      <trkpt lat="45.83691" lon="4.26816">
        <ele>650.691</ele>
        <time>2019-03-11T10:35:33Z</time>
      </trkpt>
      <trkpt lat="45.83691" lon="4.26805">
        <ele>650.375</ele>
        <time>2019-03-11T10:35:39Z</time>
      </trkpt>
      <trkpt lat="45.8369" lon="4.26796">
        <ele>649.865</ele>
        <time>2019-03-11T10:35:45Z</time>
      </trkpt>
      <trkpt lat="45.83687" lon="4.26783">
        <ele>649.736</ele>
        <time>2019-03-11T10:35:50Z</time>
      </trkpt>
      <trkpt lat="45.83689" lon="4.26771">
        <ele>649.81</ele>
        <time>2019-03-11T10:35:56Z</time>
      </trkpt>
      <trkpt lat="45.8369" lon="4.26764">
        <ele>649.257</ele>
        <time>2019-03-11T10:36:01Z</time>
      </trkpt>
      <trkpt lat="45.83691" lon="4.26753">
        <ele>648.434</ele>
        <time>2019-03-11T10:36:07Z</time>
      </trkpt>
      <trkpt lat="45.83695" lon="4.26749">
        <ele>647.643</ele>
        <time>2019-03-11T10:36:12Z</time>
      </trkpt>
      <trkpt lat="45.83703" lon="4.26755">
        <ele>645.84</ele>
        <time>2019-03-11T10:36:18Z</time>
      </trkpt>
      <trkpt lat="45.83706" lon="4.26758">
        <ele>644.184</ele>
        <time>2019-03-11T10:36:23Z</time>
      </trkpt>
      <trkpt lat="45.83709" lon="4.26764">
        <ele>642.889</ele>
        <time>2019-03-11T10:36:28Z</time>
      </trkpt>
      <trkpt lat="45.83713" lon="4.26771">
        <ele>641.595</ele>
        <time>2019-03-11T10:36:34Z</time>
      </trkpt>
      <trkpt lat="45.83713" lon="4.26771">
        <ele>641.113</ele>
        <time>2019-03-11T10:36:40Z</time>
      </trkpt>
      <trkpt lat="45.83714" lon="4.26769">
        <ele>640.652</ele>
        <time>2019-03-11T10:36:46Z</time>
      </trkpt>
      <trkpt lat="45.83715" lon="4.26768">
        <ele>641.06</ele>
        <time>2019-03-11T10:36:51Z</time>
      </trkpt>
      <trkpt lat="45.83716" lon="4.26768">
        <ele>641.663</ele>
        <time>2019-03-11T10:36:57Z</time>
      </trkpt>
      <trkpt lat="45.83715" lon="4.26768">
        <ele>641.792</ele>
        <time>2019-03-11T10:37:02Z</time>
      </trkpt>
    </trkseg>
  </trk>
</gpx>